[[{"header":{"parameterUnit":"m.s-1","parameterCategory":1,"la1":30.6,"la2":28.766,"lo1":-90.7593,"lo2":-88.6598,"dy":0.0162,"dx":0.0183,"nx":116,"ny":114,"refTime":"2023-05-12T06:00:00:Z","depth":0,"parameterNumber":2,"parameterNumberName":"U-component_of_WINDS"},"data":[0.0,0.0,0.0,0.0,0.0,0.0,0.0,0.0,0.0,0.0,0.0,0.0,0.0,0.0,0.0,0.0,0.0,0.0,0.0,0.0,0.0,0.0,0.0,0.0,0.0,0.0,0.0,0.0,0.0,0.0,0.0,0.0,0.0,0.0,0.0,0.0,0.0,0.0,0.0,0.0,0.0,0.0,0.0,0.0,0.0,0.0,0.0,0.0,0.0,0.0,0.0,0.0,0.0,0.0,0.0,0.0,0.0,0.0,0.0,0.0,0.0,0.0,0.0,0.0,0.0,0.0,0.0,0.0,0.0,0.0,0.0,0.0,0.0,0.0,0.0,0.0,0.0,0.0,0.0,0.0,0.0,0.0,0.0,0.0,0.0,0.0,0.0,0.0,0.0,0.0,0.0,0.0,0.0,0.0,0.0,0.0,0.0,0.0,0.0,0.0,0.0,0.0,0.0,0.0,0.0,0.0,0.0,0.0,0.0,0.0,0.0,0.0,0.0,0.0,0.0,0.0,0.0,0.0,0.0,0.0,0.0,0.0,0.0,0.0,0.0,0.0,0.0,0.0,0.0,0.0,0.0,0.0,0.0,0.0,0.0,0.0,0.0,0.0,0.0,0.0,0.0,0.0,0.0,0.0,0.0,0.0,0.0,0.0,0.0,0.0,0.0,0.0,0.0,0.0,0.0,0.0,0.0,0.0,0.0,0.0,0.0,0.0,0.0,0.0,0.0,0.0,0.0,0.0,0.0,0.0,0.0,0.0,0.0,0.0,0.0,0.0,0.0,0.0,0.0,0.0,0.0,0.0,0.0,0.0,0.0,0.0,0.0,0.0,0.0,0.0,0.0,0.0,0.0,0.0,0.0,0.0,0.0,0.0,0.0,0.0,0.0,0.0,0.0,0.0,0.0,0.0,0.0,0.0,0.0,0.0,0.0,0.0,0.0,0.0,0.0,0.0,0.0,0.0,0.0,0.0,0.0,0.0,0.0,0.0,0.0,0.0,0.0,0.0,0.0,0.0,0.0,0.0,0.0,0.0,0.0,0.0,0.0,0.0,0.0,0.0,0.0,0.0,0.0,0.0,0.0,0.0,0.0,0.0,0.0,0.0,0.0,0.0,0.0,0.0,0.0,0.0,0.0,0.0,0.0,0.0,0.0,0.0,0.0,0.0,0.0,0.0,0.0,0.0,0.0,0.0,0.0,0.0,0.0,0.0,0.0,0.0,0.0,0.0,0.0,0.0,0.0,0.0,0.0,0.0,0.0,0.0,0.0,0.0,0.0,0.0,0.0,0.0,0.0,0.0,0.0,0.0,0.0,0.0,0.0,0.0,0.0,0.0,0.0,0.0,0.0,0.0,0.0,0.0,0.0,0.0,0.0,0.0,0.0,0.0,0.0,0.0,0.0,0.0,0.0,0.0,0.0,0.0,0.0,0.0,0.0,0.0,0.0,0.0,0.0,0.0,0.0,0.0,0.0,0.0,0.0,0.0,0.0,0.0,0.0,0.0,0.0,0.0,0.0,0.0,0.0,0.0,0.0,0.0,0.0,0.0,0.0,0.0,0.0,0.0,0.0,0.0,0.0,0.0,0.0,0.0,0.0,0.0,0.0,0.0,0.0,0.0,0.0,0.0,0.0,0.0,0.0,0.0,0.0,0.0,0.0,0.0,0.0,0.0,0.0,0.0,0.0,0.0,0.0,0.0,0.0,0.0,0.0,0.0,0.0,0.0,0.0,0.0,0.0,0.0,0.0,0.0,0.0,0.0,0.0,0.0,0.0,0.0,0.0,0.0,0.0,0.0,0.0,0.0,0.0,0.0,0.0,0.0,0.0,0.0,0.0,0.0,0.0,0.0,0.0,0.0,0.0,0.0,0.0,0.0,0.0,0.0,0.0,0.0,0.0,0.0,0.0,0.0,0.0,0.0,0.0,0.0,0.0,0.0,0.0,0.0,0.0,0.0,0.0,0.0,0.0,0.0,0.0,0.0,0.0,0.0,0.0,0.0,0.0,0.0,0.0,0.0,0.0,0.0,0.0,0.0,0.0,0.0,0.0,0.0,0.0,0.0,0.0,0.0,0.0,0.0,0.0,0.0,0.0,0.0,0.0,0.0,0.0,0.0,0.0,0.0,0.0,0.0,0.0,0.0,0.0,0.0,0.0,0.0,0.0,0.0,0.0,0.0,0.0,0.0,0.0,0.0,0.0,0.0,0.0,0.0,0.0,0.0,0.0,0.0,0.0,0.0,0.0,0.0,0.0,0.0,0.0,0.0,0.0,0.0,0.0,0.0,0.0,0.0,0.0,0.0,0.0,0.0,0.0,0.0,0.0,0.0,0.0,0.0,0.0,0.0,0.0,0.0,0.0,0.0,0.0,0.0,0.0,0.0,0.0,0.0,0.0,0.0,0.0,0.0,0.0,0.0,0.0,0.0,0.0,0.0,0.0,0.0,0.0,0.0,0.0,0.0,0.0,0.0,0.0,0.0,0.0,0.0,0.0,0.0,0.0,0.0,0.0,0.0,0.0,0.0,0.0,0.0,0.0,0.0,0.0,0.0,0.0,0.0,0.0,0.0,0.0,0.0,0.0,0.0,0.0,0.0,0.0,0.0,0.0,0.0,0.0,0.0,0.0,0.0,0.0,0.0,0.0,0.0,0.0,0.0,0.0,0.0,0.0,0.0,0.0,0.0,0.0,0.0,0.0,0.0,0.0,0.0,0.0,0.0,0.0,0.0,0.0,0.0,0.0,0.0,0.0,0.0,0.0,0.0,0.0,0.0,0.0,0.0,0.0,0.0,0.0,0.0,0.0,0.0,0.0,0.0,0.0,0.0,0.0,0.0,0.0,0.0,0.0,0.0,0.0,0.0,0.0,0.0,0.0,0.0,0.0,0.0,0.0,0.0,0.0,0.0,0.0,0.0,0.0,0.0,0.0,0.0,0.0,0.0,0.0,0.0,0.0,0.0,0.0,0.0,0.0,0.0,0.0,0.0,0.0,0.0,0.0,0.0,0.0,0.0,0.0,0.0,0.0,0.0,0.0,0.0,0.0,0.0,0.0,0.0,0.0,0.0,0.0,0.0,0.0,0.0,0.0,0.0,0.0,0.0,0.0,0.0,0.0,0.0,0.0,0.0,0.0,0.0,0.0,0.0,0.0,0.0,0.0,0.0,0.0,0.0,0.0,0.0,0.0,0.0,0.0,0.0,0.0,0.0,0.0,0.0,0.0,0.0,0.0,0.0,0.0,0.0,0.0,0.0,0.0,0.0,0.0,0.0,0.0,0.0,0.0,0.0,0.0,0.0,0.0,0.0,0.0,0.0,0.0,0.0,0.0,0.0,0.0,0.0,0.0,0.0,0.0,0.0,0.0,0.0,0.0,0.0,0.0,0.0,0.0,0.0,0.0,0.0,0.0,0.0,0.0,0.0,0.0,0.0,0.0,0.0,0.0,0.0,0.0,0.0,0.0,0.0,0.0,0.0,0.0,0.0,0.0,0.0,0.0,0.0,0.0,0.0,0.0,0.0,0.0,0.0,0.0,0.0,0.0,0.0,0.0,0.0,0.0,0.0,0.0,0.0,0.0,0.0,0.0,0.0,0.0,0.0,0.0,0.0,0.0,0.0,0.0,0.0,0.0,0.0,0.0,0.0,0.0,0.0,0.0,0.0,0.0,0.0,0.0,0.0,0.0,0.0,0.0,0.0,0.0,0.0,0.0,0.0,0.0,0.0,0.0,0.0,0.0,0.0,0.0,0.0,0.0,0.0,0.0,0.0,0.0,0.0,0.0,0.0,0.0,0.0,0.0,0.0,0.0,0.0,0.0,0.0,0.0,0.0,0.0,0.0,0.0,0.0,0.0,0.0,0.0,0.0,0.0,0.0,0.0,0.0,0.0,0.0,0.0,0.0,0.0,0.0,0.0,0.0,0.0,0.0,0.0,0.0,0.0,0.0,0.0,0.0,0.0,0.0,0.0,0.0,0.0,0.0,0.0,0.0,0.0,0.0,0.0,0.0,0.0,0.0,0.0,0.0,0.0,0.0,0.0,0.0,0.0,0.0,0.0,0.0,0.0,0.0,0.0,0.0,0.0,0.0,0.0,0.0,0.0,0.0,0.0,0.0,0.0,0.0,0.0,0.0,0.0,0.0,0.0,0.0,0.0,0.0,0.0,0.0,0.0,0.0,0.0,0.0,0.0,0.0,0.0,0.0,0.0,0.0,0.0,0.0,0.0,0.0,0.0,0.0,0.0,0.0,0.0,0.0,0.0,0.0,0.0,0.0,0.0,0.0,0.0,0.0,0.0,0.0,0.0,0.0,0.0,0.0,0.0,0.0,0.0,0.0,0.0,0.0,0.0,0.0,0.0,0.0,0.0,0.0,0.0,0.0,0.0,0.0,0.0,0.0,0.0,0.0,0.0,0.0,0.0,0.0,0.0,0.0,0.0,0.0,0.0,0.0,0.0,0.0,0.0,0.0,0.0,0.0,0.0,0.0,0.0,0.0,0.0,0.0,0.0,0.0,0.0,0.0,0.0,0.0,0.0,0.0,0.0,0.0,0.0,0.0,0.0,0.0,0.0,0.0,0.0,0.0,0.0,0.0,0.0,0.0,0.0,0.0,0.0,0.0,0.0,0.0,0.0,0.0,0.0,0.0,0.0,0.0,0.0,0.0,0.0,0.0,0.0,0.0,0.0,0.0,0.0,0.0,0.0,0.0,0.0,0.0,0.0,0.0,0.0,0.0,0.0,0.0,0.0,0.0,0.0,0.0,0.0,0.0,0.0,0.0,0.0,0.0,0.0,0.0,0.0,0.0,0.0,0.0,0.0,0.0,0.0,0.0,0.0,0.0,0.0,0.0,0.0,0.0,0.0,0.0,0.0,0.0,0.0,0.0,0.0,0.0,0.0,0.0,0.0,0.0,0.0,0.0,0.0,0.0,0.0,0.0,0.0,0.0,0.0,0.0,0.0,0.0,0.0,0.0,0.0,0.0,0.0,0.0,0.0,0.0,0.0,0.0,0.0,0.0,0.0,0.0,0.0,0.0,0.0,0.0,0.0,0.0,0.0,0.0,0.0,0.0,0.0,0.0,0.0,0.0,0.0,0.0,0.0,0.0,0.0,0.0,0.0,0.0,0.0,0.0,0.0,0.0,0.0,0.0,0.0,0.0,0.0,0.0,0.0,0.0,0.0,0.0,0.0,0.0,0.0,0.0,0.0,0.0,0.0,0.0,0.0,0.0,0.0,0.0,0.0,0.0,0.0,0.0,0.0,0.0,0.0,0.0,0.0,0.0,0.0,0.0,0.0,0.0,0.0,0.0,0.0,0.0,0.0,0.0,0.0,0.0,0.0,0.0,0.0,0.0,0.0,0.0,0.0,0.0,0.0,0.0,0.0,0.0,0.0,0.0,0.0,0.0,0.0,0.0,0.0,0.0,0.0,0.0,0.0,0.0,0.0,0.0,0.0,0.0,0.0,0.0,0.0,0.0,0.0,0.0,0.0,0.0,0.0,0.0,0.0,0.0,0.0,0.0,0.0,0.0,0.0,0.0,0.0,0.0,0.0,0.0,0.0,0.0,0.0,0.0,0.0,0.0,0.0,0.0,0.0,0.0,0.0,0.0,0.0,0.0,0.0,0.0,0.0,0.0,0.0,0.0,0.0,0.0,0.0,0.0,0.0,0.0,0.0,0.0,0.0,0.0,0.0,0.0,0.0,0.0,0.0,0.0,0.0,0.0,0.0,0.0,0.0,0.0,0.0,0.0,0.0,0.0,0.0,0.0,0.0,0.0,0.0,0.0,0.0,0.0,0.0,0.0,0.0,0.0,0.0,0.0,0.0,0.0,0.0,0.0,0.0,0.0,0.0,0.0,0.0,0.0,0.0,0.0,0.0,0.0,0.0,0.0,0.0,0.0,0.0,0.0,0.0,0.0,0.0,0.0,0.0,0.0,0.0,0.0,0.0,0.0,0.0,0.0,0.0,0.0,0.0,0.0,0.0,0.0,0.0,0.0,0.0,0.0,0.0,0.0,0.0,0.0,0.0,0.0,0.0,0.0,0.0,0.0,0.0,0.0,0.0,0.0,0.0,0.0,0.0,0.0,0.0,0.0,0.0,0.0,0.0,0.0,-3.0423,-2.9394,0.0,0.0,0.0,0.0,0.0,0.0,0.0,0.0,0.0,0.0,0.0,0.0,0.0,0.0,0.0,0.0,0.0,0.0,0.0,0.0,0.0,0.0,0.0,0.0,0.0,0.0,0.0,0.0,0.0,0.0,0.0,0.0,0.0,0.0,0.0,0.0,0.0,0.0,0.0,0.0,0.0,0.0,0.0,0.0,0.0,0.0,0.0,0.0,0.0,0.0,0.0,0.0,0.0,0.0,0.0,0.0,0.0,0.0,0.0,0.0,0.0,0.0,0.0,0.0,0.0,0.0,0.0,0.0,0.0,0.0,0.0,0.0,0.0,0.0,0.0,0.0,0.0,0.0,0.0,0.0,0.0,0.0,0.0,0.0,0.0,0.0,0.0,0.0,0.0,0.0,0.0,0.0,0.0,0.0,0.0,0.0,0.0,0.0,0.0,0.0,0.0,0.0,0.0,0.0,0.0,0.0,0.0,0.0,0.0,0.0,0.0,0.0,0.0,0.0,-3.1534,-3.0732,0.0,0.0,0.0,0.0,0.0,0.0,0.0,0.0,0.0,0.0,0.0,0.0,0.0,0.0,0.0,0.0,0.0,0.0,0.0,0.0,0.0,0.0,0.0,0.0,0.0,0.0,0.0,0.0,0.0,0.0,0.0,0.0,0.0,0.0,0.0,0.0,0.0,0.0,0.0,0.0,0.0,0.0,0.0,0.0,0.0,0.0,0.0,0.0,0.0,0.0,0.0,0.0,0.0,0.0,0.0,0.0,0.0,0.0,0.0,0.0,0.0,0.0,0.0,0.0,0.0,0.0,0.0,0.0,0.0,0.0,0.0,0.0,0.0,0.0,0.0,0.0,0.0,0.0,0.0,0.0,0.0,0.0,0.0,0.0,0.0,0.0,0.0,0.0,0.0,0.0,0.0,0.0,0.0,0.0,0.0,0.0,0.0,0.0,0.0,0.0,0.0,0.0,0.0,0.0,0.0,0.0,0.0,0.0,-3.354,-3.359,-3.359,-3.359,-3.3359,-3.2851,-3.2578,-3.2044,-3.1327,-3.0151,0.0,0.0,0.0,0.0,0.0,0.0,0.0,0.0,0.0,0.0,0.0,0.0,0.0,0.0,0.0,0.0,0.0,0.0,0.0,0.0,0.0,0.0,0.0,0.0,0.0,0.0,0.0,0.0,0.0,0.0,0.0,0.0,0.0,0.0,0.0,0.0,0.0,0.0,-0.7457,-0.8257,-0.8684,-0.8573,-0.6591,0.0,0.0,0.0,0.0,0.0,0.0,0.0,0.0,0.0,0.0,0.0,0.0,0.0,0.0,0.0,0.0,0.0,0.0,0.0,0.0,0.0,0.0,0.0,0.0,0.0,0.0,0.0,0.0,0.0,0.0,0.0,0.0,0.0,0.0,0.0,0.0,0.0,0.0,0.0,0.0,0.0,0.0,0.0,-2.7122,-2.9643,0.0,0.0,0.0,0.0,0.0,0.0,0.0,0.0,0.0,0.0,0.0,0.0,0.0,-3.3305,-3.3406,-3.3456,-3.3482,-3.3482,-3.4157,-3.4454,-3.4454,-3.4454,-3.4409,-3.4235,-3.3065,0.0,-3.0659,-3.0423,0.0,0.0,0.0,0.0,0.0,0.0,0.0,0.0,0.0,0.0,0.0,0.0,0.0,0.0,0.0,0.0,0.0,0.0,0.0,0.0,0.0,0.0,0.0,0.0,0.0,0.0,0.0,0.0,0.0,0.0,0.0,0.0,0.0,0.0,0.0,0.0,-0.6751,-0.7769,-0.9093,-0.902,-0.9306,-1.0024,-0.8448,-0.7658,-0.7372,-0.7372,0.0,0.0,0.0,0.0,0.0,0.0,0.0,0.0,0.0,0.0,0.0,0.0,0.0,0.0,0.0,0.0,0.0,0.0,0.0,0.0,0.0,0.0,0.0,0.0,0.0,0.0,0.0,0.0,0.0,0.0,0.0,0.0,0.0,0.0,0.0,0.0,0.0,0.0,0.0,-2.6753,-2.8222,-3.0168,-3.0174,-3.0323,0.0,0.0,0.0,0.0,0.0,0.0,0.0,0.0,0.0,-3.3981,-3.4015,-3.4218,-3.4641,-3.4678,-3.4676,-3.4676,-3.5011,-3.5144,-3.5144,-3.4783,-3.4382,-3.3987,-3.3039,-3.1992,-3.1046,-3.0672,-3.0178,-2.9639,0.0,0.0,0.0,0.0,-2.9146,-2.925,0.0,0.0,0.0,0.0,0.0,0.0,0.0,0.0,0.0,0.0,0.0,0.0,0.0,0.0,0.0,0.4918,0.0,0.0,0.0,0.0,0.0,0.0,0.0,0.0,0.0,0.0,0.0,0.0,-0.6979,-0.8211,-0.995,-0.9719,-1.0132,-1.1064,-1.0392,-0.959,-0.8841,-0.8841,-0.8718,0.0,0.0,0.0,0.0,0.0,0.0,0.0,0.0,0.0,0.0,0.0,0.0,0.0,0.0,0.0,0.0,0.0,0.0,0.0,0.0,0.0,0.0,0.0,0.0,0.0,0.0,0.0,0.0,0.0,0.0,0.0,0.0,0.0,0.0,0.0,0.0,0.0,0.0,-2.8033,-2.8956,-3.0369,-3.0797,-3.1167,0.0,0.0,0.0,0.0,0.0,0.0,-3.3677,-3.3677,-3.4032,-3.4759,-3.4776,-3.5047,-3.556,-3.5622,-3.5622,-3.5622,-3.5622,-3.5515,-3.5316,-3.464,-3.3987,-3.3287,-3.2641,-3.2007,-3.1437,-3.0986,-3.0657,-3.0462,-2.9998,-2.9729,-2.9609,-2.9759,-2.9819,-2.9909,0.0,0.0,0.0,0.0,0.0,0.0,0.0,0.0,0.0,0.0,0.0,0.0,0.0,0.0,0.5808,0.4979,0.4918,0.4921,0.0,0.0,0.0,0.0,0.0,0.0,0.0,0.0,0.0,-0.5491,-0.7382,-0.8475,-0.872,-1.0799,-1.1799,-1.1826,-1.2032,-1.1016,-0.9088,-0.9088,-0.8883,-0.8664,0.0,0.0,0.0,0.0,0.0,0.0,0.0,0.0,0.0,0.0,0.0,0.0,0.0,0.0,0.0,0.0,0.0,0.0,0.0,0.0,0.0,0.0,0.0,0.0,0.0,0.0,0.0,0.0,0.0,0.0,0.0,0.0,0.0,0.0,0.0,0.0,0.0,0.0,0.0,-3.0993,-3.0658,0.0,0.0,0.0,0.0,-3.3288,-3.3389,-3.3711,-3.4404,-3.4438,-3.4776,-3.5537,-3.5554,-3.5588,-3.5622,-3.5622,-3.5622,-3.5622,-3.5622,-3.527,-3.4624,-3.3937,-3.3287,-3.2586,-3.1853,-3.1524,-3.1482,-3.1437,-3.1091,-3.0507,-3.0477,-3.0103,-2.9654,-3.0238,-3.0447,-3.0552,0.0,0.0,0.0,0.0,0.0,0.0,0.0,0.0,0.0,0.0,0.0,0.0,0.0,0.6125,0.627,0.6073,0.5517,0.5162,0.5133,0.0,0.0,0.0,0.0,0.0,0.0,0.0,-0.5777,-0.7055,-0.7775,-0.8859,-1.019,-1.0979,-1.1403,-1.1597,-1.1891,-1.1598,-1.0935,-1.1107,-1.1021,-1.0621,-0.9684,-0.9253,0.0,0.0,0.0,0.0,0.0,0.0,0.0,0.0,0.0,0.0,0.0,0.0,0.0,0.0,0.0,0.0,0.0,0.0,0.0,0.0,0.0,0.0,0.0,0.0,0.0,0.0,0.0,0.0,0.0,0.0,0.0,0.0,0.0,0.0,0.0,0.0,0.0,-3.1106,-3.1015,0.0,-3.1918,-3.2171,-3.2594,-3.3339,-3.3846,-3.4438,-3.5182,-3.5216,-3.5351,-3.5605,-3.5622,-3.5622,-3.5622,-3.5622,-3.5622,-3.5622,-3.5622,-3.5253,-3.4576,-3.3887,-3.3235,-3.2547,-3.1796,-3.1482,-3.1482,-3.1482,-3.139,-3.1165,-3.1165,-3.1031,-3.0866,-3.1091,-3.1165,-3.121,0.0,0.0,0.0,0.0,0.0,0.0,0.0,0.0,0.0,0.0,0.0,0.6565,0.6844,0.6881,0.6843,0.6706,0.5881,0.5318,0.5216,0.0,0.0,0.0,0.0,0.0,0.0,-0.5182,-0.5834,-0.712,-0.7702,-0.869,-0.998,-1.0679,-1.1096,-1.1289,-1.159,-1.1629,-1.1443,-1.155,-1.1576,-1.1414,-1.0448,-0.9777,-0.933,0.0,0.0,0.0,0.0,0.0,0.0,0.0,0.0,0.0,0.0,0.0,0.0,0.0,0.0,0.0,0.0,0.0,0.0,0.0,0.0,0.0,0.0,0.0,0.0,0.0,0.0,0.0,0.0,0.0,0.0,0.0,0.0,0.0,0.0,-2.9634,-3.0294,-3.0768,-3.1055,-3.1292,-3.1546,-3.1985,-3.2594,-3.3339,-3.3846,-3.4455,-3.5199,-3.5233,-3.5351,-3.5605,-3.5622,-3.5622,-3.5622,-3.5622,-3.5622,-3.5622,-3.5622,-3.5115,-3.4235,-3.3786,-3.3077,-3.2216,-3.1682,-3.1482,-3.1482,-3.1482,-3.1482,-3.1482,-3.1482,-3.1482,-3.1482,-3.1482,-3.1482,-3.1482,0.0,0.0,0.0,0.0,0.0,0.0,0.0,0.0,0.0,0.0,0.7343,0.7566,0.7727,0.7889,0.7632,0.6785,0.5947,0.5425,0.5422,0.537,0.0,0.0,0.0,0.0,-0.5091,-0.5291,-0.5428,-0.5428,-0.7116,-0.7962,-0.8032,-0.9974,-1.091,-1.0923,-1.1215,-1.0931,-1.0312,-1.0324,-1.0548,-1.0828,-1.1473,-1.0557,-0.8964,0.0,0.0,0.0,0.0,0.0,0.0,0.0,0.0,0.0,0.0,0.0,0.0,0.0,0.0,0.0,0.0,0.0,0.0,0.0,0.0,0.0,0.0,0.0,0.0,0.0,0.0,0.0,0.0,0.0,0.0,0.0,0.0,0.0,-2.911,-2.9668,-3.0142,-3.0142,-3.0768,-3.1461,-3.2212,-3.2297,-3.256,-3.3322,-3.3389,-3.3728,-3.4455,-3.4506,-3.4861,-3.5605,-3.5622,-3.5622,-3.5622,-3.5622,-3.5622,-3.5622,-3.5577,-3.4864,-3.3582,-3.3582,-3.2826,-3.1482,-3.1482,-3.1482,-3.1482,-3.1482,-3.1482,-3.1482,-3.1482,-3.1467,-3.1467,-3.1467,-3.1467,-3.1409,0.0,0.0,0.0,0.0,0.0,0.0,0.0,0.0,0.0,0.0,0.7854,0.8417,0.8788,0.8313,0.7897,0.7632,0.6272,0.5315,0.5203,0.0,0.0,0.0,0.0,0.0,-0.5245,-0.5355,-0.5693,-0.633,-0.685,-0.7372,-0.8027,-0.8544,-0.8837,-0.8848,-0.9092,-0.9094,-0.8975,-0.9317,-0.9504,-0.95,-0.9085,-0.8877,-0.8782,0.0,0.0,0.0,0.0,0.0,0.0,0.0,0.0,0.0,0.0,0.0,0.0,0.0,0.0,0.0,0.0,0.0,0.0,0.0,0.0,0.0,0.0,0.0,0.0,0.0,0.0,0.0,0.0,0.0,0.0,0.0,-2.9465,-3.004,-2.9837,-3.0429,-3.0903,-3.0903,-3.1072,-3.1275,-3.1461,-3.1495,-3.1799,-3.2544,-3.3102,-3.3728,-3.4455,-3.5013,-3.5402,-3.556,-3.5622,-3.5622,-3.5622,-3.5622,-3.5622,-3.5577,-3.5098,-3.4447,-3.3582,-3.3093,-3.2367,-3.1482,-3.1482,-3.1482,-3.1482,-3.1482,-3.1482,-3.1482,-3.1482,-3.1161,-3.0644,-3.0644,-3.0208,-2.9766,0.0,0.0,0.0,0.0,0.0,0.0,0.0,0.0,0.0,0.0,0.8762,0.9445,1.0273,0.9558,0.9035,0.9035,0.7099,0.5928,0.6077,0.0,0.0,0.0,0.0,-0.1554,-0.3074,-0.4631,-0.5641,-0.6148,-0.6133,-0.6584,-0.7437,-0.7832,-0.8027,-0.8032,-0.8159,-0.8071,-0.7773,-0.8189,-0.8166,-0.7742,-0.7343,-0.7647,-0.8338,-0.8024,-0.7925,-0.8027,-0.8925,-0.9157,-0.9247,-1.0606,0.0,0.0,0.0,0.0,0.0,0.0,0.0,0.0,0.0,0.0,0.0,0.0,0.0,0.0,0.0,0.0,0.0,0.0,0.0,0.0,0.0,0.0,0.0,0.0,-3.0074,-3.0565,-3.0565,-3.092,-3.119,-3.119,-3.119,-3.119,-3.119,-3.1461,-3.1833,-3.2297,-3.2983,-3.3728,-3.4455,-3.4912,-3.5301,-3.5605,-3.5622,-3.5622,-3.5622,-3.5622,-3.547,-3.5207,-3.4783,-3.4087,-3.3198,-3.2788,-3.2231,-3.1482,-3.1482,-3.1482,-3.1467,-3.1161,-3.1029,0.0,0.0,0.0,0.0,0.0,-2.9442,-2.9066,0.0,0.0,0.0,0.0,0.0,0.0,0.0,0.0,0.0,0.0,0.0,1.0427,1.1813,1.1183,1.0593,1.0559,0.8153,0.6867,0.0,0.0,0.0,0.5557,0.2365,0.0519,0.0267,-0.308,-0.4909,-0.5106,-0.5279,-0.5796,-0.6593,-0.7312,-0.7702,-0.7707,-0.7702,-0.7348,-0.672,-0.7065,-0.6607,-0.5657,-0.5886,-0.6641,-0.7693,-0.8328,-0.7959,-0.7278,-0.7897,-0.8174,-0.8433,-1.0233,0.0,0.0,0.0,0.0,0.0,0.0,0.0,0.0,0.0,0.0,0.0,0.0,0.0,0.0,0.0,0.0,0.0,0.0,0.0,0.0,0.0,0.0,0.0,0.0,-3.0717,-3.119,-3.119,-3.119,-3.119,-3.119,-3.119,-3.1224,-3.1309,-3.1901,-3.2307,-3.2432,-3.3102,-3.3812,-3.4455,-3.4573,0.0,0.0,0.0,-3.556,-3.547,-3.547,-3.5144,-3.4479,-3.4431,-3.3735,-3.2586,-3.2492,-3.212,-3.1482,-3.1482,-3.1482,-3.1409,-3.0644,-3.0208,-3.0011,-3.0011,-3.0011,-2.9889,-2.9066,-2.8748,-2.8748,0.0,0.0,0.0,0.0,0.0,0.0,0.0,0.0,0.0,1.0565,1.0672,1.1206,1.2615,1.1966,1.1348,1.1032,0.9308,0.8,0.0,0.0,0.7011,0.6554,0.5142,0.3633,0.2123,0.0067,-0.1737,-0.3213,-0.47,-0.5516,-0.5649,-0.5837,-0.5903,-0.5914,-0.5903,-0.5855,-0.5706,-0.5731,-0.4867,-0.3372,-0.3614,-0.4852,-0.6592,-0.671,-0.67,-0.6535,-0.6684,-0.6723,-0.6984,-0.865,-0.9608,-1.0272,-1.1228,0.0,0.0,0.0,0.0,0.0,0.0,0.0,0.0,0.0,0.0,0.0,0.0,0.0,0.0,0.0,0.0,0.0,0.0,0.0,0.0,-3.0091,-3.0717,-3.119,-3.119,-3.119,-3.119,-3.119,-3.119,-3.1427,-3.2019,-3.2246,-3.2544,-3.3136,-3.3863,-3.4336,-3.4489,-3.5064,-3.547,-3.5622,-3.5622,-3.5362,-3.4783,-3.4783,-3.4447,-3.3786,0.0,0.0,-3.2602,-3.1951,-3.164,-3.1482,-3.1482,-3.1482,-3.1409,-3.0644,-2.9442,-2.8182,-2.8182,-2.8182,-2.8117,-2.7297,-2.6973,-2.7095,0.0,0.0,0.0,0.0,0.0,0.0,0.0,0.0,0.0,0.0,1.0819,1.1511,1.2332,1.2364,1.2092,1.1579,1.045,0.0,0.0,0.8517,0.8589,0.8101,0.7459,0.6384,0.4894,0.2584,0.1063,0.0398,-0.1065,-0.2135,-0.2736,-0.334,-0.3274,-0.2669,-0.2669,-0.2669,-0.2674,-0.2684,-0.269,-0.2693,-0.2991,-0.3764,-0.4719,-0.4706,-0.4701,-0.4698,-0.4675,-0.5413,-0.6439,-0.7238,-0.8434,-0.973,-1.052,-1.1477,-1.2445,0.0,0.0,0.0,0.0,0.0,0.0,0.0,0.0,0.0,0.0,0.0,0.0,0.0,0.0,-2.7153,-2.8093,0.0,-2.9867,-3.0543,-3.0954,-3.119,-3.119,-3.119,-3.119,-3.119,-3.119,-3.1478,-3.2246,-3.2611,-3.3152,-3.3897,-3.4641,-3.5064,-3.5064,-3.5419,-3.547,-3.5098,-3.5098,-3.48,-3.4087,-3.4087,-3.3735,-3.3093,-3.2734,-3.2437,-3.2064,-3.1697,-3.1482,-3.1467,-3.1087,-3.0896,-3.0777,-2.9504,-2.8247,-2.7095,-2.7095,-2.7095,-2.704,-2.6658,-2.6533,-2.6483,0.0,0.0,0.0,0.0,0.0,0.0,0.0,0.0,0.0,0.0,0.0,1.1797,1.2257,1.2685,1.2659,0.0,0.0,0.0,0.0,1.0066,1.0431,1.0015,0.9606,0.8952,0.8115,0.5528,0.4284,0.4355,0.3443,0.2517,0.1521,-0.0066,-0.0332,0.053,0.0399,0.0599,0.1065,0.1023,0.0211,-0.1089,-0.1634,-0.191,-0.1883,-0.1874,-0.2184,-0.25,-0.2499,-0.3595,-0.5165,-0.5999,-0.7371,-0.8878,-0.9884,-1.0815,-1.175,-1.2329,-1.3209,0.0,0.0,0.0,0.0,0.0,0.0,0.0,0.0,-2.3242,-2.3787,-2.5601,-2.652,-2.7321,-2.8387,-2.9139,-2.9959,-3.101,-3.119,-3.119,-3.119,-3.119,-3.119,-3.119,-3.119,-3.1546,-3.2408,-3.3051,-3.3778,-3.4641,-3.5267,-3.5622,-3.5622,-3.547,-3.5161,-3.464,-3.4479,-3.4087,-3.3391,-3.3391,-3.3039,-3.2382,-3.2382,-3.2064,-3.1467,-3.1217,-3.1084,-3.1026,-3.0261,-2.9765,-2.9534,-2.8258,-2.7229,-2.6521,-2.6339,-2.6302,-2.637,-2.6483,-2.6458,-2.6226,0.0,0.0,0.0,0.0,0.0,0.0,0.0,0.0,0.0,0.0,0.0,0.0,0.0,0.0,0.0,0.0,0.0,0.0,1.1551,1.2252,1.2655,1.2573,1.1789,1.1472,1.1648,1.0246,0.8891,0.749,0.7357,0.7261,0.7055,0.4238,0.2715,0.2386,0.1861,0.2806,0.4776,0.4791,0.4807,0.474,0.3061,0.2399,0.2421,0.2418,0.1251,-0.0314,-0.0313,-0.047,-0.1251,-0.5007,-0.6475,-0.6977,-0.8798,-0.9928,-1.0985,-1.3065,-1.3632,-1.3873,-1.5838,-1.7924,-1.9713,-2.0289,-2.1343,-2.2709,0.0,-2.5145,-2.559,-2.7051,-2.8263,-2.9109,-2.9278,-3.0219,-3.105,-3.119,-3.119,-3.119,-3.119,-3.119,-3.119,-3.119,-3.119,-3.1749,-3.3136,-3.3355,-3.3981,-3.5385,-3.5571,-3.5622,-3.5622,-3.5052,-3.4688,-3.4576,-3.4037,-3.3391,-3.2749,-3.2695,-3.2327,-3.164,-3.164,-3.1582,-3.1452,-3.0221,-2.9624,-2.958,-2.8796,-2.8016,-2.7317,-2.7577,-2.7229,-2.6483,-2.5887,-2.5686,-2.5749,-2.6264,-2.6138,-2.5686,0.0,0.0,0.0,0.0,0.0,0.0,0.0,0.0,0.0,0.0,0.0,0.0,0.0,0.0,0.0,0.0,0.0,0.0,1.2569,1.409,1.476,1.4332,1.3493,1.3151,1.3313,1.1874,1.0802,1.0164,0.9655,0.9421,0.933,0.7486,0.681,0.7113,0.6278,0.6506,0.7553,0.7129,0.6891,0.6873,0.6204,0.6247,0.6689,0.6689,0.5937,0.4568,0.2369,0.0919,0.0,0.0,-0.4417,-0.6457,-0.7131,-0.8783,-1.0539,-1.1269,-1.2563,-1.4375,-1.7022,-1.8581,-1.9634,-2.05,-2.1576,-2.267,-2.3981,-2.4584,-2.5327,-2.668,-2.7715,-2.8591,-2.9271,-2.9805,-3.0393,-3.1095,-3.119,-3.119,-3.119,-3.119,-3.119,-3.119,-3.1562,-3.2239,-3.3305,-3.3795,-3.4472,-3.5537,-3.5622,-3.5622,-3.5622,-3.4941,-3.4431,-3.4037,-3.3391,-3.268,-3.1951,-3.1951,-3.1537,-3.0777,-3.0441,-3.0017,-2.9574,-2.8606,-2.7897,-2.7432,-2.7155,-2.6489,-2.5666,-2.5896,-2.5815,-2.5485,-2.5247,-2.5146,-2.5172,-2.5423,-2.536,-2.5096,0.0,0.0,0.0,0.0,0.0,0.0,0.0,0.0,0.0,0.0,0.0,0.0,0.0,0.0,0.0,0.0,0.0,0.0,0.0,1.5423,1.6388,1.615,1.5605,1.5434,1.5585,1.4436,1.3667,1.3288,1.2658,1.2116,1.1722,1.0671,1.0485,1.1008,0.9977,0.9539,0.9491,0.8698,0.8322,0.8304,0.8187,0.8617,0.9327,0.9185,0.8901,0.8088,0.4731,0.2695,0.0,0.0,-0.2001,-0.4809,-0.539,-0.7254,-0.9254,-0.9872,-1.1825,-1.4375,-1.688,-1.8286,-1.9261,-2.0387,-2.1619,-2.2698,-2.3463,-2.4065,-2.4845,-2.6236,-2.7071,-2.7898,-2.918,-2.954,-2.9995,-3.1015,-3.119,-3.119,-3.119,-3.119,-3.119,-3.119,-3.1833,-3.2577,-3.3339,-3.4066,-3.481,-3.5554,-3.5622,-3.5515,-3.5316,-3.4688,-3.4037,-3.3339,-3.268,-3.1936,-3.1161,-3.1026,-3.0499,-2.9679,-2.9083,-2.8547,-2.7936,-2.7074,-2.6182,-2.5301,-2.5471,-2.5189,-2.4607,-2.4757,-2.482,-2.4808,-2.4657,-2.4594,-2.4569,-2.4418,-2.4456,-2.4531,0.0,0.0,0.0,0.0,0.0,0.0,0.0,0.0,0.0,0.0,0.0,0.0,0.0,0.0,0.0,0.0,0.0,0.0,0.0,1.6155,1.7296,1.8454,1.8466,1.8746,1.9318,1.9306,1.8598,1.7201,1.7201,1.6433,1.5071,1.4167,1.3388,1.2658,1.1836,1.1012,1.0283,0.9491,0.9414,0.9679,0.8889,0.8897,0.9271,0.897,0.8802,0.85,0.6445,0.0,0.0,0.0,0.0507,-0.1085,-0.3797,-0.5218,-0.6503,-0.985,-1.1885,-1.33,-1.4665,-1.6535,-1.8401,-1.9633,-2.1522,-2.328,-2.4092,-2.4266,-2.4711,-2.6176,-2.696,-2.7807,-2.9148,-2.9892,-3.0477,-3.1112,-3.119,-3.119,-3.119,-3.119,-3.119,-3.119,-3.1833,-3.2577,-3.3339,-3.4066,-3.481,-3.5554,-3.5622,-3.5316,-3.4688,-3.3987,-3.3339,-3.2641,-3.191,-3.1146,-3.0329,-2.9753,-2.9068,-2.8241,-2.7662,-2.7357,-2.7284,-2.5913,-2.4489,-2.3213,-2.384,-2.4029,-2.4067,-2.4607,-2.482,-2.477,-2.423,-2.4017,-2.3954,-2.3389,-2.354,-2.4017,0.0,0.0,0.0,0.0,0.0,0.0,0.0,0.0,0.0,0.0,0.0,0.0,0.0,0.0,0.0,0.0,0.0,0.0,0.0,1.7812,1.9093,1.9504,1.9798,1.9989,2.0226,1.975,1.9267,1.8778,1.8778,1.8319,1.7443,1.6632,1.6154,1.592,1.4024,1.3588,1.397,1.2019,1.1581,1.2012,1.1128,1.0892,1.0973,1.0875,1.0618,1.0101,0.0,0.0,0.0,0.0,0.268,0.0563,-0.1052,-0.2988,-0.5342,-0.8755,-1.0611,-1.1995,-1.3936,-1.5963,-1.7986,-1.9871,-2.135,-2.2506,-2.3292,-2.3943,-2.4567,-2.5563,-2.6234,-2.7091,-2.8405,-2.9176,-2.9748,-3.0386,-3.0886,-3.119,-3.119,-3.119,-3.119,-3.119,-3.1833,-3.2577,-3.3339,-3.4066,-3.46,-3.4891,-3.4941,-3.464,-3.3987,-3.3287,-3.2841,-3.2602,-3.1455,-3.048,-2.9724,-2.903,-2.8076,-2.6781,-2.5643,-2.4927,-2.4476,-2.3996,-2.353,-2.3078,-2.3339,-2.3427,-2.3439,-2.3627,-2.3381,-2.2856,-2.2674,-2.2277,-2.1724,-2.1549,-2.1596,-2.1875,0.0,0.0,0.0,0.0,0.0,0.0,0.0,0.0,0.0,0.0,0.0,0.0,0.0,0.0,0.0,0.0,0.0,0.0,0.0,0.0,1.9627,2.0225,2.0479,2.0735,2.0978,2.0555,2.0187,1.9903,2.0175,2.0002,1.9397,1.9091,1.8746,1.8305,1.6944,1.6407,1.6277,1.4409,1.3786,1.3878,1.2535,1.2089,1.2116,1.1736,1.1323,0.0,0.0,0.0,0.0,0.0,0.4523,0.2664,0.1368,-0.1292,-0.4465,-0.7161,-0.9122,-1.0811,-1.2796,-1.5005,-1.7295,-1.9544,-2.0749,-2.1741,-2.2823,-2.3292,-2.3728,-2.4781,-2.5328,-2.5977,-2.7248,-2.8239,-2.8902,-2.8898,-2.9736,-3.0395,-3.0395,-3.0395,-3.0598,-3.114,-3.1613,-3.2188,-3.2933,-3.3677,-3.433,-3.4922,-3.4736,-3.4333,-3.3649,-3.2933,-3.2369,-3.1864,-3.0743,-2.9608,-2.8594,-2.7723,-2.6503,-2.5023,-2.4088,-2.3502,-2.3078,-2.3078,-2.3078,-2.3065,-2.2823,-2.2689,-2.2641,-2.231,-2.1928,-2.1428,-2.1428,-2.1101,-2.059,-2.059,-2.059,-2.0782,0.0,0.0,0.0,0.0,0.0,0.0,0.0,0.0,0.0,0.0,0.0,0.0,0.0,0.0,0.0,0.0,0.0,0.0,0.0,0.0,0.0,2.0568,2.0709,2.1041,2.1734,2.1734,2.141,2.0765,2.1441,2.1394,2.0813,2.1398,2.093,1.9749,2.0213,1.9227,1.7183,1.6447,1.578,1.5092,1.305,1.2401,1.2587,1.1494,0.0,0.0,0.0,0.0,0.0,0.7372,0.6195,0.5071,0.327,-0.0066,-0.3609,-0.5092,-0.7342,-0.9649,-1.13,-1.3776,-1.6372,-1.8557,-1.9792,-2.0899,-2.2555,-2.2433,-2.2347,-2.391,-2.423,-2.4563,-2.5621,-2.7166,-2.7916,-2.6841,-2.8044,-2.9093,-2.9093,-2.9093,-2.9617,-3.1021,-3.119,-3.1478,-3.2246,-3.2933,-3.3905,-3.5341,-3.4908,-3.4203,-3.3483,-3.2833,-3.1848,-3.0406,-2.968,-2.861,-2.7092,-2.5767,-2.445,-2.3078,-2.3078,-2.3078,-2.3078,-2.3078,-2.3017,-2.3005,-2.2187,-2.1815,-2.1753,-2.091,-2.059,-2.0526,-2.0526,-2.0526,-2.0462,-2.0462,-2.0462,-2.0462,0.0,0.0,0.0,0.0,0.0,0.0,0.0,0.0,0.0,0.0,0.0,0.0,0.0,0.0,0.0,0.0,0.0,0.0,0.0,0.0,0.0,0.0,0.0,0.0,0.0,0.0,0.0,0.0,0.0,2.1669,2.0713,2.0869,2.0515,1.9762,1.9346,1.8703,1.7912,1.6497,1.5656,1.5118,0.0,1.2806,1.3091,0.0,0.0,0.0,0.0,0.0,0.9977,0.828,0.673,0.5297,0.3576,0.1341,-0.0991,-0.2915,-0.5759,-0.8704,-1.0373,-1.2501,-1.4717,-1.662,-1.789,-1.9052,-2.0687,-2.1534,-2.2141,-2.2867,-2.2865,-2.2755,-2.2795,-2.4987,-2.6677,-2.638,-2.876,-3.0632,-3.0632,-3.0632,-3.0768,-3.1157,-3.119,-3.1478,-3.2246,-3.2077,-3.2287,-3.3217,-3.3632,-3.3085,-3.1396,-3.1122,-3.0362,-2.8953,-2.832,-2.7244,-2.574,-2.4305,-2.3444,-2.3078,-2.3078,-2.3078,-2.3078,-2.2506,-2.2199,-2.2125,-2.1302,-2.091,-2.091,-2.0719,-2.0204,-1.9628,-1.9628,-1.9243,-1.8654,-1.8654,-1.8654,-1.8654,0.0,0.0,0.0,0.0,0.0,0.0,0.0,0.0,0.0,0.0,0.0,0.0,0.0,0.0,0.0,0.0,0.0,0.0,0.0,0.0,0.0,0.0,0.0,0.0,0.0,0.0,0.0,0.0,0.0,0.0,0.0,2.1708,2.148,2.063,2.0456,1.9624,1.8258,1.7344,0.0,0.0,0.0,0.0,0.0,0.0,0.0,0.0,0.0,0.0,1.0503,0.8748,0.7705,0.6769,0.4956,0.3613,0.2097,-0.1386,-0.4724,-0.7625,-0.9474,-1.1449,-1.3476,-1.5337,-1.626,-1.7137,-1.8924,-1.9632,-2.0139,-2.0836,-2.1064,-2.1066,-2.0772,-2.351,-2.5595,-2.4879,-2.7849,-3.0226,-3.0226,-3.0226,-3.0463,-3.1106,-3.119,-3.136,-3.1765,-3.1808,-3.1702,-3.158,-3.1997,-3.1784,-3.0601,-2.9918,-2.9122,-2.802,-2.7032,-2.5799,-2.4279,-2.3504,-2.2944,-2.2567,-2.2567,-2.2372,-2.199,-2.1553,-2.1365,-2.1302,0.0,-2.0009,-2.0009,-1.9628,-1.9177,-1.8721,-1.8721,-1.8462,-1.8008,-1.8008,-1.8008,-1.8008,0.0,0.0,0.0,0.0,0.0,0.0,0.0,0.0,0.0,0.0,1.5352,0.0,0.0,0.0,0.0,0.0,0.0,0.0,0.0,0.0,0.0,0.0,0.0,0.0,0.0,0.0,0.0,0.0,0.0,0.0,0.0,0.0,0.0,0.0,0.0,0.0,0.0,0.0,0.0,0.0,0.0,0.0,0.0,0.0,0.0,0.0,0.0,1.1545,1.089,0.9024,0.8704,0.8669,0.666,0.5937,0.4901,-0.0075,-0.3682,-0.6424,-0.8401,-1.0461,-1.2437,-1.4063,-1.479,-1.5498,-1.7149,-1.7613,-1.7777,-1.8431,-1.9072,-1.9403,-1.8962,-2.2063,-2.4308,-2.3191,-2.6286,-2.8941,-2.9228,-2.9279,-2.9753,-3.1038,-3.119,-3.119,-3.119,-3.1725,-3.1532,-3.0364,-3.0302,-3.0344,-3.0335,-2.904,-2.788,-2.7111,-2.5683,-2.4352,-2.3138,-2.3078,-2.2702,-2.1877,-2.1877,-2.1428,-2.059,-2.0462,-2.0398,-2.0398,-1.9497,-1.911,-1.9044,-1.8337,-1.8008,-1.8008,-1.8008,-1.8008,-1.8008,-1.8008,-1.8008,-1.8008,0.0,0.0,0.0,0.0,0.0,0.0,0.0,0.0,0.0,0.0,1.4991,1.541,0.0,0.0,0.0,0.0,0.0,0.0,0.0,0.0,0.0,0.0,0.0,0.0,0.0,0.0,0.0,0.0,0.0,0.0,0.0,0.0,0.0,0.0,0.0,0.0,0.0,0.0,0.0,0.0,0.0,0.0,0.0,0.0,0.0,0.0,1.232,1.1855,1.1645,0.922,0.9161,0.9652,0.704,0.6239,0.56,0.2311,-0.1383,-0.4841,-0.6423,-0.8874,-1.1143,-1.1428,-1.3056,-1.4781,-1.5514,-1.6961,-1.7913,-1.7022,-1.7516,-1.773,-1.6261,-1.8766,-2.1552,-2.3144,-2.598,-2.867,-3.0548,-3.0801,-3.0903,-3.1157,-3.119,-3.119,-3.119,-3.0857,-3.0346,-2.9627,-2.9108,-2.8885,-2.8921,-2.8111,-2.6806,-2.4899,-2.3968,-2.3334,-2.3078,-2.3078,-2.2702,-2.1877,-2.1877,-2.1428,-2.059,-1.9814,-1.9562,-1.9497,-1.8586,0.0,-1.8202,-1.8076,-1.8008,-1.8008,-1.8008,-1.8008,-1.8008,-1.8008,-1.8008,-1.8008,0.0,0.0,0.0,0.0,0.0,0.0,0.0,1.2443,1.3114,1.3545,1.4273,1.4932,1.5352,1.541,1.5526,0.0,0.0,0.0,0.0,0.0,0.0,0.0,0.0,0.0,0.0,0.0,2.1813,2.1507,0.0,0.0,0.0,2.1528,2.1397,2.0758,0.0,0.0,0.0,0.0,0.0,0.0,0.0,0.0,0.0,0.0,0.0,0.0,0.0,1.2414,1.1376,1.0025,1.0275,1.0599,0.7343,0.6777,0.6659,0.3105,-0.0387,-0.3561,-0.5739,-0.7744,-0.9482,-1.0398,-1.1768,-1.3112,-1.3514,-1.5167,-1.6439,-1.5579,-1.622,-1.672,-1.6047,-1.8223,-2.0659,-2.2358,-2.5531,-2.8349,-2.9837,-3.0717,-3.119,-3.119,-3.119,-3.119,-3.119,-3.0935,-3.0393,-2.9451,-2.8794,-2.8137,-2.7556,-2.6452,-2.5192,-2.3721,-2.3305,-2.3078,-2.3078,-2.2689,-2.2063,-2.1239,-2.0782,-2.0074,-1.9243,-1.8787,-1.8586,-1.8586,-1.8202,-1.8008,-1.8008,-1.8008,-1.8008,-1.794,-1.7432,-1.7285,-1.7217,-1.6724,-1.6515,-1.6515,0.0,0.0,0.0,0.0,0.0,0.0,0.0,1.171,1.202,1.2634,1.3425,1.4213,1.4815,1.5167,1.5352,0.0,0.0,0.0,0.0,0.0,0.0,0.0,0.0,0.0,0.0,0.0,0.0,2.0776,2.1213,0.0,0.0,0.0,0.0,0.0,1.9813,1.8655,1.7302,0.0,0.0,0.0,0.0,1.4991,0.0,0.0,0.0,0.0,0.0,1.2749,1.1149,1.0791,1.1256,1.1352,0.7597,0.7378,0.7748,0.4081,0.1001,-0.2006,-0.536,-0.6824,-0.7744,-0.9124,-1.0426,-1.154,-1.1745,-1.355,-1.4956,-1.4433,-1.5351,-1.6243,-1.6303,-1.8059,-2.0013,-2.1624,-2.4585,-2.7284,-2.9006,-3.0236,-3.1107,-3.1452,-3.1504,-3.1428,-3.1351,-3.1218,-3.0666,-2.9496,-2.8356,-2.7214,-2.6108,-2.4951,-2.3943,-2.3138,-2.3078,-2.3078,-2.3078,-2.2445,-2.1616,-2.059,-1.9879,-1.9044,-1.8008,-1.8008,-1.8008,-1.8008,-1.7794,-1.7716,-1.7647,-1.751,-1.7373,-1.7295,-1.6576,-1.628,-1.621,-1.5438,-1.5234,-1.5234,0.0,0.0,0.0,0.0,0.0,0.0,0.0,1.1344,1.1834,1.1896,1.2634,1.313,1.3183,1.451,1.5108,0.0,0.0,0.0,0.0,0.0,0.0,0.0,0.0,0.0,0.0,0.0,0.0,2.0642,2.0695,0.0,0.0,0.0,0.0,0.0,0.0,1.7935,1.6539,1.5736,0.0,0.0,0.0,0.0,0.0,0.0,0.0,0.0,0.0,1.2536,1.1604,1.0907,1.1362,1.1598,0.8112,0.7961,0.8617,0.6552,0.3759,0.0302,-0.4921,-0.6239,-0.6222,-0.6349,-0.8723,-1.0951,-1.0948,-1.2972,-1.4637,-1.3918,-1.5293,-1.6432,-1.5802,-1.6702,-1.8576,-2.1667,-2.2733,-2.476,-2.9351,-3.012,-3.075,-3.2225,-3.2384,-3.2213,-3.1789,-3.1257,-3.0492,-2.948,-2.7092,-2.5315,-2.4567,-2.435,-2.3943,-2.3138,-2.3078,-2.3078,-2.3078,-2.3017,-2.2187,-2.059,-2.0526,-1.9628,-1.8008,-1.8008,-1.8008,-1.794,-1.707,-1.6706,0.0,-1.5799,-1.5446,-1.5446,-1.5376,-1.5305,-1.5305,-1.5234,-1.5234,-1.5234,0.0,0.0,0.0,0.0,0.0,0.0,1.0624,1.0863,1.1108,1.1108,1.1779,1.2266,1.2266,1.3304,1.3855,1.3494,0.0,0.0,0.0,0.0,0.0,0.0,0.0,0.0,0.0,0.0,1.7778,1.8047,1.8047,0.0,0.0,0.0,0.0,0.0,0.0,1.6007,1.5022,1.4218,0.0,0.0,0.0,0.0,0.0,0.0,0.0,0.0,0.0,0.0,1.0415,1.115,1.0724,0.9735,0.8708,0.8333,0.7948,0.6441,0.3986,0.0904,-0.3263,-0.4528,-0.5078,-0.6321,-0.8805,-1.0953,-1.1038,-1.3439,-1.5447,-1.4991,-1.5806,-1.6652,-1.6831,-1.7221,-1.8234,-2.0356,-2.1965,-2.3779,-2.6222,-2.8594,-3.0335,-3.0985,-3.1668,-3.2004,-3.1825,-3.1038,-2.9702,-2.7682,-2.6236,-2.4894,-2.3649,-2.3603,-2.3233,-2.2384,-2.2384,-2.2125,-2.1604,-2.1089,-2.0451,-1.9824,-1.9299,-1.8654,-1.8008,-1.7432,-1.7139,-1.7139,-1.6149,-1.579,0.0,-1.5376,-1.5234,-1.5163,-1.4522,-1.4314,-1.4243,-1.3665,-1.3448,-1.3448,0.0,0.0,0.0,0.0,0.0,1.0238,1.0238,1.0428,1.0624,1.0624,1.1108,1.1469,1.1469,1.1965,1.2274,1.2274,1.252,0.0,0.0,0.0,0.0,0.0,0.0,0.0,0.0,0.0,1.5514,1.5723,1.5723,1.5837,0.0,0.0,1.5417,1.4869,0.0,0.0,0.0,0.0,0.0,0.0,0.0,0.0,0.0,0.0,0.0,0.0,0.0,0.0,0.0,0.0,0.0,0.8594,0.8842,0.7768,0.6458,0.644,0.3925,0.0447,-0.2892,-0.4082,-0.4953,-0.7037,-0.9023,-1.0699,-1.1469,-1.3762,-1.5706,-1.5663,-1.6268,-1.6965,-1.7589,-1.7847,-1.8402,0.0,-2.147,-2.3159,-2.4509,-2.7324,-2.9431,-2.9899,-3.0606,-3.1164,-3.1357,-3.0555,-2.9039,-2.6562,-2.5781,-2.4838,-2.3531,-2.2992,-2.2567,-2.2261,-2.2002,-2.1616,-2.0974,-2.0139,-1.9562,-1.9299,-1.8654,-1.8269,-1.8008,-1.7285,-1.6853,-1.6567,-1.5587,-1.5021,0.0,-1.445,-1.4378,-1.4235,-1.3528,-1.3317,-1.3237,-1.2519,-1.2305,-1.2305,0.0,0.0,0.0,0.0,0.0,0.0,0.9338,1.0047,1.0624,1.0624,1.0624,1.0624,1.0624,1.0624,1.0624,1.0624,1.1344,0.0,0.0,0.0,0.0,0.0,0.0,0.0,0.0,0.0,1.3399,1.4105,1.4105,1.4489,1.5195,1.4489,1.4105,1.4105,0.0,0.0,0.0,0.0,0.0,0.0,0.0,0.0,0.0,0.0,0.0,0.0,0.0,0.0,0.0,0.0,0.0,0.0,0.0,0.5951,0.0,0.7095,0.3977,-0.1088,-0.4458,-0.5557,-0.6147,-0.8167,-0.9122,-1.0038,-1.1956,-1.3658,-1.4959,-1.5503,-1.6548,-1.746,-1.7658,-1.8197,-1.8985,-2.0197,-2.1138,-2.2689,-2.5499,-2.6672,-2.7819,-2.9419,-2.9434,-2.96,-3.0327,-2.9777,-2.8591,-2.6654,-2.5837,-2.5063,-2.435,-2.2786,-2.2261,-2.3078,-2.2322,-2.1877,-2.1877,-2.1037,-2.0139,-1.9299,-1.9299,-1.8844,-1.8008,-1.8008,-1.7501,-1.6567,-1.5587,-1.4665,0.0,-1.2732,-1.2305,-1.2305,-1.2298,-1.2298,-1.2298,-1.2305,-1.2305,-1.2305,0.0,0.0,0.0,0.0,0.0,0.0,0.0,0.8672,0.9064,0.9658,0.9722,0.9913,1.0561,1.0047,0.9722,0.9722,1.0478,0.0,0.0,0.0,0.0,0.0,0.0,0.0,0.0,0.0,1.0497,1.0719,1.0719,1.0891,1.111,1.0829,1.0483,0.9939,1.026,1.0084,0.0,0.0,0.0,0.0,0.0,0.0,0.0,0.0,0.0,0.0,0.0,0.0,0.0,0.0,0.0,0.0,0.0,0.0,0.0,-0.0787,-0.1395,-0.2778,-0.7254,-0.9113,-0.9838,-1.016,-1.1459,-1.2898,-1.3868,-1.5258,-1.6459,-1.7047,-1.7397,-1.7805,-1.8471,-1.8824,-1.9198,-1.9752,-2.1115,-2.2422,-2.3314,-2.6442,-2.8818,-2.9341,-3.0622,-3.1133,-3.0245,-2.9697,-2.837,-2.5932,-2.5508,-2.4838,-2.3543,-2.2992,-2.2567,-2.2322,-2.091,-2.0139,-2.0139,-1.9243,-1.8654,-1.8395,-1.7745,-1.7326,-1.7001,-1.5658,-1.4879,-1.4593,-1.3665,-1.3018,-1.2732,-1.2445,-1.2305,-1.2305,-1.2305,-1.2305,-1.2305,-1.2305,-1.2305,-1.2305,0.0,0.0,0.0,0.0,0.0,0.0,0.0,0.7767,0.8221,0.8748,0.9075,0.9402,0.9582,0.9396,0.9139,0.8812,0.9326,0.0,0.0,0.0,0.0,0.0,0.0,0.0,0.0,0.8511,0.8756,0.8756,0.8756,0.8756,0.8756,0.8756,0.8452,0.8027,0.8511,0.8452,0.0,0.0,0.0,0.0,0.0,0.0,0.6286,0.0,0.0,0.0,0.0,0.0,0.0,0.0,0.0,0.0,0.0,0.0,0.0,0.0,-0.7345,-0.6941,-0.9996,-1.1275,-1.1792,-1.1998,-1.322,-1.4629,-1.5413,-1.6398,-1.7282,-1.7732,-1.7951,-1.8274,-1.8963,-1.9265,-1.9489,-1.9726,-2.1261,-2.2652,-2.3339,-2.6507,-2.8946,-2.94,-3.0793,-3.1078,-2.9509,-2.9367,-2.8307,-2.5605,-2.5398,-2.4724,-2.3185,-2.2823,-2.2445,-2.1939,-2.0526,-1.9628,-1.9299,-1.8462,-1.7794,-1.7432,-1.6862,-1.6437,-1.6,-1.4807,-1.4027,-1.3673,-1.3091,-1.2666,0.0,-1.2305,-1.2305,-1.2305,-1.2305,-1.2305,-1.2224,-1.1842,-1.1694,-1.1694,0.0,0.0,0.0,0.0,0.0,0.0,0.0,0.7307,0.7832,0.7892,0.8613,0.8812,0.8091,0.8683,0.8812,0.7962,0.0,0.0,0.0,0.0,0.0,0.0,0.0,0.0,0.0,0.7832,0.7832,0.7832,0.7832,0.7832,0.7832,0.7832,0.7832,0.7832,0.7627,0.7488,0.0,0.0,0.0,0.0,0.0,0.0,0.0,0.0,0.0,0.0,0.0,0.0,0.0,0.0,0.0,0.0,0.0,0.0,0.0,0.0,0.0,0.0,0.0,-1.247,-1.252,-1.3724,-1.4513,-1.5372,-1.6555,-1.7163,0.0,-1.7755,-1.8298,-1.8846,-1.9179,-1.9569,-1.9869,-1.9974,-2.1473,-2.3255,-2.5043,-2.6995,-2.8632,-2.9729,-3.0296,-2.9995,-2.8535,-2.8951,-2.823,-2.5576,-2.5342,-2.459,-2.3072,-2.2213,-2.1782,-2.1756,-2.0917,-2.0106,-1.9299,-1.8462,-1.7579,-1.6706,-1.6585,-1.6026,-1.5234,-1.5092,-1.445,0.0,-1.36,-1.3091,0.0,-1.2305,-1.2224,-1.2224,-1.2224,-1.215,-1.1996,-1.1013,-1.0714,-1.0565,0.0,0.0,0.0,0.0,0.0,0.0,0.0,0.0,0.0,0.0,0.7177,0.7502,0.7962,0.7567,0.7242,0.0,0.0,0.0,0.0,0.0,0.0,0.0,0.0,0.0,0.0,0.6028,0.6036,0.6043,0.6043,0.6043,0.6043,0.6043,0.6043,0.5907,0.4061,0.2716,0.0,0.0,0.0,0.0,0.0,0.0,0.0,0.0,0.0,0.0,-0.5011,-0.5818,0.0,0.0,0.0,0.0,0.0,0.0,0.0,0.0,-1.4695,-1.5103,-1.521,0.0,-1.4783,-1.5646,-1.6187,-1.6799,0.0,-1.8126,-1.8168,-1.8735,-1.897,-1.9206,-1.9582,-1.9857,-2.0028,-2.0003,-2.1625,-2.3469,-2.5082,-2.8836,-3.1454,-3.1525,-3.2004,-3.1487,-2.941,-2.8837,-2.7765,-2.5574,-2.4525,-2.338,-2.1927,-2.1156,-2.0617,-2.033,-1.9528,-1.9125,-1.9299,-1.8462,-1.7872,-1.7647,-1.6228,-1.5376,-1.5163,-1.3665,-1.2872,-1.2666,-1.2666,-1.2519,-1.2305,-1.2305,-1.1848,-1.1162,-1.1162,-1.0714,-0.9976,-0.9744,-0.9669,-0.9593,0.0,0.0,0.0,0.0,0.0,0.0,0.0,0.0,0.0,0.0,0.0,0.6724,0.6802,0.6876,0.0,0.0,0.0,0.0,0.0,0.0,0.0,0.0,0.0,0.0,0.5386,0.3749,0.2939,0.2941,0.2939,0.2937,0.2937,0.2937,0.2937,0.2871,0.153,0.0597,0.0,0.0,0.0,0.0,-0.1392,0.0,0.0,0.0,0.0,0.0,-0.7213,-0.7761,0.0,-0.8624,-0.936,-1.0008,0.0,0.0,0.0,0.0,-1.5734,-1.6349,-1.6368,-1.6401,-1.6477,-1.6669,-1.7267,-1.7896,-1.8369,-1.856,-1.8753,-1.912,-1.9397,-1.9644,-1.9896,-2.0716,-2.1097,-2.0306,-2.2699,-2.5213,-2.6814,-2.957,-3.1432,-3.1543,-3.1379,-3.0755,-2.9525,-2.85,-2.7047,-2.5046,-2.4109,-2.2976,-2.1605,-2.0779,-2.0135,-1.9504,-1.8728,-1.8435,-1.871,-1.8269,-1.7579,-1.6724,-1.5658,-1.4736,-1.3803,-1.2806,-1.2305,-1.2305,-1.1842,-1.162,-1.1545,-1.1099,-1.0571,-1.0115,-1.0115,-0.9744,-0.9221,-0.877,-0.8613,-0.8542,0.0,0.0,0.0,0.0,0.0,0.0,0.0,0.0,0.0,0.0,0.0,0.0,0.0,0.0,0.0,0.0,0.0,0.0,0.0,0.0,0.0,0.0,0.0,0.457,0.457,0.16,-0.0266,-0.0799,-0.0798,-0.0797,-0.0797,-0.0797,-0.0929,-0.1061,-0.1258,-0.1323,0.0,0.0,0.0,0.0,-0.3774,0.0,0.0,0.0,0.0,0.0,0.0,0.0,0.0,-0.9503,-1.0329,-1.1327,-1.2642,0.0,0.0,0.0,0.0,0.0,-1.6725,-1.73,-1.7797,-1.7238,-1.7876,-1.858,-1.8415,-1.8823,-1.9258,-1.9298,-1.9691,-2.0125,-2.0458,-2.1564,-2.2074,-2.0963,-2.4053,-2.7237,-2.9058,-2.9997,-3.0553,-3.0746,-3.0018,-2.9412,-2.9129,-2.7822,-2.6259,-2.4442,-2.3588,-2.259,-2.1162,-2.0354,-1.9634,-1.8822,-1.8112,-1.7673,-1.7591,-1.7658,-1.6849,-1.5151,-1.4996,-1.4091,-1.2519,-1.2372,-1.2305,-1.2224,0.0,0.0,-1.0708,-0.9895,-0.9372,-0.9069,-0.9069,-0.8998,-0.877,-0.7859,-0.7553,-0.748,0.0,0.0,0.0,0.0,0.0,0.0,0.0,0.0,0.0,0.0,0.0,0.0,0.0,0.0,0.0,0.0,0.0,0.0,0.0,0.0,0.0,0.0,0.08,0.0799,0.0799,0.0266,-0.1533,-0.457,-0.457,-0.457,-0.457,-0.457,-0.5096,-0.6079,-0.6994,-0.7172,-0.6746,-0.6746,-0.688,-0.7089,-0.7223,0.0,0.0,0.0,0.0,0.0,0.0,0.0,0.0,-1.2104,-1.2976,-1.3698,-1.4127,0.0,0.0,0.0,0.0,0.0,-1.6646,-1.7976,-1.918,-1.7897,-1.7988,-1.848,-1.8941,-1.9203,-1.9481,-1.9812,-2.0002,-2.0565,-2.21,-2.1549,-2.122,-2.2332,-2.4853,-2.7535,-2.995,-3.1399,-3.1722,-3.0388,-3.0331,-2.9836,-2.8433,-2.6703,-2.5311,-2.4433,-2.2448,-2.0642,-1.9179,-1.8409,-1.7889,-1.7503,-1.6759,-1.6253,-1.59,-1.6099,-1.5724,-1.477,-1.4174,-1.3738,-1.3455,-1.2659,-1.2305,-1.2298,0.0,-1.162,-1.0783,-1.064,-0.9588,-0.8012,-0.8012,-0.748,-0.6718,-0.6567,-0.6567,-0.649,0.0,0.0,0.0,0.0,0.0,0.0,0.0,0.0,0.0,0.0,0.0,0.0,0.0,0.0,0.0,0.0,0.0,0.0,0.0,0.0,0.0,-0.1403,-0.2403,-0.2939,-0.2941,-0.2939,-0.401,-0.632,-0.6168,-0.6354,-0.6815,-0.6815,-0.7077,-0.7601,-0.8127,-0.8242,-0.8027,-0.8027,-0.8027,-0.8027,0.0,0.0,0.0,0.0,0.0,0.0,0.0,0.0,0.0,0.0,-1.3611,-1.4156,-1.5106,0.0,0.0,0.0,0.0,0.0,-1.6501,-1.7562,-1.8971,-1.9391,-2.0466,-2.1516,-2.1783,-2.2196,-2.2284,-2.1551,-2.152,-2.1874,-2.2746,-2.3029,-2.3979,-2.6534,-2.6834,-2.7447,-2.9458,-2.9836,-2.9726,-2.9235,-2.8839,-2.8336,-2.7635,-2.5855,-2.4376,-2.3422,-2.1417,-1.9736,-1.8768,-1.7633,-1.6973,-1.6806,-1.6117,-1.5432,-1.4807,-1.4623,-1.4363,-1.3947,-1.362,-1.3287,-1.2952,-1.2519,-1.2305,-1.2305,0.0,-1.1242,-1.0714,-0.9658,-0.8609,-0.7783,-0.7176,-0.6718,-0.6338,-0.6268,-0.6271,-0.6112,0.0,0.0,0.0,0.0,0.0,0.0,0.0,0.0,0.0,0.0,0.0,0.0,0.0,0.0,0.0,0.0,0.0,0.0,0.0,0.0,-0.4308,-0.3349,-0.4631,-0.5512,-0.5715,-0.5704,-0.623,-0.7292,-0.7125,-0.7372,-0.8027,-0.8221,-0.8291,-0.8291,-0.8544,-0.8608,-0.8608,-0.879,-0.8918,-0.8982,0.0,0.0,0.0,0.0,0.0,0.0,0.0,0.0,0.0,0.0,0.0,0.0,0.0,0.0,0.0,-1.6756,-1.7042,-1.7403,-1.6927,-1.7719,-1.9049,-2.0715,-2.2118,-2.3314,-2.4075,-2.4417,-2.4309,-2.3429,-2.3381,-2.3508,-2.3533,-2.4572,-2.6268,-2.8811,-2.8024,-2.7632,-2.911,-2.8612,-2.8226,-2.8606,-2.7757,-2.713,-2.7105,-2.5232,-2.3553,-2.2582,-2.0637,-1.9153,-1.8501,-1.7202,-1.6312,-1.5958,-1.5391,-1.4628,-1.3657,-1.3202,-1.3024,-1.3028,-1.2902,-1.2615,-1.2204,-1.2204,-1.2091,-1.1922,-1.1162,-1.0559,-0.9959,-0.8461,-0.7629,-0.7403,-0.6567,-0.6264,-0.6268,-0.6278,-0.6285,-0.6051,0.0,0.0,0.0,0.0,0.0,0.0,0.0,0.0,0.0,0.0,0.0,0.0,0.0,0.0,0.0,0.0,0.0,0.0,0.0,0.0,-0.3618,-0.5106,-0.5309,-0.5763,-0.6593,-0.6593,-0.7051,-0.7967,-0.7897,-0.7962,-0.8027,-0.8812,-0.9204,-0.9268,-1.004,-1.0428,-1.0491,-1.1212,-1.1516,-1.1578,-1.2389,0.0,0.0,0.0,0.0,0.0,0.0,0.0,0.0,0.0,0.0,0.0,0.0,0.0,-1.7163,-1.7584,-1.7612,-1.7666,-1.8416,-1.9458,-2.0512,-2.1334,-2.0823,-2.0923,-2.4044,-2.3824,-2.3361,-2.4803,-2.5219,-2.5284,-2.516,-2.5324,-2.5549,-2.573,-2.702,-2.8462,-2.9754,-2.9709,-2.9491,-2.936,-2.8445,-2.7642,-2.7157,-2.4852,-2.3124,-2.2523,-2.0191,-1.8436,-1.7743,-1.6922,-1.5843,-1.4382,-1.4323,-1.3537,-1.2012,-1.1919,-1.2044,-1.2268,-1.1783,-1.168,-1.1904,-1.1904,-1.1525,-1.0932,-1.0858,-0.9734,-0.8008,-0.7859,-0.7253,-0.6412,-0.6338,-0.6268,-0.6278,-0.6291,-0.6308,-0.6247,0.0,0.0,0.0,0.0,0.0,0.0,0.0,0.0,0.0,0.0,0.0,0.0,0.0,0.0,0.0,0.0,0.0,0.0,0.0,0.0,-0.4697,-0.5379,-0.5892,-0.6597,-0.7502,-0.6981,-0.7111,-0.8027,-0.9064,-0.9646,-0.9646,-1.0458,-1.0836,-1.0899,-1.171,-1.2097,-1.2097,-1.2389,-1.2573,-1.2634,-1.3382,-1.3665,0.0,0.0,0.0,0.0,0.0,0.0,0.0,0.0,-1.5919,-1.5765,-1.582,-1.6497,-1.7319,-1.7697,-1.8121,-1.8532,-1.8751,-2.0471,-2.2127,-2.1717,-2.1819,-2.2814,-2.5801,-2.625,-2.5906,-2.5454,-2.6335,-2.6988,-2.6359,-2.8457,-2.9892,-2.8699,-3.003,-3.1167,-3.1072,-3.0741,-3.0281,-2.9664,-2.8573,-2.7578,-2.6696,-2.4608,-2.2747,-2.1403,-1.9288,-1.7677,-1.6978,-1.5718,-1.4796,-1.4213,-1.3726,-1.3183,-1.2573,-1.2081,-1.1832,-1.1959,-1.1397,-1.1309,-1.159,-1.1026,-1.0676,-1.0548,-0.9963,-0.9383,-0.8689,-0.8084,-0.7557,-0.7176,-0.6567,-0.6264,-0.619,-0.5321,-0.4701,-0.4157,0.0,0.0,0.0,0.0,0.0,0.0,0.0,0.0,0.0,0.0,0.0,0.0,0.0,0.0,0.0,0.0,0.0,0.0,0.0,-0.5641,-0.583,-0.583,-0.6662,-0.7372,-0.7962,-0.7697,-0.7957,-0.8801,-1.0281,-1.0989,-1.0982,-1.1779,-1.2205,-1.2205,-1.2757,-1.3009,-1.3009,-1.3243,-1.3364,-1.3425,-1.4218,-1.4662,0.0,0.0,0.0,0.0,0.0,0.0,0.0,0.0,-1.6338,-1.6183,-1.612,-1.6786,-1.7678,-1.8368,-1.9246,-2.013,-2.0458,-2.1926,-2.3332,-2.3362,-2.3649,-2.4712,-2.7727,-2.8,-2.7639,-2.7801,-2.8418,-2.8747,-2.8164,-3.0445,-3.1984,-3.0706,-3.1974,-3.2879,-3.2131,-3.1432,-3.0715,-2.9926,-2.8694,-2.7442,-2.627,-2.4406,-2.257,-2.0744,-1.8725,-1.718,-1.6167,-1.4904,-1.3965,-1.3476,-1.2931,-1.2389,-1.1826,-1.1267,-1.0892,-1.0627,-1.0212,-1.0334,-1.0808,-0.9977,-0.948,-0.9421,-0.8849,-0.8453,-0.8223,-0.7609,-0.7326,-0.7253,-0.657,-0.6268,-0.6187,-0.5249,-0.4545,-0.3682,0.0,0.0,0.0,0.0,0.0,0.0,0.0,0.0,0.0,0.0,0.0,0.0,0.0,0.0,0.0,0.0,0.0,0.0,-0.5449,-0.6214,-0.6724,-0.6724,-0.7577,-0.8032,-0.8027,-0.8877,-0.9786,-1.0624,-1.1413,-1.1834,-1.1834,-1.2634,-1.3009,-1.3009,-1.3009,-1.3009,-1.307,-1.3846,-1.4204,-1.4273,-1.5108,-1.5864,-1.6482,0.0,0.0,0.0,0.0,0.0,0.0,0.0,-1.7229,-1.7409,-1.73,-1.7666,-1.8391,-1.9778,-2.1093,-2.2426,-2.3955,-2.3909,-2.406,-2.6551,-2.617,-2.6075,-2.9605,-2.8501,-2.7949,-3.221,-3.173,-3.0587,-3.0786,-3.079,-3.0747,-3.0723,-3.2136,-3.3099,-3.2764,-3.1749,-3.079,-3.0189,-2.8801,-2.7339,-2.5922,-2.4271,-2.257,-2.0744,-1.8725,-1.6935,-1.5418,-1.4591,-1.3476,-1.1826,-1.1764,-1.0961,-0.9338,-0.9274,-0.8877,-0.8027,-0.7962,-0.8603,-0.965,-0.8762,-0.7995,-0.7287,-0.7406,-0.6904,-0.604,-0.6196,-0.6338,-0.6264,-0.6274,-0.6278,-0.6281,-0.6315,-0.6329,-0.5689,0.0,0.0,0.0,0.0,0.0,0.0,0.0,0.0,0.0,0.0,0.0,0.0,0.0,0.0,0.0,0.0,0.0,0.0,-0.7743,-0.801,-0.8142,-0.8142,-0.9043,-0.9635,-1.0015,-1.1234,-1.1772,-1.1469,-1.171,-1.2081,-1.2634,-1.3485,-1.3846,-1.3855,-1.4451,-1.4688,-1.4688,-1.4932,-1.505,-1.5108,-1.5864,-1.6652,-1.7302,0.0,0.0,0.0,0.0,0.0,0.0,0.0,0.0,0.0,-1.73,-1.7666,-1.8391,-1.9778,-2.0728,-2.1531,-2.2449,-2.4668,-2.6507,-2.571,-2.7365,-2.9558,-3.0989,-3.0312,-3.0111,-3.2714,-3.238,-3.1645,-3.1702,-3.3192,-3.4,-3.2674,-3.3852,-3.4695,-3.3925,-3.3181,-3.2204,-3.0884,-2.9562,-2.7888,-2.5725,-2.4162,-2.2392,-2.0116,-1.8496,-1.718,-1.6224,-1.4364,-1.3122,-1.2634,-1.0954,-0.9773,-0.9274,-0.8683,-0.8285,-0.8027,-0.7372,-0.7601,-0.8456,-0.7593,-0.7109,-0.6952,-0.639,-0.6122,-0.604,-0.6196,-0.6338,-0.6264,-0.6274,-0.6278,-0.6281,-0.6298,-0.6315,-0.5686,0.0,0.0,0.0,0.0,0.0,0.0,0.0,0.0,0.0,0.0,0.0,0.0,0.0,0.0,0.0,0.0,0.0,0.0,0.0,0.0,-0.9319,-0.9319,-1.0504,-1.1506,-1.2226,-1.2877,-1.3153,-1.3021,-1.2813,-1.2992,-1.3485,-1.4332,-1.4688,-1.4688,-1.5507,-1.57,-1.5468,-1.6026,-1.6083,-1.5921,-1.6641,-1.7357,-1.807,0.0,0.0,0.0,0.0,0.0,0.0,0.0,0.0,0.0,-1.758,-1.7827,-1.8514,-2.0716,-2.1607,-2.2361,-2.4662,-2.6694,-2.8236,-2.8633,-3.016,-3.1838,-3.2996,-3.2882,-3.2907,-3.4116,-3.3966,-3.3615,-3.3644,-3.4915,-3.5584,-3.4466,-3.5071,-3.55,-3.4894,-3.3995,-3.2806,-3.1238,-2.9707,-2.7779,-2.5167,-2.3749,-2.1939,-1.9443,-1.824,-1.7013,-1.5671,-1.3957,-1.2818,-1.2512,-1.0465,-0.9139,-0.8812,-0.7897,-0.7307,-0.699,-0.6465,-0.6465,-0.6924,-0.64,-0.6195,-0.63,-0.5834,-0.5755,-0.6037,-0.6135,-0.6213,-0.6271,-0.6281,-0.5805,-0.5168,-0.598,-0.5268,-0.3212,0.0,0.0,0.0,0.0,0.0,0.0,0.0,0.0,0.0,0.0,0.0,0.0,0.0,0.0,0.0,0.0,0.0,0.0,0.0,0.0,-1.0311,-1.0451,-1.2208,-1.3541,-1.4461,-1.4098,-1.4264,-1.4994,-1.4463,-1.4273,-1.4332,-1.505,-1.541,-1.541,-1.6093,-1.6036,-1.5584,-1.6912,-1.7146,-1.6652,-1.7302,-1.8058,-1.8715,-1.8715,0.0,0.0,0.0,0.0,0.0,0.0,0.0,0.0,-1.7923,-1.8066,-1.8758,-2.1972,-2.3045,-2.4195,-2.8658,-2.9147,-2.9359,-3.3454,-3.3616,-3.3294,-3.5182,-3.5666,-3.5763,-3.5956,-3.5947,-3.5938,-3.5996,-3.5948,-3.5909,-3.5918,-3.5783,-3.5675,-3.5621,-3.4412,-3.2972,-3.1446,-2.9569,-2.7318,-2.4514,-2.3155,-2.1362,-1.8794,-1.7904,-1.6543,-1.4433,-1.3485,-1.2634,-1.1834,-1.0085,-0.8812,-0.8027,-0.7046,-0.6203,-0.5428,-0.5428,-0.5428,-0.5432,-0.5428,-0.5428,-0.5439,-0.5525,-0.5752,-0.5939,-0.604,-0.5987,-0.6041,-0.6213,-0.4859,-0.2968,-0.456,-0.282,0.0858,0.0,0.0,0.0,0.0,0.0,0.0,0.0,0.0,0.0,0.0,0.0,0.0,0.0,0.0,0.0,0.0,0.0,0.0,0.0,0.0,-1.2177,-1.2885,-1.4437,-1.537,-1.557,-1.5873,-1.5961,-1.5811,-1.4713,-1.451,-1.5177,-1.5294,-1.541,-1.541,-1.5584,-1.5864,-1.6265,-1.6595,-1.6978,-1.7357,-1.7523,-1.8058,-1.8715,-1.8715,-1.915,0.0,0.0,0.0,0.0,0.0,0.0,0.0,-1.76,-1.7747,-1.8472,-2.0319,-2.1954,-2.3685,-2.5985,-2.8215,-3.0296,-3.2252,-3.3838,-3.5057,-3.556,-3.5763,-3.5874,-3.5909,-3.5948,-3.5976,-3.5996,-3.5996,-3.5976,-3.5976,-3.583,-3.5696,-3.5675,-3.4951,-3.3932,-3.2598,-3.0553,-2.8065,-2.5111,-2.2878,-2.0796,-1.8826,-1.7457,-1.6224,-1.5139,-1.376,-1.2634,-1.1834,-0.9488,-0.8156,-0.8027,-0.647,-0.5561,0.0,-0.5376,-0.5379,-0.5386,-0.5369,-0.5432,-0.5382,-0.5408,-0.5503,-0.5599,-0.6027,-0.5299,-0.3988,-0.5671,-0.3999,-0.0312,0.2507,0.3136,0.2815,0.0,0.0,0.0,0.0,0.0,0.0,0.0,0.0,0.0,0.0,0.0,0.0,0.0,0.0,0.0,0.0,0.0,0.0,0.0,0.0,0.0,-1.5084,-1.5817,-1.6483,-1.6889,-1.6985,-1.6826,-1.6387,-1.5505,-1.5359,-1.5921,-1.5584,-1.5584,-1.5921,-1.6312,-1.6472,-1.6539,-1.7633,-1.8124,-1.8167,-1.8501,-1.8874,-1.9202,-1.9202,-1.9475,-1.9798,-1.9798,0.0,0.0,0.0,0.0,0.0,0.0,0.0,-1.8581,-2.0941,-2.1897,-2.2916,-2.6524,-2.8352,-2.9917,-3.2699,-3.4394,-3.5418,-3.564,-3.5761,-3.5838,-3.5935,-3.5974,-3.5996,-3.5996,-3.5996,-3.5975,-3.5874,-3.5777,-3.564,-3.543,-3.5005,-3.4011,-3.2107,-3.0256,-2.7858,-2.4589,-2.2296,-2.0213,-1.8317,-1.6768,-1.5573,-1.4808,-1.3278,-1.2012,-1.119,-0.9105,-0.7832,-0.7372,-0.6086,-0.5372,-0.5379,-0.4495,-0.4092,-0.4164,-0.4973,-0.49,-0.4095,-0.4092,-0.4072,-0.4227,-0.5414,-0.5412,-0.4316,-0.1409,0.1096,0.329,0.5509,0.5584,0.4779,0.0,0.0,0.0,0.0,0.0,0.0,0.0,0.0,0.0,0.0,0.0,0.0,0.0,0.0,0.0,0.0,0.0,0.0,0.0,0.0,0.0,0.0,-1.6733,-1.7235,-1.8008,-1.7666,-1.7246,-1.6665,-1.6357,-1.6327,-1.6492,-1.5748,-1.5806,-1.6549,-1.7146,-1.7191,-1.6978,-1.8821,-1.9307,-1.8927,-1.9527,-1.9798,-1.9798,-1.9798,-1.9798,-1.9798,-1.9798,-1.9522,-1.9083,-1.853,0.0,0.0,0.0,0.0,-1.8793,-2.1688,-2.1979,-2.246,-2.7495,-2.8747,-2.9642,-3.3677,-3.4906,-3.5234,-3.5599,-3.5696,-3.5747,-3.5908,-3.5976,-3.5996,-3.5996,-3.5996,-3.5932,-3.5752,-3.5717,-3.5562,-3.5174,-3.4813,-3.3669,-3.1173,-2.9541,-2.7232,-2.3833,-2.1507,-1.9428,-1.7544,-1.583,-1.4495,-1.358,-1.2304,-1.1128,-1.011,-0.8603,-0.7517,-0.6793,-0.5833,-0.5382,-0.5386,-0.2609,-0.147,-0.1804,-0.3351,-0.3692,-0.3151,-0.2479,-0.2211,-0.2324,-0.3058,-0.3684,-0.3458,0.3139,0.5999,0.6318,0.6298,0.6285,0.6278,0.0,0.0,0.0,0.0,0.0,0.0,0.0,0.0,0.0,0.0,0.0,0.0,0.0,0.0,0.0,0.0,0.0,0.0,0.0,0.0,0.0,-1.6558,-1.7364,-1.7872,-1.8008,-1.7959,-1.7539,-1.6665,-1.667,-1.6577,-1.6492,-1.5748,-1.5806,-1.6492,-1.6595,-1.7302,-1.8447,-1.8715,-1.915,-1.9643,-1.9747,-1.9798,-1.9798,-1.9798,-1.9798,-1.9798,-1.9798,-1.9761,-1.9623,-1.9095,-1.8869,0.0,0.0,0.0,-1.8946,-1.9678,-2.1323,-2.3323,-2.5257,-2.8326,-3.1542,-3.4062,-3.4954,-3.5264,-3.5562,-3.5663,-3.571,-3.5735,-3.5876,-3.5996,-3.5996,-3.5996,-3.5974,-3.5884,-3.5791,-3.5568,-3.5232,-3.4567,-3.3305,-3.1145,-2.9242,-2.6898,-2.3809,-2.0489,-1.7991,-1.668,-1.4554,-1.2602,-1.1107,-1.0795,-0.9983,-0.8404,-0.7606,-0.717,-0.7034,-0.5922,-0.5399,-0.5339,0.1205,0.3493,0.1939,0.1737,-0.0802,-0.4861,-0.1749,-0.0347,-0.0073,0.3354,0.4672,0.4565,0.3839,0.4698,0.6285,0.6281,0.6274,0.6264,0.0,0.0,0.0,0.0,0.0,0.0,0.0,0.0,0.0,0.0,0.0,0.0,0.0,0.0,0.0,0.0,0.0,0.0,0.0,0.0,0.0,-1.8849,-1.8307,-1.8462,-1.9431,-1.8977,-1.8658,-1.8489,-1.8163,-1.7878,-1.7606,-1.6928,-1.68,-1.7146,-1.7523,-1.8112,-1.8715,-1.915,-1.9475,-1.9798,-1.9798,-1.9999,-2.025,-1.9924,-1.9999,-2.0238,-1.9911,-1.9798,-1.9723,-1.9196,-1.8983,-1.898,-1.8858,0.0,0.0,0.0,-2.1189,-2.2639,-2.5618,-2.837,-3.098,-3.3457,-3.4301,-3.4641,-3.5062,-3.5411,-3.5618,-3.5502,-3.5677,-3.5838,-3.5838,-3.5896,-3.591,-3.5768,-3.5593,-3.5248,-3.4621,-3.3456,-3.1956,-3.0023,-2.8024,-2.5726,-2.2963,-1.9992,-1.7663,-1.6311,-1.3338,-1.1301,-1.0551,-0.9603,-0.8603,-0.754,-0.7231,-0.6296,-0.4683,-0.3143,-0.1872,-0.0802,0.3422,0.4989,0.4231,0.4231,0.2342,-0.0803,0.0804,0.1592,0.189,0.3717,0.5196,0.6227,0.5254,0.5485,0.6278,0.6271,0.6268,0.6338,0.0,0.0,0.0,0.0,0.0,0.0,0.0,0.0,0.0,0.0,0.0,0.0,0.0,0.0,0.0,0.0,0.0,0.0,0.0,0.0,0.0,-2.059,-1.9365,-1.9299,-2.059,-1.9944,-1.9651,-1.9722,-1.9291,-1.8798,-1.825,-1.8022,-1.7907,-1.7895,-1.8447,-1.8821,-1.9044,-1.9579,-1.9798,-1.9811,-1.9962,-2.0275,-2.0693,-2.0338,-2.0501,-2.0803,-2.0225,-2.0024,-1.9936,-1.9409,-1.9221,-1.9269,-1.9575,-1.9527,0.0,0.0,0.0,-2.2181,-2.5716,-2.7542,-2.9193,-3.2128,-3.3105,-3.356,-3.4396,-3.5005,-3.5342,-3.5188,-3.5356,-3.5543,-3.5543,-3.571,-3.5786,-3.5631,-3.5325,-3.4846,-3.4098,-3.2419,-3.0497,-2.8542,-2.6582,-2.4298,-2.1421,-1.8781,-1.6656,-1.5102,-1.1874,-0.9798,-0.9533,-0.8409,-0.7405,-0.6709,-0.6651,-0.5156,-0.2072,0.0267,0.2072,0.3416,0.4773,0.5389,0.5386,0.5386,0.4634,0.3413,0.3418,0.3531,0.3783,0.3851,0.48,0.6291,0.6278,0.6274,0.6274,0.6264,0.6338,0.6338,0.0,0.0,0.0,0.0,0.0,0.0,0.0,0.0,0.0,0.0,0.0,0.0,0.0,0.0,-1.6922,-1.7872,0.0,0.0,0.0,0.0,0.0,-2.059,-2.0526,0.0,-2.059,-2.059,-2.0057,-1.9145,-1.9123,-1.8619,-1.7667,-1.8352,-1.8661,-1.8661,-1.8661,-1.9097,-1.9747,-1.9798,-1.9798,-1.9849,-2.0401,-2.0693,-2.0769,-2.1217,-2.1418,-2.138,-2.0869,-2.0668,-2.0539,-1.9962,-1.9761,-1.9673,-1.9195,-1.9824,-2.0709,0.0,0.0,0.0,-2.4262,-2.5034,-2.6307,-2.9927,-3.1192,-3.1977,-3.3659,-3.4398,-3.4735,-3.4735,-3.4943,-3.5136,-3.5136,-3.5461,-3.5702,-3.5611,-3.4993,-3.4412,-3.405,-3.1866,-2.9386,-2.6927,-2.5043,-2.2576,-1.8858,-1.6169,-1.3983,-1.2315,-0.9814,-0.7917,-0.692,-0.7082,-0.6643,-0.5512,-0.5466,-0.3763,-0.02,0.3351,0.5183,0.5243,0.5379,0.5372,0.5428,0.5428,0.5362,0.5229,0.5249,0.5428,0.5702,0.5827,0.6003,0.6278,0.6268,0.6264,0.6338,0.6338,0.6338,0.6338,0.0,0.0,0.0,0.0,0.0,0.0,0.0,0.0,0.0,0.0,0.0,0.0,0.0,-1.7111,-1.7329,-1.7823,-1.9084,0.0,0.0,0.0,0.0,-2.1656,-2.068,-2.0768,-2.2175,-2.1678,-2.1325,-2.116,-2.0822,-2.0278,-1.9564,-1.9478,-1.9423,-1.9423,-1.9423,-1.9527,-1.9798,-1.9798,-1.9798,-1.9849,-2.0439,-2.0932,-2.1129,-2.0602,-2.1079,-2.1845,-2.0577,-2.0351,-2.0693,-2.0426,-2.0112,-1.9812,-2.0077,-2.0145,-2.0178,-2.0405,-2.0805,-2.1612,-2.3588,-2.4238,-2.5173,-2.8461,-2.9904,-3.081,-3.2032,-3.3109,-3.3857,-3.3987,-3.3966,-3.4183,-3.4961,-3.5393,-3.5621,-3.5546,-3.4805,-3.4069,-3.3611,-3.0253,-2.7412,-2.6241,-2.2405,-1.9148,-1.7244,-1.4359,-1.2171,-1.1005,-0.8685,-0.7324,-0.7135,-0.6431,-0.5852,-0.5399,-0.5406,-0.2549,0.3418,0.477,0.5379,0.5369,0.5369,0.5432,0.5428,0.5428,0.5428,0.5432,0.5474,0.5633,0.5827,0.5918,0.6153,0.6268,0.6264,0.6338,0.6338,0.6338,0.674,0.7293,0.0,0.0,0.0,0.0,0.0,0.0,0.0,0.0,0.0,0.0,0.0,0.0,0.0,0.0,-1.8004,-1.8555,-1.9574,-2.0342,-2.064,-2.0653,-2.1052,-2.202,-2.0937,-2.1045,-2.2514,-2.2028,-2.1758,-2.1757,-2.1393,-2.0928,-2.0363,-1.9987,-1.9798,-1.9798,-1.9798,-1.9798,-1.9798,-1.9798,-1.9798,-1.9874,-2.0639,-2.1054,-2.1179,-2.079,-2.1117,-2.1631,-2.0702,-2.0489,-2.0743,-2.0932,-2.069,-2.0444,-2.0656,-2.0641,-2.0508,-2.1038,-2.112,-2.1325,-2.2655,-2.2964,-2.3539,-2.6083,-2.7526,-2.8659,-2.9968,-3.1373,-3.2426,-3.2601,-3.2904,-3.3285,-3.3682,-3.4339,-3.4894,-3.5089,-3.3949,-3.2745,-3.1959,-2.7976,-2.4738,-2.3535,-1.9397,-1.6133,-1.466,-1.2253,-1.0438,-0.9585,-0.7686,0.0,-0.6717,-0.5855,-0.4276,-0.1878,-0.1808,0.0534,0.5322,0.5379,0.5369,0.5428,0.5428,0.5428,0.5428,0.5428,0.5456,0.5447,0.5596,0.5715,0.5813,0.5966,0.6122,0.6338,0.6338,0.649,0.6799,0.6813,0.7447,0.8291,0.0,0.0,0.0,0.0,0.0,0.0,0.0,0.0,0.0,0.0,0.0,0.0,0.0,0.0,0.0,-2.0053,-2.0179,-2.0547,-2.1375,-2.1443,-2.1443,-2.1468,0.0,0.0,0.0,0.0,-2.1217,-2.0718,-2.0718,-2.0376,-1.9798,-1.9798,-1.9798,-1.9798,-1.9798,-1.9798,-1.9798,-1.9798,-1.9798,-1.9899,-2.1029,-2.1167,-2.0857,-2.1882,-2.1644,-2.0803,-2.1305,-2.1142,-2.0752,-2.133,-2.1455,-2.1305,-2.0832,-2.1116,-2.182,-2.2479,-2.251,-2.2154,0.0,0.0,0.0,-2.2854,-2.4078,-2.5443,-2.7528,-2.9323,-3.056,-3.0611,-3.1758,-3.2416,-3.1272,-3.221,-3.3368,-3.4092,-3.2303,-3.0413,-2.9135,-2.5199,-2.1464,-1.8722,-1.6291,-1.3734,-1.0929,-0.9745,-0.8791,-0.8,-0.6719,-0.5778,-0.5437,-0.5208,-0.1864,0.5209,0.5456,0.5446,0.5379,0.5435,0.5428,0.5428,0.5428,0.5428,0.5428,0.5432,0.545,0.5599,0.5745,0.5806,0.5892,0.5973,0.6201,0.6338,0.6416,0.6945,0.7863,0.7842,0.8458,0.9327,0.0,0.0,0.0,0.0,0.0,0.0,0.0,0.0,0.0,0.0,0.0,0.0,0.0,0.0,-1.8744,-1.9112,-1.9599,-1.9986,-2.0263,-2.0263,-2.0464,-2.0878,-2.0891,-2.1079,-2.1481,0.0,0.0,0.0,0.0,0.0,0.0,0.0,0.0,-1.9798,-1.9798,-1.9798,-1.9798,-1.9798,-1.9798,-1.9899,-2.1029,-2.1393,-2.1292,-2.1606,-2.202,-2.2372,-2.1719,-2.1142,-2.0869,-2.1757,-2.0765,-1.9257,-1.9969,-2.0584,-2.1151,-2.1799,-2.1929,-2.1768,-2.1391,0.0,0.0,0.0,0.0,0.0,-2.5929,-2.7611,-2.8966,-2.886,-2.9246,-2.9733,-3.0217,-2.9777,-2.945,-2.9858,-2.969,-2.9039,-2.7751,-2.4133,-2.086,-1.867,-1.5112,-1.2038,-0.9809,-0.8053,-0.7007,0.0,-0.4955,-0.4512,-0.5973,-0.0642,0.332,0.5336,0.6187,0.6242,0.5379,0.6017,0.6009,0.5428,0.5428,0.5428,0.5432,0.5477,0.5549,0.5603,0.5857,0.6327,0.707,0.725,0.7355,0.748,0.8183,0.8651,0.887,0.8908,0.9535,1.0357,0.0,0.0,0.0,0.0,0.0,0.0,-1.794,-1.8337,0.0,0.0,0.0,0.0,0.0,0.0,0.0,-1.915,-1.9527,-1.9798,-1.9798,-1.9798,-1.9949,-2.0288,-2.03,-2.0464,-2.0778,0.0,0.0,0.0,0.0,0.0,0.0,0.0,0.0,0.0,-1.9798,-1.9798,-1.9798,-1.9798,-1.9798,-1.9899,-2.1029,-2.1355,-2.1192,-2.1656,-2.1945,-2.2083,-2.1895,-2.1481,-2.1179,-2.2284,-2.1281,-1.9793,-2.1019,-2.0946,-2.0683,-2.2089,-2.1758,-2.1098,-2.1693,-2.1749,-2.1786,-2.239,0.0,0.0,-2.4425,-2.5675,-2.6782,-2.6946,-2.7426,-2.7871,-2.8058,-2.7503,-2.6811,-2.6153,-2.5909,-2.5506,-2.4699,-2.1163,-1.775,-1.5443,-1.2278,-0.967,-0.8125,-0.6945,-0.6285,-0.6298,-0.5123,-0.3442,-0.1134,0.3197,0.5849,0.6229,0.6747,0.683,0.6482,0.6597,0.6461,0.5943,0.5557,0.5659,0.6123,0.6158,0.6545,0.7103,0.7244,0.7681,0.8309,0.8803,0.8775,0.8466,0.9094,0.9549,0.9922,0.9911,1.0587,1.145,0.0,0.0,-1.8008,-1.8008,-1.8008,-1.8008,-1.8144,-1.8787,-1.9365,0.0,0.0,0.0,0.0,0.0,0.0,0.0,-1.9991,-1.9991,-1.9991,-1.9952,-1.9901,-1.9901,-1.985,-1.9798,-1.9798,-1.9798,0.0,0.0,0.0,0.0,0.0,0.0,0.0,0.0,0.0,-1.9798,-1.9798,-1.9798,-1.9836,-1.9974,-2.0928,-2.1079,-2.092,-2.1845,-2.1681,-2.1066,-2.2046,-2.2008,-2.1619,-2.2472,-2.2222,-2.1747,-2.2715,-2.1698,-2.0601,-2.2716,-2.1845,-2.0552,-2.2138,-2.172,-2.0966,-2.1558,-2.1664,0.0,-2.2861,-2.3577,-2.4197,-2.471,-2.5739,-2.6163,-2.5105,-2.5082,-2.4648,-2.2936,-2.1668,-2.0871,-2.0845,-1.751,-1.4033,-1.1077,-0.9185,-0.7629,-0.643,-0.6119,-0.6051,-0.625,-0.5445,-0.1628,0.5868,0.6232,0.6564,0.7358,0.7322,0.7495,0.8103,0.7438,0.6977,0.6779,0.6066,0.6217,0.6979,0.7203,0.7939,0.8917,0.9088,0.9252,0.9504,1.0402,1.0304,0.9448,0.9599,1.0196,1.0944,1.0958,1.1546,1.2305,0.0,0.0,-1.8008,-1.8008,-1.8008,-1.8269,-1.8911,-1.9177,0.0,0.0,0.0,0.0,0.0,0.0,0.0,0.0,-2.1051,-2.1315,-2.1315,-2.0868,-2.0597,-2.0597,-2.0105,-1.9798,-1.9798,-1.9798,-1.9798,0.0,0.0,0.0,0.0,0.0,0.0,0.0,0.0,-1.9798,-1.9798,-1.9798,-2.0075,-2.0476,-2.0225,-2.0614,-2.1355,-2.1568,-2.2071,-2.2686,-2.2899,-2.2334,-2.138,-2.069,-2.1184,-2.1962,-2.0993,-2.1236,-2.1864,-2.1512,-2.1705,-2.2058,-2.1919,-2.1715,-2.1517,-2.1657,-2.1398,0.0,-2.0645,-2.1173,-2.1645,-2.1216,-2.1704,-2.2092,-2.1834,-2.1338,-2.0862,-2.0467,-1.9206,-1.8301,-1.8516,-1.7203,-1.4852,-1.1156,-1.0353,-0.9105,-0.6581,-0.4771,-0.4467,-0.6169,-0.0,0.4511,0.5989,0.7064,0.753,0.7315,0.8703,0.9231,0.8626,0.9182,0.87,0.7172,0.7864,0.7403,0.6115,0.7865,0.8413,0.7859,0.8846,0.9739,1.0534,1.0686,1.0715,1.0565,1.1397,1.1848,1.2003,1.2022,1.2164,1.2305,-1.8008,-1.8008,-1.8008,-1.8008,-1.8327,-1.8787,-1.9243,-2.0009,0.0,0.0,0.0,0.0,0.0,0.0,0.0,0.0,0.0,0.0,0.0,-2.1113,-2.0795,-2.0795,-2.0156,-1.9798,-1.9798,-1.9798,-1.9798,0.0,0.0,0.0,0.0,0.0,0.0,0.0,0.0,-1.9962,-2.0213,-1.9924,-1.9962,-2.0263,-2.0526,-2.1142,-2.1933,-2.2209,-2.2648,-2.3078,-2.3078,-2.2774,-2.2221,-2.1656,-2.1652,-2.1838,-2.1707,-2.1409,-2.1164,-2.1577,-2.1268,-2.0885,-2.121,-2.1094,-2.0852,-2.0906,-2.0664,0.0,0.0,-1.998,-2.003,-1.994,-2.0191,-2.0396,-2.0383,-1.9438,-1.8715,-1.8715,-1.7397,-1.6151,-1.5533,-1.4848,-1.3295,-1.0375,-0.9557,-0.8447,-0.6514,-0.438,-0.2266,-0.0157,0.3925,0.6268,0.6166,0.7287,0.7934,0.8068,0.9499,1.0225,1.0089,1.0095,0.9608,0.8689,0.8759,0.8604,0.8217,0.9371,0.9852,0.9939,1.0513,1.1049,1.1546,1.1546,1.1515,1.162,1.2077,1.2305,1.2305,1.2305,1.2305,1.2305,-1.8008,-1.8008,-1.8008,-1.8008,-1.8721,-1.9365,-1.9497,-2.091,0.0,0.0,0.0,0.0,0.0,-2.27,-2.2669,-2.2154,0.0,0.0,-2.2422,-2.1565,-2.1228,-2.1486,-2.0425,-1.9899,-2.0125,-1.9911,-1.9798,-1.9798,0.0,0.0,0.0,0.0,0.0,0.0,-2.0125,-2.0162,-2.0476,-2.0125,-2.0024,-2.0213,-2.1117,-2.1631,-2.1882,-2.2322,-2.2623,-2.2849,-2.3002,-2.3078,-2.31,-2.2993,-2.2302,-2.1686,-2.23,-2.1459,-2.0429,-2.1251,-2.0475,-1.9528,-2.0329,-2.0117,-1.9734,-1.9997,-1.9754,-1.9462,0.0,0.0,0.0,-1.9081,-1.9171,-1.9171,-1.9171,-1.812,-1.7221,-1.7221,-1.5966,-1.4568,-1.328,-1.2498,-1.1331,-0.9254,-0.8294,-0.7387,-0.6367,-0.4015,-0.0232,0.5274,0.6093,0.6307,0.6274,0.7411,0.8307,0.8866,1.0109,1.1035,1.1597,1.0886,1.0459,1.0249,0.9738,0.9779,1.0356,1.0737,1.1326,1.2,1.2251,1.2305,1.2305,1.2305,1.2305,1.2305,1.2305,1.2305,1.2305,1.2305,1.2305,1.2305,-1.8008,-1.8008,-1.8008,-1.8008,-1.8721,-1.9562,-2.0333,-2.1302,0.0,0.0,0.0,0.0,-2.2977,-2.3528,-2.3914,-2.3848,-2.4388,-2.479,-2.4858,-2.3228,-2.2764,-2.3969,-2.129,-2.0275,-2.128,-2.0313,-1.9798,-1.9798,0.0,0.0,0.0,0.0,0.0,0.0,-2.0376,-2.0326,-1.9924,-2.0376,-2.0853,-2.1305,-2.1443,-2.0928,-2.01,-2.0162,-2.0803,-2.1807,-2.2786,-2.3078,-2.3047,-2.2536,-2.2281,-2.1904,-2.0053,-2.0657,-2.1445,-1.8698,-1.9128,-2.0322,-1.9505,-1.8844,-1.8665,-1.9727,-1.8852,-1.7829,-1.8295,0.0,-1.6779,-1.6861,0.0,-1.6886,-1.6886,0.0,0.0,-1.5853,-1.4664,-1.3734,-1.3586,-1.2449,-1.0766,-0.8438,-0.7952,-0.737,-0.6379,-0.2717,0.0672,0.3272,0.5208,0.6314,0.6328,0.8084,0.9135,0.9261,1.1125,1.2084,1.2204,1.2131,1.1598,1.0701,1.1525,1.1045,0.9528,1.1286,1.1714,1.1029,1.1877,1.2305,1.2305,1.2305,1.2305,1.2305,1.2305,1.2305,1.2305,1.2305,1.2305,1.2305,-1.7959,-1.8008,-1.8008,-1.8008,-1.911,-2.0204,-2.0526,-2.1741,-2.2702,0.0,0.0,-2.3245,-2.3767,-2.4439,-2.4811,-2.4741,-2.5356,-2.542,-2.4699,-2.3945,-2.3352,-2.2815,-2.1628,-2.081,-2.0514,-2.0049,-1.9798,-1.9798,-1.9497,0.0,0.0,0.0,0.0,0.0,-2.0049,-2.0388,-2.079,-2.1041,-2.0891,-2.0539,-2.0878,-2.0338,-1.9535,-2.1129,-2.2033,-2.2498,-2.2915,-2.3078,-2.3062,0.0,-2.2317,0.0,-2.1454,-2.1363,-2.1109,-2.0016,-1.968,-1.9534,-1.8754,-1.8605,-1.8541,-1.8106,-1.8126,-1.8141,-1.7388,-1.6861,-1.6522,-1.6522,0.0,0.0,0.0,0.0,0.0,0.0,-1.3932,-1.2824,-1.2087,-1.1236,-1.0362,-0.9348,-0.8482,0.0,-0.4656,-0.2835,-0.0458,0.2884,0.3603,0.4589,0.6177,0.7629,0.8694,0.9296,1.072,1.1694,1.2298,1.2305,1.2077,1.1694,1.2077,1.2116,1.1877,1.2695,1.3163,1.3325,1.3142,1.3138,1.3058,1.2546,1.2305,1.2305,1.2305,1.2305,1.2305,1.2305,1.2305,1.2305,-1.7598,-1.8044,-1.8327,-1.8327,-1.9824,-2.1037,-2.1227,-2.231,-2.3078,-2.3078,-2.3215,-2.3546,-2.4131,-2.497,-2.5437,-2.5293,-2.5966,-2.5917,-2.4975,-2.4693,-2.4107,-2.3036,-2.2366,-2.159,-2.0715,-2.0112,-1.9736,-1.9585,-1.9058,0.0,0.0,0.0,0.0,0.0,-1.9522,-2.0125,-2.1029,-2.1192,-2.0966,-2.0526,-2.0941,-2.0727,-2.0285,-2.2033,-2.2874,-2.3078,-2.3078,-2.3078,-2.3088,-2.2951,-2.2343,0.0,-2.2244,-2.1785,-2.1034,-2.0965,-2.0377,-1.9478,-1.8412,-1.8423,-1.8468,-1.7099,-1.7551,-1.8066,-1.6999,-1.6635,-1.6522,-1.6522,-1.6522,0.0,0.0,0.0,-1.4698,0.0,0.0,-1.2411,-1.1314,-1.0621,-0.9991,-0.9411,-0.7963,0.0,0.0,-0.3366,-0.143,0.2674,0.2443,0.3301,0.6177,0.7253,0.8237,0.9296,1.0265,1.1316,1.2298,1.2305,1.2305,1.2305,1.2553,1.3058,1.3734,1.3973,1.4385,1.4736,1.4042,1.3564,1.3233,1.256,1.2305,1.2305,1.2305,1.2305,1.2305,1.2305,1.2305,1.2305,-1.6714,-1.8131,-1.9243,-1.9243,-2.0719,-2.2125,-2.2884,-2.3078,-2.3078,-2.3078,-2.3627,-2.3966,-2.4041,-2.496,-2.5577,-2.5577,-2.616,-2.6547,-2.6632,-2.5643,-2.5498,-2.6488,-2.3989,-2.2695,-2.3,-2.0916,-1.956,-1.9008,-1.8505,-1.8229,0.0,0.0,0.0,0.0,-1.8819,-1.9346,-1.9899,-2.0451,-2.1292,-2.2234,-2.2246,-2.256,-2.2827,0.0,-2.2209,-2.3078,-2.3078,0.0,0.0,-2.2476,-2.2322,0.0,0.0,0.0,0.0,0.0,0.0,0.0,0.0,0.0,0.0,-1.7501,0.0,0.0,0.0,-1.6923,-1.6522,-1.6522,-1.6522,-1.6522,-1.6522,0.0,0.0,0.0,0.0,0.0,0.0,-1.1119,-0.9627,-0.765,-0.5733,-0.4869,0.0,-0.4098,-0.1511,0.0,0.2316,0.3327,0.6163,0.7253,0.8237,0.9296,1.0265,1.1316,1.2298,1.2305,1.2305,1.2305,1.3226,1.366,1.3719,1.4698,1.4662,1.3758,1.369,1.3186,1.2305,1.2305,1.2305,1.2305,1.2305,1.2305,1.2305,1.2305,1.2305,1.2305,-1.668,-1.7632,-1.8396,-1.8323,-1.9236,-2.0639,-2.2288,-2.2899,-2.3215,-2.3653,-2.3879,-2.4305,-2.5185,-2.5547,-2.5922,-2.6298,-2.6518,-2.6425,-2.5983,-2.5426,-2.5031,-2.4937,-2.3093,-2.2059,-2.2033,-2.0577,-1.9547,-1.8983,-1.848,-1.8016,0.0,0.0,0.0,0.0,-1.8242,-1.887,-1.9613,-2.0735,-2.1126,-2.0976,-2.153,-2.1882,-2.2083,0.0,-2.2752,-2.3078,-2.3078,-2.3078,0.0,-2.2862,-2.257,-2.2278,-2.2278,-2.1992,-2.1645,-2.1511,-2.1171,0.0,0.0,0.0,-1.9987,-1.8342,0.0,0.0,0.0,0.0,0.0,-1.6045,-1.5969,-1.5856,-1.5492,0.0,0.0,0.0,0.0,0.0,0.0,-0.9914,-0.8487,-0.7013,-0.6224,-0.5563,-0.4984,0.0,0.0,0.0,0.1863,0.3368,0.6187,0.6648,0.7553,0.9221,0.9593,1.0645,1.2298,1.2305,1.2305,1.2305,1.3258,1.403,1.4698,1.5687,1.6251,1.6451,1.5209,1.4543,1.4169,1.3483,1.2889,1.2466,1.3741,1.3402,1.2305,1.2305,1.2305,1.2305,-1.6211,-1.691,-1.7536,-1.78,-1.8813,-2.017,-2.2048,-2.2447,-2.2899,-2.3866,-2.3816,-2.414,-2.5368,-2.5676,-2.5935,-2.6298,-2.6531,-2.6229,-2.5347,-2.556,-2.5247,-2.4293,-2.3625,-2.3046,-2.2661,-2.1179,-2.0137,-1.961,-1.8668,-1.7928,-1.7375,0.0,0.0,0.0,-1.7451,-1.8167,-1.9195,-2.0049,-2.0588,-2.0855,-2.1712,-2.2071,-2.2146,0.0,-2.2887,-2.2598,0.0,-2.3078,-2.3078,-2.3078,-2.2883,-2.2629,-2.2959,-2.259,-2.2075,-2.2493,-2.2085,-2.1388,-2.1029,-2.1199,0.0,-1.9233,-1.9296,0.0,-1.7287,0.0,-1.6623,0.0,0.0,-1.5249,-1.5696,0.0,0.0,0.0,0.0,0.0,0.0,-0.9166,-0.7997,-0.6868,-0.6358,-0.569,-0.4794,-0.5013,-0.3792,-0.0433,0.0744,0.2827,0.0,0.6268,0.7022,0.8694,0.9145,1.0121,1.1768,1.215,1.2445,1.2806,1.3753,1.4719,1.5713,1.6652,1.7281,1.7415,1.5885,1.4977,1.4607,1.3579,1.3004,1.2899,1.4159,1.3923,1.2813,1.2799,1.256,1.2305,-1.541,-1.5979,-1.6822,-1.7825,-1.9304,-2.0843,-2.2031,-2.1857,-2.2159,-2.3791,-2.3565,-2.3678,-2.4782,-2.5347,-2.5636,-2.5636,-2.6138,-2.6013,-2.4971,-2.5987,-2.6091,-2.4921,-2.5419,-2.5444,-2.482,-2.2636,-2.1217,-2.0718,-1.9045,-1.7965,-1.7426,0.0,0.0,0.0,-1.6559,-1.7286,-1.862,-1.862,-1.9951,-2.2013,-2.2823,-2.304,-2.3002,-2.3053,-2.2447,-2.1631,-2.2736,-2.3078,-2.3078,-2.3078,-2.3078,-2.3078,-2.3078,-2.3078,-2.3078,-2.3078,-2.3078,-2.2912,-2.1857,-2.1568,-2.1305,-2.0162,0.0,0.0,0.0,0.0,-1.7202,0.0,0.0,0.0,-1.678,0.0,0.0,0.0,0.0,0.0,-0.9486,-0.8931,-0.8267,-0.7105,-0.6102,-0.5388,-0.505,-0.478,-0.3944,-0.2292,-0.0865,0.1844,0.6103,0.6331,0.678,0.7783,0.877,0.982,1.0783,1.1768,1.2732,1.3745,1.4712,1.5677,1.6614,1.7548,1.7474,1.6578,1.5641,1.4676,1.3741,1.2889,1.3014,1.3768,1.3867,1.3882,1.3784,1.3665,1.3058,1.2305,-1.541,-1.5979,-1.6726,-1.7575,-1.9341,-2.0752,-2.1066,-2.202,-2.3025,-2.3891,-2.4556,-2.5234,-2.5963,-2.6163,-2.6239,-2.6239,-2.6445,-2.6408,-2.605,-2.5582,-2.5507,-2.6013,-2.4621,-2.4128,-2.4808,-2.2636,-2.1217,-2.0718,-1.9422,-1.853,-1.799,0.0,0.0,0.0,-1.7162,-1.7701,-1.862,-1.9267,-2.0748,-2.2823,-2.3005,-2.2636,-2.1995,0.0,-2.2447,-2.1631,-2.2736,-2.3078,-2.3078,-2.3078,-2.3078,-2.3078,-2.3078,-2.3078,-2.3078,-2.3078,-2.3078,-2.3015,-2.2786,-2.2711,-2.2447,-2.133,-2.1054,-2.0553,0.0,0.0,0.0,0.0,0.0,0.0,0.0,0.0,0.0,-1.2046,-1.1176,-1.0205,-0.903,-0.8774,-0.8136,-0.6598,-0.6081,-0.5782,-0.5636,-0.3753,-0.2452,-0.2246,-0.0851,0.1853,0.6038,0.0,0.6779,0.7774,0.877,0.982,1.0783,1.1768,1.2732,1.3745,1.4697,1.5655,1.6614,1.7548,1.7474,1.6587,1.6328,1.5703,1.4867,1.5315,1.5202,1.4969,1.6325,1.606,1.4607,1.3169,1.2472,1.2305,-1.541,-1.5979,-1.681,-1.7895,-1.9124,-2.0278,-2.1231,-2.1556,-2.2234,-2.3791,-2.4305,-2.4833,-2.5649,-2.6176,-2.6533,-2.6533,-2.6533,-2.6319,-2.5774,-2.5611,-2.5598,-2.5737,-2.5008,-2.4883,-2.5523,-2.3841,-2.2548,-2.1744,-2.0652,0.0,-1.8568,0.0,0.0,0.0,-1.7488,-1.7713,-1.8272,-1.9443,-2.0673,-2.1893,-2.2745,-2.2761,0.0,-2.2899,-2.2749,-2.2284,-2.2852,-2.3078,-2.3078,-2.3078,-2.3078,-2.3078,-2.3078,-2.3078,-2.3078,-2.3078,-2.3078,-2.3078,-2.3078,-2.3078,-2.2855,-2.1938,-2.166,-2.1073,-1.8902,-1.8391,-1.8046,0.0,-1.6125,-1.5711,0.0,0.0,0.0,-1.094,-1.0273,-0.9637,-0.8797,-0.8521,-0.7897,-0.6683,-0.6282,-0.5954,-0.5686,-0.388,-0.2353,-0.1315,-0.0474,0.1333,0.4322,0.0,0.6482,0.6935,0.8072,0.8912,0.9513,1.0938,1.2124,1.3063,1.4083,1.5251,1.663,1.7161,1.7116,1.6606,1.614,1.5471,1.4617,1.5133,1.5309,1.5275,1.6354,1.5833,1.4347,1.2882,1.2305,1.2385,-1.541,-1.5979,-1.6922,-1.8167,-1.8669,-1.9639,-2.1771,-2.1058,-2.1151,-2.3791,-2.3791,-2.3941,-2.4921,-2.5887,-2.6533,-2.6533,-2.6533,-2.605,-2.5096,-2.5937,-2.6038,-2.5084,-2.595,-2.6533,-2.6533,-2.5385,-2.4268,-2.3078,-2.2033,0.0,0.0,0.0,0.0,-1.8179,-1.7626,-1.7578,-1.7897,-1.9542,-2.0251,-2.0394,-2.2247,-2.2944,-2.2944,-2.3078,-2.3078,-2.3078,-2.3078,-2.3078,-2.3078,-2.3078,-2.3078,-2.3078,-2.3078,-2.3078,-2.3078,-2.3078,-2.3078,-2.3078,-2.2944,-2.2944,-2.2763,-2.1939,-2.1753,-2.114,-1.8766,-1.8243,-1.8008,-1.7133,-1.6093,-1.579,0.0,0.0,0.0,-1.057,-1.0004,-0.9562,-0.9019,-0.8417,-0.7853,-0.7258,-0.6635,0.0,-0.5647,-0.4577,-0.2961,-0.0506,-0.0252,0.045,0.2012,0.0,0.5849,0.5857,0.7088,0.7783,0.7783,0.0,1.1143,1.2225,1.3063,1.4522,1.6446,1.6405,1.6356,1.6201,1.5499,1.4657,1.3715,1.396,1.4566,1.5385,1.5086,1.4458,1.3572,1.264,1.2305,1.2392,-1.541,-1.5979,-1.6595,-1.681,-1.7988,-1.9342,-2.07,-2.1893,-2.3168,-2.4478,-2.5385,-2.595,-2.6151,-2.6352,-2.6533,-2.6533,-2.6533,-2.6445,-2.6189,-2.642,-2.6445,-2.6189,-2.642,-2.6533,-2.6533,-2.5385,-2.4268,-2.3078,-2.2033,0.0,0.0,0.0,0.0,-1.8179,-1.7626,-1.7787,-1.8507,-1.9696,0.0,-2.0597,-2.167,-2.2125,-2.2199,-2.2823,-2.3078,-2.3078,-2.3078,-2.3078,-2.3078,-2.3078,-2.3078,-2.3078,-2.3078,-2.3078,-2.3078,-2.3078,-2.3078,-2.2944,-2.2322,-2.2125,-2.1877,-2.1037,-2.0846,-2.0523,-1.9372,-1.9061,-1.8812,-1.7989,-1.7612,-1.7268,-1.6586,0.0,0.0,0.0,0.0,-1.0808,-1.0285,-0.9384,-0.8631,-0.8216,-0.7208,-0.6425,-0.6096,-0.4619,-0.3274,-0.2288,-0.1778,-0.0608,0.1374,0.0,0.4401,0.0,0.7226,0.0,0.0,0.0,1.0473,1.2225,1.2378,1.3528,1.5455,1.5449,1.5016,1.4263,1.4889,1.4626,1.3812,1.5454,1.6201,1.6219,1.4593,1.3887,1.3572,1.264,1.2305,1.2305,-1.541,-1.57,-1.6178,-1.7061,-1.7895,-1.9071,-2.0997,-2.2032,-2.2969,-2.3905,-2.493,-2.5611,-2.5611,-2.6113,-2.6533,-2.6533,-2.6533,-2.6533,-2.6533,-2.6533,-2.6533,-2.6533,-2.6533,-2.6533,-2.6533,-2.5937,-2.4695,-2.2711,0.0,0.0,0.0,0.0,0.0,-1.8169,-1.8007,-1.7945,-1.8113,0.0,0.0,-2.018,-2.1145,-2.1394,-2.1302,-2.1678,-2.1791,-2.1791,-2.1791,-2.1791,-2.1928,-2.2823,-2.3078,-2.3078,-2.3078,-2.3078,-2.3078,-2.3078,-2.3078,-2.2944,-2.2137,-2.1877,-2.1553,-2.0268,-1.9955,-1.9683,-1.8854,-1.8664,-1.8529,-1.8076,-1.8008,-1.7474,-1.5732,-1.4305,0.0,0.0,0.0,0.0,-1.0499,-0.9819,-0.9093,-0.8373,-0.7571,-0.6797,-0.6176,-0.5126,-0.4225,-0.3649,-0.3183,-0.2022,0.0,0.0,0.3103,0.0,0.0,0.0,0.0,0.0,0.0,0.9938,1.0983,1.2265,1.363,1.4209,1.4126,1.3746,1.4221,1.3837,1.311,1.4522,1.5067,1.5037,1.4041,1.3402,1.2896,1.2472,1.2305,1.2385,-1.5654,-1.5693,-1.6138,-1.7563,-1.8085,-1.8973,-2.1038,-2.1732,-2.2347,-2.3225,-2.425,-2.483,-2.483,-2.5802,-2.6533,-2.6533,-2.6533,-2.6533,-2.6533,-2.6533,-2.6533,-2.6533,-2.6533,-2.6533,-2.6533,-2.6533,-2.5194,-2.2526,0.0,0.0,0.0,0.0,0.0,0.0,0.0,0.0,0.0,0.0,-1.9749,-1.9609,-2.0687,-2.0842,-2.0477,-2.0683,-2.068,-2.059,-2.059,-2.059,-2.0782,-2.2113,-2.2567,-2.2628,-2.2823,-2.2689,-2.2567,-2.2567,-2.2567,-2.2372,-2.1553,-2.1365,-2.0974,-1.9431,-1.9044,-1.8854,-1.8134,-1.8008,-1.8008,-1.8008,-1.8008,-1.7341,-1.5097,-1.4488,0.0,0.0,0.0,0.0,0.0,-1.0343,-0.9543,-0.8569,-0.796,-0.7209,-0.6207,-0.5691,-0.5278,-0.4949,-0.4525,-0.345,-0.1647,0.0,0.0,0.0,0.0,0.5854,0.6287,0.0,0.7557,0.7783,0.9437,1.0622,1.1643,1.2661,1.3075,1.3078,1.3323,1.3065,1.2673,1.3145,1.3491,1.366,1.3483,1.297,1.2305,1.2305,1.2305,1.2392,-1.6455,-1.6611,-1.6875,-1.7801,-1.8664,-1.9262,-1.9486,-2.0944,-2.2371,-2.3318,-2.4341,-2.5003,-2.5003,-2.5894,-2.6533,-2.6533,-2.6533,-2.6533,-2.6533,-2.6533,-2.6533,-2.6533,-2.6533,-2.6533,-2.6533,-2.6533,-2.5407,-2.3197,0.0,-2.119,0.0,0.0,0.0,0.0,0.0,0.0,0.0,-1.892,-1.9137,-1.939,-2.0296,-2.0397,-2.0043,-2.0841,-2.0906,-2.059,-2.059,-2.059,-2.0655,-2.0782,-2.0846,-2.0974,-2.1753,-2.1491,-2.0846,-2.0846,-2.0846,-2.0655,-1.9759,-1.9562,-1.9299,-1.8327,-1.8144,-1.8076,-1.8008,-1.8008,-1.8008,-1.8008,-1.8008,-1.7341,-1.5097,-1.4927,-1.4323,0.0,0.0,0.0,0.0,-1.1307,-1.0385,-0.9475,-0.8536,-0.7609,-0.6607,-0.6036,-0.5914,-0.6397,-0.5525,0.0,0.0,0.0,0.0,0.0489,0.0,0.4344,0.6305,0.6371,0.6883,0.7783,0.8008,0.8613,0.9593,1.0645,1.1051,1.112,1.2044,1.2889,1.3483,1.2739,1.2921,1.3653,1.2728,1.2385,1.2305,1.2305,1.2305,1.2305,-1.6854,-1.7243,0.0,0.0,0.0,0.0,0.0,-2.0705,-2.1298,-2.168,-2.3158,-2.4108,-2.4108,-2.5004,-2.5594,-2.5594,-2.5594,-2.5873,-2.6452,-2.5346,-2.4992,-2.5581,-2.4992,-2.4696,-2.4696,-2.4696,-2.3816,0.0,0.0,0.0,0.0,0.0,0.0,0.0,0.0,-1.9221,-1.9373,-1.9756,-1.9792,-1.9658,-2.0018,-1.9895,-1.9575,-1.9919,-1.9772,-1.9369,-1.9369,-1.9272,-1.911,-1.9617,-2.0139,-2.0655,-2.0974,-2.0846,-2.059,-2.059,-2.059,-2.0398,-1.9562,-1.9299,-1.911,-1.8202,-1.8008,-1.8008,-1.8008,-1.8008,-1.8008,-1.8008,-1.7569,-1.6716,-1.5273,-1.4472,-1.3593,-1.2291,0.0,0.0,0.0,-1.1922,-1.1346,-1.0366,-0.9157,-0.8122,-0.7529,-0.6423,-0.5908,0.0,0.0,0.0,0.0,0.0,0.0,-0.0071,0.0,0.1663,0.2543,0.5024,0.6511,0.6883,0.693,0.7456,0.8466,0.9442,1.0226,1.0825,1.1883,1.2472,1.2808,1.2466,1.2546,1.2808,1.2466,1.2305,1.2305,1.2305,1.2305,1.2305,-1.7596,0.0,-1.8289,0.0,-1.9668,-1.9863,-2.0469,-2.0566,-2.0566,-2.0566,-2.1832,-2.2776,-2.2999,-2.3963,-2.4564,-2.4564,-2.4564,-2.485,-2.5569,-2.4325,-2.3818,-2.4564,-2.3891,0.0,-2.3514,-2.3514,-2.2784,-2.1326,-2.0211,0.0,0.0,0.0,0.0,0.0,-1.938,-1.9696,-1.9919,-2.0404,-2.0391,-2.0107,-2.0107,-1.9853,-1.9473,-1.9473,-1.9209,-1.8828,-1.8828,-1.8555,-1.8262,-1.8914,-1.9414,-1.9879,-2.0139,-2.0009,-1.9824,-1.9824,-1.9824,-1.9683,-1.911,-1.8911,-1.8787,-1.8134,-1.8008,-1.8008,-1.8008,-1.8008,-1.794,-1.7647,-1.707,-1.621,-1.5021,-1.3989,-1.3135,-1.2417,0.0,0.0,0.0,-1.2305,-1.1832,-1.0544,-0.9483,-0.8498,-0.7609,-0.6578,-0.6026,0.0,0.0,0.0,0.0,0.0,0.0,0.0,0.0,0.0,-0.0,0.2944,0.4781,0.5404,0.6009,0.6703,0.7411,0.8389,0.9417,1.041,1.1125,1.1446,1.1446,1.1736,1.1883,1.189,1.2211,1.2305,1.2305,1.2305,1.2305,1.2305,-1.8648,-1.8257,-1.832,-2.0246,-2.0547,-2.0557,-2.0566,-2.0566,-2.0566,-2.0566,-2.0644,-2.1011,-2.1886,-2.2925,-2.3514,-2.3514,-2.3514,-2.3514,-2.3526,-2.3514,-2.3526,0.0,0.0,-2.3514,-2.3514,-2.3514,-2.2988,-2.2006,0.0,0.0,-2.0357,0.0,-1.9479,-1.9589,-1.961,-2.0,-2.0615,-2.0634,-2.0634,-2.0557,-2.0557,-2.0293,-1.9902,-1.9902,-1.9648,-1.9277,-1.9277,-1.8994,-1.8562,-1.8623,-1.835,-1.8202,-1.9044,-1.8721,-1.8008,-1.8008,-1.8008,-1.8008,-1.8008,-1.8008,-1.8008,-1.8008,-1.8008,-1.8008,-1.8008,-1.8008,-1.7725,-1.6784,-1.6636,-1.6,-1.4099,-1.373,-1.3368,-1.2445,0.0,0.0,0.0,-1.2305,-1.1611,-0.9744,-0.9504,-0.8689,-0.6591,-0.6382,-0.6382,0.0,0.0,0.0,0.0,0.0,0.0,-0.014,-0.0,0.0,-0.0,0.0076,0.1094,0.3202,0.5257,0.6288,0.6352,0.7334,0.8389,0.9296,0.9321,0.937,0.9445,1.0387,1.0819,1.0905,1.189,1.2305,1.2305,1.2305,1.2305,1.2305,-1.5574,-1.7,-1.8452,-1.9335,-1.952,-1.9766,-2.0489,-2.0566,-2.0566,-2.0566,-2.0566,-2.0712,-2.1011,-2.1886,-2.2478,0.0,-2.2478,-2.2776,0.0,-2.2264,-2.1821,-2.2478,-2.1897,-2.1527,-2.1527,-2.1527,-2.1385,-2.1078,0.0,0.0,0.0,-1.8952,-1.9394,-2.0252,-2.0252,-2.0404,-2.0566,-2.0566,-2.0566,-2.0566,-2.0566,-2.0478,-2.0361,-2.0361,-2.0088,-1.9717,-1.9717,-1.9443,-1.9082,-1.9082,-1.8789,-1.8437,-1.8765,-1.8439,-1.8008,-1.8008,-1.8008,-1.8008,-1.8008,-1.8008,-1.8008,-1.8008,-1.7501,-1.707,-1.707,-1.6576,-1.6018,-1.5728,-1.5084,-1.445,-1.381,-1.3164,-1.2666,-1.2378,-1.2305,0.0,-1.2305,0.0,-1.1819,-1.0521,-1.0419,-0.9618,-0.7586,-0.7364,0.0,0.0,0.0,0.0,0.0,0.0,0.0,0.0,-0.2764,0.0,-0.0,-0.0,0.0313,0.1017,0.3136,0.487,0.6288,0.6633,0.6915,0.7287,0.8201,0.8903,0.9311,0.9677,0.9797,0.9857,1.0873,1.1304,1.139,1.205,1.2305,1.2305,-1.4131,-1.5896,-1.7588,-1.8247,-1.839,-1.855,-1.9274,-1.9756,-2.0001,-2.0001,-2.0323,-2.0566,-2.0566,-2.1155,0.0,-2.1441,-2.1441,-2.1745,-2.2339,-2.1231,-2.0857,-2.1441,-2.0934,-2.0566,-2.0566,-2.0566,0.0,-2.0566,-1.9756,-1.9365,-1.9365,-1.9365,-1.9795,-2.0566,-2.0566,-2.0566,-2.0566,-2.0566,-2.0566,-2.0566,-2.0566,-2.0566,-2.0566,-2.0566,-2.0391,-2.0156,-2.0156,-1.9883,-1.9448,-1.9068,-1.8635,-1.8212,-1.776,-1.7403,-1.7134,-1.7411,-1.7501,-1.7501,-1.7501,-1.7217,-1.701,-1.7364,-1.6784,-1.607,-1.607,-1.5658,-1.5092,-1.4736,-1.4171,-1.36,-1.3244,-1.2739,-1.2305,-1.2305,-1.2305,-1.2305,-1.2305,0.0,-1.1353,-1.0461,0.0,0.0,0.0,-0.7245,-0.6903,0.0,0.0,0.0,0.0,0.0,0.0,-0.5925,-0.4854,0.0,-0.2348,-0.1564,-0.1173,-0.1173,0.0938,0.266,0.3997,0.4758,0.5137,0.5209,0.6846,0.7795,0.82,0.8558,0.8698,0.8875,0.9868,1.0484,1.0899,1.1476,1.197,1.2305,-1.413,-1.4864,-1.5951,0.0,-1.7172,0.0,-1.7253,-1.823,-1.8877,-1.8877,-1.9756,-2.0401,-2.0401,-2.0401,-2.0401,-2.0401,0.0,0.0,0.0,-2.0566,-2.0566,-2.0566,-2.0566,-2.0566,-2.0566,-2.0566,-2.0566,-2.0566,-2.0566,-2.0566,-2.0566,-2.0566,-2.0566,-2.0566,-2.0566,-2.0566,-2.0566,-2.0566,-2.0566,-2.0566,-2.0566,-2.0566,-2.0566,-2.0566,-2.0566,-2.0566,-2.0489,-2.0226,-1.9649,-1.8552,-1.7984,-1.7437,-1.6345,-1.5871,-1.5732,-1.6369,-1.6515,-1.6498,-1.6498,-1.5869,-1.5376,-1.628,-1.579,-1.5092,-1.5021,-1.5021,-1.4736,-1.381,-1.36,-1.3317,-1.2445,-1.2305,-1.2305,-1.2305,-1.2305,-1.2305,-1.2224,-1.1391,-1.0446,0.0,0.0,0.0,0.0,-0.6444,-0.6422,0.0,0.0,0.0,0.0,0.0,-0.5803,-0.6261,-0.6278,-0.6285,-0.6295,-0.4304,-0.3359,-0.3281,-0.1091,-0.0,0.0078,0.2032,0.289,0.2968,0.501,0.6038,0.6355,0.7334,0.7662,0.7781,0.8823,0.9734,1.0609,1.0677,1.1323,1.2077,0.0,0.0,-1.4817,-1.5869,-1.6108,-1.6355,-1.7172,-1.7496,-1.7658,-1.7658,-1.79,-1.806,-1.806,-1.806,-1.806,-1.806,-1.9599,-2.0566,-2.0566,-2.0566,-2.0566,-2.0566,-2.0566,-2.0566,-2.0566,-2.0566,-2.0566,-2.0566,-2.0566,-2.0566,-2.0566,-2.0566,-2.0566,-2.0566,-2.0566,-2.0566,-2.0566,-2.0566,-2.0566,-2.0566,-2.0566,-2.0566,-2.0566,-2.0566,-2.0566,-2.0479,-1.9678,-1.9298,-1.9049,-1.7931,-1.7279,-1.6882,-1.6641,-1.6239,-1.588,-1.5813,-1.5665,-1.5508,-1.5508,-1.5376,-1.5234,-1.5517,-1.4807,-1.3882,-1.3164,-1.3018,-1.2945,-1.2666,-1.2666,-1.2592,-1.2372,-1.2305,-1.2305,-1.2305,-1.2305,-1.1996,-1.1242,-1.0938,-1.0124,0.0,-0.8689,-0.8319,-0.6468,-0.699,-0.7024,0.0,0.0,0.0,0.0,-0.5647,-0.5796,-0.6251,-0.6264,-0.6271,-0.6281,-0.5802,-0.5565,-0.5494,-0.1798,-0.0,-0.0,0.0549,0.0705,0.0782,0.1251,0.3285,0.6355,0.6581,0.6659,0.6736,0.7795,0.8336,0.8574,0.9396,0.9772,0.9976,-1.4088,-1.4088,-1.425,-1.4901,-1.4977,-1.5137,-1.5711,-1.6281,-1.6601,-1.6601,-1.7009,-1.7342,-1.7342,-1.7342,-1.7342,-1.7342,-1.8868,-1.9844,-1.9844,-2.0323,-2.0566,-2.0566,-2.0566,-2.0566,-2.0566,-2.0566,-2.0566,-2.0566,-2.0566,-2.0323,-1.9844,-2.0401,-2.0323,-1.9923,-2.0401,-2.0566,-2.0566,-2.0566,-2.0566,-2.0566,-2.0566,-2.0566,-2.0566,-2.0079,-1.9844,-1.9678,-1.863,-1.823,-1.806,-1.6927,-1.6385,-1.6147,-1.5678,-1.521,-1.4904,-1.4732,-1.4712,-1.4727,-1.4569,-1.4235,-1.3875,-1.3875,-1.3448,-1.2952,-1.2445,-1.2305,-1.2305,-1.2305,-1.2305,-1.2305,-1.2305,-1.2305,-1.2305,-1.2305,-1.1742,-1.1177,-1.0885,-0.9823,-0.8802,-0.7901,-0.7859,-0.748,-0.6412,-0.6795,-0.676,-0.5988,-0.5898,0.0,-0.5898,-0.5898,-0.601,-0.6254,-0.6338,-0.6264,-0.6271,-0.6271,-0.6278,-0.6288,-0.3992,-0.1877,-0.0,-0.0,-0.0,-0.0,-0.0,0.133,0.3597,0.5485,0.6274,0.6345,0.6872,0.7423,0.7897,0.8452,0.8908,0.9322,-1.4088,-1.4088,-1.4088,-1.4088,-1.4088,-1.4088,-1.4088,-1.4894,-1.5455,-1.5455,-1.6281,-1.6854,-1.6854,-1.6854,-1.6854,-1.6854,-1.7827,-1.855,-1.8718,-1.9599,-2.0079,-2.0079,-2.0245,-2.0323,-2.0323,-2.0489,-2.0566,-2.0566,-2.0566,-2.0079,-1.9036,-1.9923,-1.9766,-1.8798,-1.9678,-2.0079,-2.0079,-2.0079,-2.0079,-2.0079,-2.0079,-2.0079,-2.0001,-1.9116,-1.8718,-1.8638,-1.7496,-1.709,-1.6927,-1.5786,-1.5455,-1.5296,-1.4412,-1.3915,-1.3701,-1.3572,-1.3829,-1.4004,-1.3631,-1.2914,-1.2305,-1.2305,-1.2305,-1.2305,-1.2305,-1.2305,-1.2305,-1.2305,-1.2305,-1.2305,-1.2305,-1.215,-1.2031,-1.1972,-1.0867,-1.0065,-1.0244,0.0,-0.7321,-0.7575,-0.6795,-0.6338,-0.6338,-0.6338,-0.6338,-0.6338,-0.6338,-0.6338,-0.6338,-0.6338,-0.6338,-0.6338,-0.6338,-0.6338,-0.6338,-0.6338,-0.6268,-0.6278,-0.6278,-0.446,-0.0939,-0.0313,-0.0,-0.0,-0.0,-0.0,0.0313,0.4224,0.6038,0.6278,0.6268,0.6795,0.7553,0.7553,0.8102,0.8885,-1.4088,-1.4088,-1.4088,-1.4088,-1.4088,-1.4088,-1.4088,-1.425,-1.4334,-1.4334,-1.4496,-1.458,-1.458,-1.458,-1.458,-1.458,-1.5628,-1.6601,-1.7496,-1.7738,-1.7819,-1.7819,-1.8709,-1.9283,-1.9283,-2.0157,-2.0566,-2.0566,-2.0566,-2.0079,-1.9036,-1.9195,-1.863,-1.7577,-1.7738,-1.7819,-1.7819,-1.7819,-1.7819,-1.7819,-1.7819,-1.7819,-1.7819,-1.7658,-1.7585,-1.7415,-1.6355,-1.5944,-1.5786,-1.4734,-1.4334,-1.4328,-1.4166,-1.4055,-1.3968,-1.3714,-1.3655,-1.362,-1.3056,-1.2641,-1.2305,-1.2305,-1.2305,-1.2305,-1.2305,-1.2305,-1.2305,-1.2305,-1.2305,-1.2305,-1.2305,-1.162,-1.0864,-1.0542,-0.9834,-0.8978,-0.7822,0.0,-0.7387,-0.6633,-0.6412,-0.6338,-0.6338,-0.6338,-0.6338,-0.6338,-0.6338,-0.6338,-0.6338,-0.6338,-0.6338,-0.6338,-0.6338,-0.6338,-0.6338,-0.6338,-0.6264,-0.6264,-0.6274,-0.5967,-0.5182,-0.1643,-0.0,-0.0,-0.0,-0.0,0.0157,0.2578,0.4693,0.6278,0.6268,0.6412,0.6567,0.6567,0.6644,0.6802,-1.4088,-1.4088,-1.4088,-1.4088,-1.4088,-1.4088,-1.4088,-1.4088,-1.4088,-1.4088,-1.4088,-1.4088,-1.4088,-1.4088,-1.4088,-1.4088,-1.4573,-1.5061,-1.5553,-1.669,-1.7342,-1.7342,-1.7819,-1.8069,-1.8069,-1.855,-1.8789,-1.8789,-1.8789,-1.8301,-1.7245,-1.7819,-1.7496,-1.6437,-1.7009,-1.7342,-1.7342,-1.7342,-1.7342,-1.7342,-1.7342,-1.7342,-1.7261,-1.6683,-1.6437,-1.6273,-1.522,-1.481,-1.4734,-1.425,-1.4088,-1.4088,-1.4088,-1.4088,-1.4062,-1.3921,-1.3661,-1.3313,-1.2943,-1.2721,-1.2505,-1.2345,-1.2305,-1.2305,-1.2305,-1.2305,-1.2305,-1.2305,-1.2305,-1.215,-1.162,-1.1087,-1.0518,-0.9818,-0.8791,0.0,0.0,-0.7001,-0.6574,-0.6307,-0.6338,-0.6338,-0.6338,-0.6338,-0.6338,-0.6338,-0.6338,-0.6338,-0.6338,-0.6338,-0.6338,-0.6338,-0.6338,-0.6338,-0.6338,-0.6338,-0.6338,-0.6338,-0.6268,-0.6278,-0.6213,-0.3051,-0.1096,-0.0,-0.0,-0.0,0.0078,0.1017,0.3363,0.6288,0.6274,0.6268,0.6338,0.6338,0.6338,0.6338,-1.4088,-1.4088,-1.4088,-1.4088,-1.4088,-1.4088,-1.4088,-1.4088,-1.4088,-1.4088,-1.4088,-1.4088,-1.4088,-1.4088,-1.4088,-1.4088,-1.4088,-1.4088,-1.4088,-1.5636,-1.6527,-1.6527,-1.6764,-1.7009,-1.7253,-1.7342,-1.7342,-1.7342,-1.7342,-1.6764,-1.5696,-1.6519,-1.6355,-1.5379,-1.6198,-1.6527,-1.6527,-1.6527,-1.6527,-1.6527,-1.6527,-1.6527,-1.6445,-1.5628,-1.5296,-1.522,-1.4412,-1.4088,-1.4088,-1.4088,-1.4088,-1.4088,-1.4088,-1.4088,-1.4088,-1.4088,-1.3768,-1.3333,-1.2959,-1.2876,-1.2768,-1.2458,-1.2351,-1.2305,-1.2305,-1.2305,-1.2224,-1.1996,-1.1922,-1.162,-1.064,-1.026,-0.9836,-0.8941,0.0,0.0,0.0,-0.6401,-0.5874,-0.622,-0.6338,-0.6352,-0.6305,-0.6312,-0.6325,-0.6363,-0.6363,-0.6363,-0.6363,-0.6363,-0.6363,-0.6363,-0.6295,-0.6338,-0.6338,-0.6338,-0.6338,-0.6338,-0.6338,-0.6274,-0.6213,-0.4068,-0.1955,-0.0,-0.0,-0.0,-0.0,-0.0,0.219,0.5575,0.6122,0.6271,0.6338,0.6338,0.6338,0.6338,-1.4088,-1.4088,-1.4088,-1.4088,-1.4088,-1.4088,-1.4088,-1.4088,-1.4088,-1.4088,-1.4088,-1.4088,-1.4088,-1.4088,-1.4088,-1.4088,-1.4088,-1.4088,-1.4088,-1.425,-1.4334,-1.4334,-1.5296,-1.6273,-1.7261,-1.7342,-1.7342,-1.7342,-1.7342,-1.6764,-1.5696,-1.5779,-1.522,-1.425,-1.4334,-1.4334,-1.4334,-1.4334,-1.4334,-1.4334,-1.4334,-1.4334,-1.4334,-1.425,-1.425,-1.4166,-1.4173,-1.4088,-1.4088,-1.4088,-1.4088,-1.4088,-1.4088,-1.4088,-1.4088,-1.4088,-1.4055,-1.3901,-1.3333,-1.2966,-1.2815,-1.2795,-1.2505,-1.2305,-1.2305,-1.2305,-1.207,-1.1087,-1.0938,-1.0565,-0.9593,-0.8613,-0.7834,-0.7372,0.0,0.0,-0.5832,-0.6043,-0.6224,-0.6257,-0.6338,-0.6312,-0.6444,-0.6458,-0.6515,-0.6658,-0.6668,-0.6668,-0.6668,-0.6668,-0.6668,-0.6668,-0.6403,-0.6338,-0.6338,-0.6338,-0.6338,-0.6338,-0.6338,-0.6274,-0.6213,-0.4068,-0.1955,-0.0,-0.0,-0.0,-0.0,-0.0,0.1329,0.3515,0.5562,0.6271,0.6338,0.6338,0.6338,0.6338,-1.4083,-1.4122,-1.4088,-1.4088,-1.4088,-1.4088,-1.4088,-1.4088,-1.4088,-1.4088,-1.4088,-1.4088,-1.4088,-1.4088,-1.4088,-1.4088,-1.4088,-1.4088,-1.4088,-1.4088,-1.4088,-1.4088,-1.4489,-1.4901,-1.5311,-1.5311,-1.5311,-1.5311,-1.5311,-1.5144,-1.4734,-1.4734,-1.4489,-1.4088,-1.4088,-1.4088,-1.4088,-1.4088,-1.4088,-1.4088,-1.4088,-1.4088,-1.4088,-1.4088,-1.4088,-1.4088,-1.4088,-1.4088,-1.4088,-1.4088,-1.4088,-1.4088,-1.4088,-1.4088,-1.4088,-1.4088,-1.4088,-1.386,-1.2952,-1.2939,-1.3094,-1.2182,-1.1901,-1.1623,-1.0753,-1.0565,-1.0444,-0.9997,-0.9895,-0.9593,-0.8537,-0.8084,-0.7563,-0.6767,0.0,-0.62,-0.603,-0.6152,-0.6295,-0.638,-0.639,-0.6451,-0.66,-0.6614,-0.6637,-0.6698,-0.6702,-0.6702,-0.6702,-0.6702,-0.6702,-0.6702,-0.659,-0.6532,-0.6532,-0.6532,-0.6532,-0.6532,-0.6532,-0.6465,-0.6241,-0.4105,-0.2,-0.0,-0.0,-0.0,-0.0,-0.0,0.047,0.1485,0.4937,0.6281,0.6271,0.6264,0.6338,0.6338,-1.2851,-1.2991,-1.3039,-1.3039,-1.3039,-1.3039,-1.3039,-1.3039,-1.3124,-1.347,-1.3555,-1.3646,-1.4088,-1.4088,-1.4088,-1.4088,-1.4088,-1.4088,-1.4088,-1.4088,-1.4088,-1.4088,-1.4088,-1.4088,-1.4088,-1.4088,-1.4088,-1.4088,-1.4088,-1.4088,-1.4088,-1.4088,-1.4088,-1.4088,-1.4088,-1.4088,-1.4088,-1.4088,-1.4088,-1.4088,-1.4088,-1.4088,-1.4088,-1.4088,-1.4088,-1.4088,-1.4088,-1.4088,-1.4088,-1.4088,-1.4088,-1.4088,-1.4088,-1.3822,-1.3555,-1.3555,-1.33,-1.2863,-1.1986,-1.221,-1.2438,-1.1345,-1.0972,-1.0712,-0.9751,-0.9557,-0.9444,-0.9067,-0.8961,-0.865,-0.7642,-0.7489,-0.7257,-0.6555,-0.64,-0.6383,-0.6335,-0.6369,-0.6417,-0.6468,-0.6515,-0.6603,-0.6756,-0.6773,-0.679,-0.6837,-0.6841,-0.6841,-0.6841,-0.6841,-0.6841,-0.6841,-0.6841,-0.6841,-0.6841,-0.6746,-0.6702,-0.6702,-0.6702,-0.6632,-0.6322,-0.4127,-0.1967,-0.0,-0.0,-0.0,-0.0,-0.0,-0.0,0.04,0.4004,0.586,0.642,0.6403,0.64,0.64,-1.0149,-1.0611,-1.0611,-1.0611,-1.0611,-1.0611,-1.0611,-1.0611,-1.1042,-1.2151,-1.2328,-1.2766,-1.3997,-1.4088,-1.4088,-1.4088,-1.4088,-1.4088,-1.4088,-1.4088,-1.4088,-1.4088,-1.4088,-1.4088,-1.4088,-1.4088,-1.4088,-1.4088,-1.4088,-1.4088,-1.4088,-1.4088,-1.4088,-1.4088,-1.4088,-1.4088,-1.4088,-1.4088,-1.4088,-1.4088,-1.4088,-1.4088,-1.4088,-1.4088,-1.4088,-1.4088,-1.4088,-1.4088,-1.4088,-1.4088,-1.4088,-1.4088,-1.4088,-1.3294,-1.2322,-1.2322,-1.1466,-1.0611,-1.0611,-1.0611,-1.0555,-1.0253,-0.9955,-0.971,-0.971,-0.971,-0.9385,-0.841,-0.8164,-0.7922,-0.6864,-0.6702,-0.6702,-0.6702,-0.6702,-0.6647,-0.6495,-0.6603,-0.6644,-0.6495,-0.661,-0.6763,-0.6915,-0.6929,-0.699,-0.7129,-0.7139,-0.7139,-0.7139,-0.7139,-0.7139,-0.7139,-0.7139,-0.7139,-0.7139,-0.6851,-0.6705,-0.6705,-0.6705,-0.6722,-0.6585,-0.4195,-0.193,-0.0,-0.0,-0.0,-0.0,-0.0,-0.0,0.0251,0.268,0.4866,0.6646,0.6709,0.6702,0.6702,-0.9497,-1.0279,-1.0611,-1.0611,-1.0611,-1.0869,-1.1643,-1.1809,-1.2248,-1.3385,-1.3555,-1.373,-1.4088,-1.4088,-1.4088,-1.4088,-1.4088,-1.4088,-1.4088,-1.4088,-1.4088,-1.4088,-1.4088,-1.4088,-1.4088,-1.4088,-1.4088,-1.4088,-1.4088,-1.4088,-1.4088,-1.4088,-1.4088,-1.4088,-1.4088,-1.4088,-1.4088,-1.4088,-1.4088,-1.4088,-1.4088,-1.4088,-1.4088,-1.4088,-1.4088,-1.4088,-1.4088,-1.4088,-1.4088,-1.4088,-1.3555,-1.2681,-1.1906,-1.1391,-1.1123,-1.1123,-1.0869,-1.0438,-0.9666,-0.9405,-0.9392,-0.9334,-0.9189,-0.8858,-0.7974,-0.7693,-0.7659,-0.7213,-0.7109,-0.7026,-0.6785,-0.6702,-0.6702,-0.6702,-0.6702,-0.6685,-0.6637,-0.6671,-0.6722,-0.6783,-0.6831,-0.6919,-0.7061,-0.7078,-0.7095,-0.7136,-0.7139,-0.7139,-0.7139,-0.7139,-0.7139,-0.7139,-0.7139,-0.7139,-0.7139,-0.7051,-0.7007,-0.7007,-0.7007,-0.694,-0.688,-0.4497,-0.2147,-0.0,-0.0,-0.0,-0.0,-0.0,-0.0,0.0252,0.2683,0.4957,0.6916,0.6798,0.6702,0.6702,-0.8372,-0.889,-0.9226,-0.9226,-0.9226,-0.9483,-1.0168,-1.0255,-1.0768,-1.214,-1.2504,-1.3039,-1.4004,-1.4088,-1.4088,-1.4088,-1.4088,-1.4088,-1.4088,-1.4088,-1.4088,-1.4088,-1.4088,-1.4088,-1.4088,-1.4088,-1.4088,-1.4088,-1.4088,-1.4088,-1.4088,-1.4088,-1.4088,-1.4088,-1.4088,-1.4088,-1.4088,-1.4088,-1.4088,-1.4088,-1.4088,-1.4088,-1.4088,-1.4088,-1.4088,-1.4088,-1.4088,-1.3822,-1.3379,-1.3379,-1.2595,-1.1466,-1.0783,-1.0265,-0.9923,-0.9923,-0.9575,-0.9052,-0.836,-0.8193,-0.8193,-0.8193,-0.8193,-0.799,-0.7205,-0.701,-0.6987,-0.6895,-0.6875,-0.6875,-0.6875,-0.6875,-0.6875,-0.6875,-0.6875,-0.6854,-0.68,-0.6841,-0.6888,-0.6926,-0.6976,-0.7048,-0.7132,-0.7139,-0.7139,-0.7139,-0.7061,-0.7061,-0.7139,-0.7139,-0.7139,-0.7139,-0.7139,-0.7139,-0.7139,-0.7061,-0.7064,-0.7064,-0.7064,-0.7081,-0.7022,-0.5673,-0.3167,-0.0,-0.0,-0.0,-0.0,-0.0,0.1123,0.2851,0.3358,0.4996,0.7093,0.6885,0.6875,0.6875,-0.7139,-0.7139,-0.7139,-0.7139,-0.7139,-0.7139,-0.7228,-0.7228,-0.7826,-0.9525,-1.0331,-1.1574,-1.3848,-1.4115,-1.4115,-1.4115,-1.4115,-1.4108,-1.4102,-1.4108,-1.4024,-1.3919,-1.3919,-1.3835,-1.3822,-1.3997,-1.4088,-1.4088,-1.4088,-1.4088,-1.4088,-1.4088,-1.4088,-1.4088,-1.4088,-1.4088,-1.4088,-1.4088,-1.4088,-1.4088,-1.4088,-1.4088,-1.4088,-1.3997,-1.3913,-1.3913,-1.3822,-1.3118,-1.2151,-1.2066,-1.1295,-1.0438,-1.0351,-0.9575,-0.8715,-0.8715,-0.7929,-0.7139,-0.7139,-0.7139,-0.7139,-0.7139,-0.7139,-0.7139,-0.7139,-0.7139,-0.7139,-0.7139,-0.7139,-0.7139,-0.7139,-0.7139,-0.7139,-0.7139,-0.7139,-0.7095,-0.6966,-0.7058,-0.7092,-0.6966,-0.7061,-0.7143,-0.7058,-0.7143,-0.7054,-0.6874,-0.6982,-0.7074,-0.7143,-0.7139,-0.7143,-0.7143,-0.7143,-0.7143,-0.7058,-0.7078,-0.7088,-0.7084,-0.6903,-0.692,-0.7135,-0.7135,-0.4497,-0.0,-0.0,-0.0,-0.0,-0.0,0.2516,0.6311,0.4565,0.5186,0.7084,0.7061,0.7139,0.7139,-0.7139,-0.7139,-0.7139,-0.7139,-0.7139,-0.7404,-0.8364,-0.854,-0.9157,-1.1089,-1.1446,-1.2187,-1.3866,-1.4144,-1.4144,-1.4144,-1.4144,-1.4104,-1.411,-1.4097,-1.3563,-1.233,-1.2324,-1.2043,-1.1391,-1.313,-1.4088,-1.4088,-1.4088,-1.4088,-1.4088,-1.4088,-1.4088,-1.4088,-1.4088,-1.4088,-1.4088,-1.4088,-1.4088,-1.4088,-1.4088,-1.4088,-1.3997,-1.3027,-1.2674,-1.2589,-1.1649,-1.1214,-1.0869,-0.9923,-0.9492,-0.9061,-0.8185,-0.7661,-0.7489,-0.7489,-0.7316,-0.7139,-0.7139,-0.7139,-0.7139,-0.7139,-0.7139,-0.7139,-0.7139,-0.7139,-0.7139,-0.7139,-0.7139,-0.7139,-0.7139,-0.7139,-0.7139,-0.7139,-0.7139,-0.7129,-0.7099,-0.7122,-0.7048,-0.7034,-0.7044,-0.7061,-0.7088,-0.7084,-0.6621,-0.5354,-0.6428,-0.7058,-0.7139,-0.7139,-0.7061,-0.7078,-0.7078,-0.7081,-0.7091,-0.7094,-0.7094,-0.7084,-0.5275,-0.529,-0.7135,-0.7135,-0.4497,-0.0,-0.0,-0.0,-0.0,-0.0,0.0629,0.1886,0.5112,0.6643,0.7094,0.7064,0.7139,0.7139,-0.7139,-0.7139,-0.7139,-0.7139,-0.7139,-0.7316,-0.7929,-0.8017,-0.8448,-0.9392,-0.9566,-0.9826,-1.0707,-1.2769,-1.3157,-1.0982,-1.2775,-1.3133,-1.0914,-1.0768,-1.0707,-1.0702,-1.0702,-1.0702,-1.0611,-1.1821,-1.2431,-1.2431,-1.2431,-1.2431,-1.2431,-1.2431,-1.2431,-1.2431,-1.2431,-1.2431,-1.2431,-1.2431,-1.2431,-1.2431,-1.2431,-1.2431,-1.2345,-1.1729,-1.1466,-1.1381,-1.0783,-1.0265,-0.9575,-0.8452,-0.8017,-0.7929,-0.7316,-0.7139,-0.7139,-0.7139,-0.7139,-0.7139,-0.7139,-0.7139,-0.7139,-0.7139,-0.7139,-0.7139,-0.7139,-0.7139,-0.7139,-0.7139,-0.7139,-0.7139,-0.7139,-0.7139,-0.7139,-0.7139,-0.7139,-0.7143,-0.7068,-0.7058,-0.7061,-0.7091,-0.7078,-0.6802,-0.6088,-0.6637,-0.6723,-0.5977,-0.6618,-0.7074,-0.7068,-0.7074,-0.7081,-0.7094,-0.6,-0.5455,-0.546,-0.6563,-0.7115,-0.7108,-0.5836,-0.4759,-0.3687,-0.3687,-0.2335,-0.0,-0.0,-0.0,-0.0,-0.0,-0.0,0.0358,0.4026,0.6094,0.7091,0.7061,0.7139,0.7139,-0.7139,-0.7139,-0.7139,-0.7139,-0.7139,-0.7139,-0.7139,-0.7139,-0.7126,-0.7088,-0.7085,-0.7065,-0.7104,-1.0559,-1.1305,-0.7447,-1.0646,-1.1207,-0.7357,-0.7094,-0.7726,-0.8996,-0.9087,-0.936,-1.0,-0.9971,-1.0125,-1.0555,-1.0555,-1.0535,-1.0499,-1.0499,-1.0499,-1.0499,-1.054,-1.0555,-1.0555,-1.0595,-1.0611,-1.0611,-1.0611,-1.0611,-1.0611,-1.0351,-1.0269,-1.0265,-1.0091,-0.9401,-0.8452,-0.7404,-0.7139,-0.7139,-0.7139,-0.7139,-0.7139,-0.7139,-0.7139,-0.7139,-0.7139,-0.7139,-0.7139,-0.7139,-0.7139,-0.7139,-0.7139,-0.7139,-0.7139,-0.7139,-0.7139,-0.7143,-0.7058,-0.7058,-0.7058,-0.7061,-0.7061,-0.7068,-0.7084,-0.6795,-0.6615,-0.7012,-0.6373,-0.573,-0.5275,-0.637,-0.7098,-0.7068,-0.7088,-0.6917,-0.6539,-0.6459,-0.6646,-0.7108,-0.5193,-0.3844,-0.3037,-0.576,-0.7141,-0.7052,-0.6314,-0.3776,-0.0,-0.0,-0.0,-0.0,-0.0,-0.0,0.009,0.0899,0.1256,0.1431,0.3393,0.5366,0.7081,0.7061,0.7139,0.7139,-0.7139,-0.7139,-0.7139,-0.7139,-0.7139,-0.7139,-0.7139,-0.7139,-0.7139,-0.7132,-0.7132,-0.7129,-0.7119,-0.7665,-0.783,-0.7152,-0.7639,-0.7738,-0.7152,-0.7099,-0.721,-0.7394,-0.7394,-0.7485,-0.7573,-0.7447,-0.8304,-1.0401,-1.0401,-1.0393,-1.0208,-1.0208,-1.0208,-1.03,-1.0403,-1.0401,-1.0417,-1.0525,-1.0611,-1.0611,-1.0611,-1.0611,-1.0524,-0.9492,-0.9148,-0.8973,-0.7925,-0.7489,-0.7316,-0.7139,-0.7139,-0.7139,-0.7139,-0.7139,-0.7139,-0.7139,-0.7139,-0.7139,-0.7139,-0.7139,-0.7139,-0.7139,-0.7139,-0.7139,-0.7139,-0.7139,-0.7139,-0.7139,-0.7139,-0.7058,-0.7078,-0.7081,-0.7084,-0.7094,-0.7094,-0.7098,-0.7098,-0.5366,-0.483,-0.6853,-0.3502,-0.2513,-0.6397,-0.6949,-0.7128,-0.7125,-0.7111,-0.6189,-0.4196,-0.4107,-0.5015,-0.7039,-0.6764,-0.4674,-0.0539,-0.4871,-0.7075,-0.7075,-0.2969,-0.0629,-0.0,-0.0,-0.0,-0.0,-0.0,-0.0,0.0359,0.4408,0.6132,0.6215,0.6462,0.6811,0.7081,0.7061,0.7139,0.7139,-0.7139,-0.7139,-0.7139,-0.7139,-0.7139,-0.7139,-0.7139,-0.7139,-0.7139,-0.7139,-0.7139,-0.7139,-0.7139,-0.7139,-0.7132,-0.7112,-0.7129,-0.7132,-0.7112,-0.7129,-0.7139,-0.7139,-0.7139,-0.7014,-0.6934,-0.6873,-0.7256,-0.8208,-0.8313,-0.8325,-0.825,-0.825,-0.825,-0.8254,-0.833,-0.8338,-0.8442,-0.8524,-0.8616,-0.8615,-0.8615,-0.8615,-0.8619,-0.8101,-0.7929,-0.7841,-0.7316,-0.7139,-0.7139,-0.7139,-0.7139,-0.7139,-0.7139,-0.7139,-0.7139,-0.7139,-0.7139,-0.7139,-0.7139,-0.7139,-0.7139,-0.7139,-0.7061,-0.7071,-0.7071,-0.7074,-0.7078,-0.7071,-0.7071,-0.7074,-0.7091,-0.6002,-0.5186,-0.5102,-0.5102,-0.5646,-0.6936,-0.5463,-0.4467,-0.5109,-0.2063,-0.0808,-0.2957,-0.3136,-0.3674,-0.502,-0.6385,-0.6662,-0.5568,-0.3045,-0.2061,-0.3145,-0.3145,-0.2156,-0.0,-0.2069,-0.3153,-0.3151,-0.0989,-0.0,-0.0,-0.0,-0.0,-0.0,-0.0,-0.0,0.0359,0.5133,0.7135,0.7131,0.7098,0.7078,0.7064,0.7143,0.7139,0.7139]},{"header":{"parameterUnit":"m.s-1","parameterCategory":1,"la1":30.6,"la2":28.766,"lo1":-90.7593,"lo2":-88.6598,"dy":0.0162,"dx":0.0183,"nx":116,"ny":114,"refTime":"2023-05-12T06:00:00:Z","depth":0,"parameterNumber":3,"parameterNumberName":"V-component_of_WINDS"},"data":[0.0,0.0,0.0,0.0,0.0,0.0,0.0,0.0,0.0,0.0,0.0,0.0,0.0,0.0,0.0,0.0,0.0,0.0,0.0,0.0,0.0,0.0,0.0,0.0,0.0,0.0,0.0,0.0,0.0,0.0,0.0,0.0,0.0,0.0,0.0,0.0,0.0,0.0,0.0,0.0,0.0,0.0,0.0,0.0,0.0,0.0,0.0,0.0,0.0,0.0,0.0,0.0,0.0,0.0,0.0,0.0,0.0,0.0,0.0,0.0,0.0,0.0,0.0,0.0,0.0,0.0,0.0,0.0,0.0,0.0,0.0,0.0,0.0,0.0,0.0,0.0,0.0,0.0,0.0,0.0,0.0,0.0,0.0,0.0,0.0,0.0,0.0,0.0,0.0,0.0,0.0,0.0,0.0,0.0,0.0,0.0,0.0,0.0,0.0,0.0,0.0,0.0,0.0,0.0,0.0,0.0,0.0,0.0,0.0,0.0,0.0,0.0,0.0,0.0,0.0,0.0,0.0,0.0,0.0,0.0,0.0,0.0,0.0,0.0,0.0,0.0,0.0,0.0,0.0,0.0,0.0,0.0,0.0,0.0,0.0,0.0,0.0,0.0,0.0,0.0,0.0,0.0,0.0,0.0,0.0,0.0,0.0,0.0,0.0,0.0,0.0,0.0,0.0,0.0,0.0,0.0,0.0,0.0,0.0,0.0,0.0,0.0,0.0,0.0,0.0,0.0,0.0,0.0,0.0,0.0,0.0,0.0,0.0,0.0,0.0,0.0,0.0,0.0,0.0,0.0,0.0,0.0,0.0,0.0,0.0,0.0,0.0,0.0,0.0,0.0,0.0,0.0,0.0,0.0,0.0,0.0,0.0,0.0,0.0,0.0,0.0,0.0,0.0,0.0,0.0,0.0,0.0,0.0,0.0,0.0,0.0,0.0,0.0,0.0,0.0,0.0,0.0,0.0,0.0,0.0,0.0,0.0,0.0,0.0,0.0,0.0,0.0,0.0,0.0,0.0,0.0,0.0,0.0,0.0,0.0,0.0,0.0,0.0,0.0,0.0,0.0,0.0,0.0,0.0,0.0,0.0,0.0,0.0,0.0,0.0,0.0,0.0,0.0,0.0,0.0,0.0,0.0,0.0,0.0,0.0,0.0,0.0,0.0,0.0,0.0,0.0,0.0,0.0,0.0,0.0,0.0,0.0,0.0,0.0,0.0,0.0,0.0,0.0,0.0,0.0,0.0,0.0,0.0,0.0,0.0,0.0,0.0,0.0,0.0,0.0,0.0,0.0,0.0,0.0,0.0,0.0,0.0,0.0,0.0,0.0,0.0,0.0,0.0,0.0,0.0,0.0,0.0,0.0,0.0,0.0,0.0,0.0,0.0,0.0,0.0,0.0,0.0,0.0,0.0,0.0,0.0,0.0,0.0,0.0,0.0,0.0,0.0,0.0,0.0,0.0,0.0,0.0,0.0,0.0,0.0,0.0,0.0,0.0,0.0,0.0,0.0,0.0,0.0,0.0,0.0,0.0,0.0,0.0,0.0,0.0,0.0,0.0,0.0,0.0,0.0,0.0,0.0,0.0,0.0,0.0,0.0,0.0,0.0,0.0,0.0,0.0,0.0,0.0,0.0,0.0,0.0,0.0,0.0,0.0,0.0,0.0,0.0,0.0,0.0,0.0,0.0,0.0,0.0,0.0,0.0,0.0,0.0,0.0,0.0,0.0,0.0,0.0,0.0,0.0,0.0,0.0,0.0,0.0,0.0,0.0,0.0,0.0,0.0,0.0,0.0,0.0,0.0,0.0,0.0,0.0,0.0,0.0,0.0,0.0,0.0,0.0,0.0,0.0,0.0,0.0,0.0,0.0,0.0,0.0,0.0,0.0,0.0,0.0,0.0,0.0,0.0,0.0,0.0,0.0,0.0,0.0,0.0,0.0,0.0,0.0,0.0,0.0,0.0,0.0,0.0,0.0,0.0,0.0,0.0,0.0,0.0,0.0,0.0,0.0,0.0,0.0,0.0,0.0,0.0,0.0,0.0,0.0,0.0,0.0,0.0,0.0,0.0,0.0,0.0,0.0,0.0,0.0,0.0,0.0,0.0,0.0,0.0,0.0,0.0,0.0,0.0,0.0,0.0,0.0,0.0,0.0,0.0,0.0,0.0,0.0,0.0,0.0,0.0,0.0,0.0,0.0,0.0,0.0,0.0,0.0,0.0,0.0,0.0,0.0,0.0,0.0,0.0,0.0,0.0,0.0,0.0,0.0,0.0,0.0,0.0,0.0,0.0,0.0,0.0,0.0,0.0,0.0,0.0,0.0,0.0,0.0,0.0,0.0,0.0,0.0,0.0,0.0,0.0,0.0,0.0,0.0,0.0,0.0,0.0,0.0,0.0,0.0,0.0,0.0,0.0,0.0,0.0,0.0,0.0,0.0,0.0,0.0,0.0,0.0,0.0,0.0,0.0,0.0,0.0,0.0,0.0,0.0,0.0,0.0,0.0,0.0,0.0,0.0,0.0,0.0,0.0,0.0,0.0,0.0,0.0,0.0,0.0,0.0,0.0,0.0,0.0,0.0,0.0,0.0,0.0,0.0,0.0,0.0,0.0,0.0,0.0,0.0,0.0,0.0,0.0,0.0,0.0,0.0,0.0,0.0,0.0,0.0,0.0,0.0,0.0,0.0,0.0,0.0,0.0,0.0,0.0,0.0,0.0,0.0,0.0,0.0,0.0,0.0,0.0,0.0,0.0,0.0,0.0,0.0,0.0,0.0,0.0,0.0,0.0,0.0,0.0,0.0,0.0,0.0,0.0,0.0,0.0,0.0,0.0,0.0,0.0,0.0,0.0,0.0,0.0,0.0,0.0,0.0,0.0,0.0,0.0,0.0,0.0,0.0,0.0,0.0,0.0,0.0,0.0,0.0,0.0,0.0,0.0,0.0,0.0,0.0,0.0,0.0,0.0,0.0,0.0,0.0,0.0,0.0,0.0,0.0,0.0,0.0,0.0,0.0,0.0,0.0,0.0,0.0,0.0,0.0,0.0,0.0,0.0,0.0,0.0,0.0,0.0,0.0,0.0,0.0,0.0,0.0,0.0,0.0,0.0,0.0,0.0,0.0,0.0,0.0,0.0,0.0,0.0,0.0,0.0,0.0,0.0,0.0,0.0,0.0,0.0,0.0,0.0,0.0,0.0,0.0,0.0,0.0,0.0,0.0,0.0,0.0,0.0,0.0,0.0,0.0,0.0,0.0,0.0,0.0,0.0,0.0,0.0,0.0,0.0,0.0,0.0,0.0,0.0,0.0,0.0,0.0,0.0,0.0,0.0,0.0,0.0,0.0,0.0,0.0,0.0,0.0,0.0,0.0,0.0,0.0,0.0,0.0,0.0,0.0,0.0,0.0,0.0,0.0,0.0,0.0,0.0,0.0,0.0,0.0,0.0,0.0,0.0,0.0,0.0,0.0,0.0,0.0,0.0,0.0,0.0,0.0,0.0,0.0,0.0,0.0,0.0,0.0,0.0,0.0,0.0,0.0,0.0,0.0,0.0,0.0,0.0,0.0,0.0,0.0,0.0,0.0,0.0,0.0,0.0,0.0,0.0,0.0,0.0,0.0,0.0,0.0,0.0,0.0,0.0,0.0,0.0,0.0,0.0,0.0,0.0,0.0,0.0,0.0,0.0,0.0,0.0,0.0,0.0,0.0,0.0,0.0,0.0,0.0,0.0,0.0,0.0,0.0,0.0,0.0,0.0,0.0,0.0,0.0,0.0,0.0,0.0,0.0,0.0,0.0,0.0,0.0,0.0,0.0,0.0,0.0,0.0,0.0,0.0,0.0,0.0,0.0,0.0,0.0,0.0,0.0,0.0,0.0,0.0,0.0,0.0,0.0,0.0,0.0,0.0,0.0,0.0,0.0,0.0,0.0,0.0,0.0,0.0,0.0,0.0,0.0,0.0,0.0,0.0,0.0,0.0,0.0,0.0,0.0,0.0,0.0,0.0,0.0,0.0,0.0,0.0,0.0,0.0,0.0,0.0,0.0,0.0,0.0,0.0,0.0,0.0,0.0,0.0,0.0,0.0,0.0,0.0,0.0,0.0,0.0,0.0,0.0,0.0,0.0,0.0,0.0,0.0,0.0,0.0,0.0,0.0,0.0,0.0,0.0,0.0,0.0,0.0,0.0,0.0,0.0,0.0,0.0,0.0,0.0,0.0,0.0,0.0,0.0,0.0,0.0,0.0,0.0,0.0,0.0,0.0,0.0,0.0,0.0,0.0,0.0,0.0,0.0,0.0,0.0,0.0,0.0,0.0,0.0,0.0,0.0,0.0,0.0,0.0,0.0,0.0,0.0,0.0,0.0,0.0,0.0,0.0,0.0,0.0,0.0,0.0,0.0,0.0,0.0,0.0,0.0,0.0,0.0,0.0,0.0,0.0,0.0,0.0,0.0,0.0,0.0,0.0,0.0,0.0,0.0,0.0,0.0,0.0,0.0,0.0,0.0,0.0,0.0,0.0,0.0,0.0,0.0,0.0,0.0,0.0,0.0,0.0,0.0,0.0,0.0,0.0,0.0,0.0,0.0,0.0,0.0,0.0,0.0,0.0,0.0,0.0,0.0,0.0,0.0,0.0,0.0,0.0,0.0,0.0,0.0,0.0,0.0,0.0,0.0,0.0,0.0,0.0,0.0,0.0,0.0,0.0,0.0,0.0,0.0,0.0,0.0,0.0,0.0,0.0,0.0,0.0,0.0,0.0,0.0,0.0,0.0,0.0,0.0,0.0,0.0,0.0,0.0,0.0,0.0,0.0,0.0,0.0,0.0,0.0,0.0,0.0,0.0,0.0,0.0,0.0,0.0,0.0,0.0,0.0,0.0,0.0,0.0,0.0,0.0,0.0,0.0,0.0,0.0,0.0,0.0,0.0,0.0,0.0,0.0,0.0,0.0,0.0,0.0,0.0,0.0,0.0,0.0,0.0,0.0,0.0,0.0,0.0,0.0,0.0,0.0,0.0,0.0,0.0,0.0,0.0,0.0,0.0,0.0,0.0,0.0,0.0,0.0,0.0,0.0,0.0,0.0,0.0,0.0,0.0,0.0,0.0,0.0,0.0,0.0,0.0,0.0,0.0,0.0,0.0,0.0,0.0,0.0,0.0,0.0,0.0,0.0,0.0,0.0,0.0,0.0,0.0,0.0,0.0,0.0,0.0,0.0,0.0,0.0,0.0,0.0,0.0,0.0,0.0,0.0,0.0,0.0,0.0,0.0,0.0,0.0,0.0,0.0,0.0,0.0,0.0,0.0,0.0,0.0,0.0,0.0,0.0,0.0,0.0,0.0,0.0,0.0,0.0,0.0,0.0,0.0,0.0,0.0,0.0,0.0,0.0,0.0,0.0,0.0,0.0,0.0,0.0,0.0,0.0,0.0,0.0,0.0,0.0,0.0,0.0,0.0,0.0,0.0,0.0,0.0,0.0,0.0,0.0,0.0,0.0,0.0,0.0,0.0,0.0,0.0,0.0,0.0,0.0,0.0,0.0,0.0,0.0,0.0,0.0,0.0,0.0,0.0,0.0,0.0,0.0,0.0,0.0,0.0,0.0,0.0,0.0,0.0,0.0,0.0,0.0,0.0,0.0,0.0,0.0,0.0,0.0,0.0,0.0,0.0,0.0,0.0,0.0,0.0,0.0,0.0,0.0,0.0,0.0,0.0,0.0,0.0,0.0,0.0,0.0,0.0,0.0,0.0,0.0,0.0,0.0,0.0,0.0,0.0,0.0,0.0,0.0,0.0,0.0,0.0,0.0,0.0,0.0,0.0,0.0,0.0,0.0,0.0,0.0,0.0,0.0,0.0,0.0,0.0,0.0,0.0,0.0,0.0,0.0,0.0,0.0,0.0,0.0,0.0,0.0,0.0,0.0,0.0,0.0,0.0,0.0,0.0,0.0,0.0,0.0,0.0,0.0,0.0,0.0,0.0,0.0,0.0,0.0,0.0,0.0,0.0,0.0,0.0,0.0,0.0,0.0,0.0,0.0,0.0,0.0,0.0,0.0,0.0,0.0,0.0,0.0,0.0,0.0,0.0,0.0,0.0,0.0,0.0,0.0,0.0,0.0,0.0,-2.2718,-2.2555,0.0,0.0,0.0,0.0,0.0,0.0,0.0,0.0,0.0,0.0,0.0,0.0,0.0,0.0,0.0,0.0,0.0,0.0,0.0,0.0,0.0,0.0,0.0,0.0,0.0,0.0,0.0,0.0,0.0,0.0,0.0,0.0,0.0,0.0,0.0,0.0,0.0,0.0,0.0,0.0,0.0,0.0,0.0,0.0,0.0,0.0,0.0,0.0,0.0,0.0,0.0,0.0,0.0,0.0,0.0,0.0,0.0,0.0,0.0,0.0,0.0,0.0,0.0,0.0,0.0,0.0,0.0,0.0,0.0,0.0,0.0,0.0,0.0,0.0,0.0,0.0,0.0,0.0,0.0,0.0,0.0,0.0,0.0,0.0,0.0,0.0,0.0,0.0,0.0,0.0,0.0,0.0,0.0,0.0,0.0,0.0,0.0,0.0,0.0,0.0,0.0,0.0,0.0,0.0,0.0,0.0,0.0,0.0,0.0,0.0,0.0,0.0,0.0,0.0,-2.2183,-2.243,0.0,0.0,0.0,0.0,0.0,0.0,0.0,0.0,0.0,0.0,0.0,0.0,0.0,0.0,0.0,0.0,0.0,0.0,0.0,0.0,0.0,0.0,0.0,0.0,0.0,0.0,0.0,0.0,0.0,0.0,0.0,0.0,0.0,0.0,0.0,0.0,0.0,0.0,0.0,0.0,0.0,0.0,0.0,0.0,0.0,0.0,0.0,0.0,0.0,0.0,0.0,0.0,0.0,0.0,0.0,0.0,0.0,0.0,0.0,0.0,0.0,0.0,0.0,0.0,0.0,0.0,0.0,0.0,0.0,0.0,0.0,0.0,0.0,0.0,0.0,0.0,0.0,0.0,0.0,0.0,0.0,0.0,0.0,0.0,0.0,0.0,0.0,0.0,0.0,0.0,0.0,0.0,0.0,0.0,0.0,0.0,0.0,0.0,0.0,0.0,0.0,0.0,0.0,0.0,0.0,0.0,0.0,0.0,-1.9756,-1.9786,-1.9786,-1.9786,-2.0845,-2.2684,-2.1871,-2.2646,-2.4366,-2.3556,0.0,0.0,0.0,0.0,0.0,0.0,0.0,0.0,0.0,0.0,0.0,0.0,0.0,0.0,0.0,0.0,0.0,0.0,0.0,0.0,0.0,0.0,0.0,0.0,0.0,0.0,0.0,0.0,0.0,0.0,0.0,0.0,0.0,0.0,0.0,0.0,0.0,0.0,-3.3636,-3.3429,-3.328,-3.3148,-3.2761,0.0,0.0,0.0,0.0,0.0,0.0,0.0,0.0,0.0,0.0,0.0,0.0,0.0,0.0,0.0,0.0,0.0,0.0,0.0,0.0,0.0,0.0,0.0,0.0,0.0,0.0,0.0,0.0,0.0,0.0,0.0,0.0,0.0,0.0,0.0,0.0,0.0,0.0,0.0,0.0,0.0,0.0,0.0,-2.2061,-2.1636,0.0,0.0,0.0,0.0,0.0,0.0,0.0,0.0,0.0,0.0,0.0,0.0,0.0,-1.9228,-1.9287,-2.0502,-2.1126,-2.1126,-2.1447,-2.1634,-2.1634,-2.1634,-2.1816,-2.2232,-2.3804,0.0,-2.5386,-2.5303,0.0,0.0,0.0,0.0,0.0,0.0,0.0,0.0,0.0,0.0,0.0,0.0,0.0,0.0,0.0,0.0,0.0,0.0,0.0,0.0,0.0,0.0,0.0,0.0,0.0,0.0,0.0,0.0,0.0,0.0,0.0,0.0,0.0,0.0,0.0,0.0,-3.1092,-3.2362,-3.3353,-3.3373,-3.3558,-3.384,-3.3884,-3.317,-3.1933,-3.1933,0.0,0.0,0.0,0.0,0.0,0.0,0.0,0.0,0.0,0.0,0.0,0.0,0.0,0.0,0.0,0.0,0.0,0.0,0.0,0.0,0.0,0.0,0.0,0.0,0.0,0.0,0.0,0.0,0.0,0.0,0.0,0.0,0.0,0.0,0.0,0.0,0.0,0.0,0.0,-1.9796,-1.9761,-2.0063,-1.9877,-1.9505,0.0,0.0,0.0,0.0,0.0,0.0,0.0,0.0,0.0,-1.9619,-1.9639,-1.9756,-2.0,-2.0631,-2.0939,-2.0939,-2.1141,-2.1221,-2.1221,-2.1735,-2.2328,-2.2925,-2.4337,-2.5448,-2.605,-2.5737,-2.5322,-2.487,0.0,0.0,0.0,0.0,-2.4456,-2.4544,0.0,0.0,0.0,0.0,0.0,0.0,0.0,0.0,0.0,0.0,0.0,0.0,0.0,0.0,0.0,-2.789,0.0,0.0,0.0,0.0,0.0,0.0,0.0,0.0,0.0,0.0,0.0,0.0,-3.0841,-3.1748,-3.2801,-3.3074,-3.3399,-3.3802,-3.4259,-3.3721,-3.243,-3.243,-3.1977,0.0,0.0,0.0,0.0,0.0,0.0,0.0,0.0,0.0,0.0,0.0,0.0,0.0,0.0,0.0,0.0,0.0,0.0,0.0,0.0,0.0,0.0,0.0,0.0,0.0,0.0,0.0,0.0,0.0,0.0,0.0,0.0,0.0,0.0,0.0,0.0,0.0,0.0,-1.8118,-1.827,-1.8885,-1.8596,-1.8359,0.0,0.0,0.0,0.0,0.0,0.0,-1.9443,-1.9443,-1.9648,-2.0068,-2.0078,-2.0234,-2.0634,-2.0566,-2.0566,-2.0566,-2.0566,-2.0712,-2.1011,-2.1962,-2.2925,-2.3963,-2.4933,-2.5804,-2.6496,-2.6,-2.5724,-2.5561,-2.5172,-2.4946,-2.4845,-2.4971,-2.5021,-2.5096,0.0,0.0,0.0,0.0,0.0,0.0,0.0,0.0,0.0,0.0,0.0,0.0,0.0,0.0,-2.7619,-2.7879,-2.789,-2.7909,0.0,0.0,0.0,0.0,0.0,0.0,0.0,0.0,0.0,-3.0367,-3.0747,-3.1355,-3.226,-3.2511,-3.264,-3.2713,-3.3511,-3.3653,-3.3334,-3.3334,-3.2864,-3.2053,0.0,0.0,0.0,0.0,0.0,0.0,0.0,0.0,0.0,0.0,0.0,0.0,0.0,0.0,0.0,0.0,0.0,0.0,0.0,0.0,0.0,0.0,0.0,0.0,0.0,0.0,0.0,0.0,0.0,0.0,0.0,0.0,0.0,0.0,0.0,0.0,0.0,0.0,0.0,-1.8075,-1.8787,0.0,0.0,0.0,0.0,-1.9219,-1.9277,-1.9463,-1.9863,-1.9883,-2.0078,-2.0518,-2.0527,-2.0547,-2.0566,-2.0566,-2.0566,-2.0566,-2.0566,-2.1088,-2.1952,-2.2999,-2.3963,-2.5004,-2.6025,-2.6452,-2.6533,-2.6496,-2.6088,-2.5598,-2.5573,-2.5259,-2.4883,-2.5372,-2.5548,-2.5636,0.0,0.0,0.0,0.0,0.0,0.0,0.0,0.0,0.0,0.0,0.0,0.0,0.0,-2.821,-2.8578,-2.9199,-2.9409,-2.9275,-2.8744,0.0,0.0,0.0,0.0,0.0,0.0,0.0,-2.9379,-2.9962,-3.0065,-3.0395,-3.0902,-3.1004,-3.1329,-3.1861,-3.2669,-3.2981,-3.2919,-3.3438,-3.3178,-3.2446,-3.2433,-3.1745,0.0,0.0,0.0,0.0,0.0,0.0,0.0,0.0,0.0,0.0,0.0,0.0,0.0,0.0,0.0,0.0,0.0,0.0,0.0,0.0,0.0,0.0,0.0,0.0,0.0,0.0,0.0,0.0,0.0,0.0,0.0,0.0,0.0,0.0,0.0,0.0,0.0,-1.7959,-1.8269,0.0,-1.8428,-1.8574,-1.8818,-1.9248,-1.9541,-1.9883,-2.0312,-2.0332,-2.041,-2.0557,-2.0566,-2.0566,-2.0566,-2.0566,-2.0566,-2.0566,-2.0566,-2.1078,-2.2027,-2.3073,-2.4036,-2.5087,-2.6094,-2.6533,-2.6533,-2.6533,-2.6339,-2.6151,-2.6151,-2.6038,-2.59,-2.6088,-2.6151,-2.6189,0.0,0.0,0.0,0.0,0.0,0.0,0.0,0.0,0.0,0.0,0.0,-2.7087,-2.8506,-2.8939,-2.9349,-2.9942,-3.0254,-3.016,-2.9583,0.0,0.0,0.0,0.0,0.0,0.0,-2.939,-2.9666,-2.9946,-2.9782,-2.9814,-3.0046,-3.0157,-3.0485,-3.1017,-3.1843,-3.239,-3.2766,-3.3308,-3.3382,-3.3148,-3.3138,-3.2486,-3.1499,0.0,0.0,0.0,0.0,0.0,0.0,0.0,0.0,0.0,0.0,0.0,0.0,0.0,0.0,0.0,0.0,0.0,0.0,0.0,0.0,0.0,0.0,0.0,0.0,0.0,0.0,0.0,0.0,0.0,0.0,0.0,0.0,0.0,0.0,-1.7109,-1.749,-1.7764,-1.793,-1.8066,-1.8213,-1.8467,-1.8818,-1.9248,-1.9541,-1.9893,-2.0322,-2.0342,-2.041,-2.0557,-2.0566,-2.0566,-2.0566,-2.0566,-2.0566,-2.0566,-2.0566,-2.1308,-2.2553,-2.322,-2.4253,-2.5511,-2.6233,-2.6533,-2.6533,-2.6533,-2.6533,-2.6533,-2.6533,-2.6533,-2.6533,-2.6533,-2.6533,-2.6533,0.0,0.0,0.0,0.0,0.0,0.0,0.0,0.0,0.0,0.0,-2.6704,-2.7514,-2.8341,-2.9187,-2.978,-2.9984,-3.0241,-3.0379,-3.0359,-2.9694,0.0,0.0,0.0,0.0,-2.9248,-3.0006,-3.0398,-3.0398,-2.9927,-2.9713,-2.9715,-3.0027,-3.0178,-3.0215,-3.1023,-3.1972,-3.2956,-3.2993,-3.3455,-3.4083,-3.3087,-3.298,-3.3165,0.0,0.0,0.0,0.0,0.0,0.0,0.0,0.0,0.0,0.0,0.0,0.0,0.0,0.0,0.0,0.0,0.0,0.0,0.0,0.0,0.0,0.0,0.0,0.0,0.0,0.0,0.0,0.0,0.0,0.0,0.0,0.0,0.0,-1.6807,-1.7129,-1.7402,-1.7402,-1.7764,-1.8164,-1.8504,-1.8553,-1.8799,-1.9238,-1.9277,-1.9473,-1.9893,-1.9922,-2.0127,-2.0557,-2.0566,-2.0566,-2.0566,-2.0566,-2.0566,-2.0566,-2.0644,-2.168,-2.3514,-2.3514,-2.4624,-2.6533,-2.6533,-2.6533,-2.6533,-2.6533,-2.6533,-2.6533,-2.6533,-2.6521,-2.6521,-2.6521,-2.6521,-2.6589,0.0,0.0,0.0,0.0,0.0,0.0,0.0,0.0,0.0,0.0,-2.6945,-2.7531,-2.897,-2.9475,-2.9731,-2.978,-3.0155,-3.014,-2.9506,0.0,0.0,0.0,0.0,0.0,-3.0133,-3.0371,-3.0349,-3.0103,-2.9969,-2.9845,-2.9696,-2.9795,-2.9832,-2.9869,-3.0693,-3.1202,-3.1561,-3.2763,-3.3421,-3.3686,-3.4205,-3.4017,-3.3355,0.0,0.0,0.0,0.0,0.0,0.0,0.0,0.0,0.0,0.0,0.0,0.0,0.0,0.0,0.0,0.0,0.0,0.0,0.0,0.0,0.0,0.0,0.0,0.0,0.0,0.0,0.0,0.0,0.0,0.0,0.0,-1.7012,-1.7344,-1.7227,-1.7568,-1.7842,-1.7842,-1.7939,-1.8057,-1.8164,-1.8184,-1.8359,-1.8789,-1.9111,-1.9473,-1.9893,-2.0215,-2.0439,-2.0634,-2.0566,-2.0566,-2.0566,-2.0566,-2.0566,-2.0644,-2.1298,-2.2264,-2.3514,-2.4264,-2.5288,-2.6533,-2.6533,-2.6533,-2.6533,-2.6533,-2.6533,-2.6533,-2.6533,-2.685,-2.7351,-2.7351,-2.7802,-2.8247,0.0,0.0,0.0,0.0,0.0,0.0,0.0,0.0,0.0,0.0,-2.6767,-2.7237,-2.8809,-2.9198,-2.9323,-2.9323,-2.957,-2.9468,-2.8899,0.0,0.0,0.0,0.0,-2.9647,-3.0529,-3.053,-3.0439,-3.0221,-3.0144,-3.0009,-2.9829,-2.9748,-2.9696,-2.9715,-3.0186,-3.0655,-3.1174,-3.254,-3.3371,-3.3872,-3.492,-3.4854,-3.4073,-3.3747,-3.3329,-3.2802,-3.2184,-3.1672,-3.1218,-3.0803,0.0,0.0,0.0,0.0,0.0,0.0,0.0,0.0,0.0,0.0,0.0,0.0,0.0,0.0,0.0,0.0,0.0,0.0,0.0,0.0,0.0,0.0,0.0,0.0,-1.7363,-1.7646,-1.7646,-1.7852,-1.8008,-1.8008,-1.8008,-1.8008,-1.8008,-1.8164,-1.8379,-1.8553,-1.9043,-1.9473,-1.9893,-2.0156,-2.0381,-2.0557,-2.0566,-2.0566,-2.0566,-2.0566,-2.0789,-2.1155,-2.1735,-2.2776,-2.412,-2.4707,-2.5523,-2.6533,-2.6533,-2.6533,-2.6521,-2.685,-2.6973,0.0,0.0,0.0,0.0,0.0,-2.8556,-2.8939,0.0,0.0,0.0,0.0,0.0,0.0,0.0,0.0,0.0,0.0,0.0,-2.6813,-2.817,-2.8573,-2.8714,-2.8622,-2.8668,-2.8601,0.0,0.0,0.0,-2.8924,-2.924,-2.9761,-3.0546,-3.0587,-3.0565,-3.0513,-3.0325,-3.0171,-3.0047,-2.988,-2.9782,-2.9801,-2.9782,-3.0314,-3.1278,-3.2203,-3.3216,-3.4263,-3.5175,-3.5398,-3.5064,-3.4035,-3.3802,-3.3875,-3.2893,-3.2483,-3.2316,-3.173,0.0,0.0,0.0,0.0,0.0,0.0,0.0,0.0,0.0,0.0,0.0,0.0,0.0,0.0,0.0,0.0,0.0,0.0,0.0,0.0,0.0,0.0,0.0,0.0,-1.7734,-1.8008,-1.8008,-1.8008,-1.8008,-1.8008,-1.8008,-1.8027,-1.8076,-1.8418,-1.8652,-1.863,-1.9111,-1.9521,-1.9893,-1.9961,0.0,0.0,0.0,-2.0634,-2.0789,-2.0789,-2.1221,-2.2178,-2.2253,-2.3294,-2.5004,-2.5158,-2.5664,-2.6533,-2.6533,-2.6533,-2.6589,-2.7351,-2.7802,-2.7986,-2.7986,-2.7986,-2.8117,-2.8939,-2.9254,-2.9254,0.0,0.0,0.0,0.0,0.0,0.0,0.0,0.0,0.0,-2.6149,-2.6085,-2.6561,-2.7842,-2.819,-2.8087,-2.7477,-2.782,-2.7899,0.0,0.0,-2.8385,-2.8674,-2.9536,-3.0133,-3.0355,-3.0527,-3.0595,-3.0574,-3.0539,-3.0501,-3.0477,-3.0382,-3.0369,-3.0427,-3.0369,-3.0478,-3.0784,-3.1693,-3.2568,-3.3483,-3.4381,-3.5076,-3.5566,-3.5345,-3.5288,-3.5259,-3.4793,-3.4189,-3.3578,-3.3148,-3.2435,-3.1615,-3.106,0.0,0.0,0.0,0.0,0.0,0.0,0.0,0.0,0.0,0.0,0.0,0.0,0.0,0.0,0.0,0.0,0.0,0.0,0.0,0.0,-1.7373,-1.7734,-1.8008,-1.8008,-1.8008,-1.8008,-1.8008,-1.8008,-1.8144,-1.8486,-1.8523,-1.8789,-1.9131,-1.9551,-1.9824,-1.9912,-2.0244,-2.0478,-2.0566,-2.0566,-2.0934,-2.1735,-2.1735,-2.2264,-2.322,0.0,0.0,-2.5016,-2.5873,-2.6314,-2.6533,-2.6533,-2.6533,-2.6589,-2.7351,-2.8556,-2.9827,-2.9827,-2.9827,-2.9889,-3.0718,-3.1029,-3.0896,0.0,0.0,0.0,0.0,0.0,0.0,0.0,0.0,0.0,0.0,-2.5643,-2.5554,-2.6597,-2.6667,-2.6535,-2.6315,-2.67,0.0,0.0,-2.7643,-2.8316,-2.8967,-2.9642,-3.0032,-3.0053,-3.03,-3.0431,-3.0407,-3.0509,-3.0531,-3.0502,-3.0501,-3.0508,-3.0508,-3.0508,-3.0508,-3.0567,-3.1468,-3.2369,-3.329,-3.4186,-3.5072,-3.5843,-3.5746,-3.5707,-3.5688,-3.5514,-3.5172,-3.474,-3.4423,-3.3828,-3.3112,-3.2377,-3.1967,-3.1393,0.0,0.0,0.0,0.0,0.0,0.0,0.0,0.0,0.0,0.0,0.0,0.0,0.0,0.0,-1.9547,-1.8949,0.0,-1.7946,-1.7723,-1.7871,-1.8008,-1.8008,-1.8008,-1.8008,-1.8008,-1.8008,-1.8174,-1.8523,-1.8828,-1.9141,-1.957,-2.0,-2.0244,-2.0244,-2.0449,-2.0789,-2.1298,-2.1298,-2.1745,-2.2776,-2.2776,-2.3294,-2.4264,-2.4779,-2.5229,-2.5734,-2.6245,-2.6533,-2.6521,-2.6905,-2.7095,-2.7229,-2.8492,-2.9766,-3.0896,-3.0896,-3.0896,-3.097,-3.1351,-3.1482,-3.1422,0.0,0.0,0.0,0.0,0.0,0.0,0.0,0.0,0.0,0.0,0.0,-2.4733,-2.527,-2.5167,-2.5115,0.0,0.0,0.0,0.0,-2.7284,-2.8086,-2.9086,-2.9347,-2.9512,-2.951,-2.9824,-3.0008,-3.0037,-3.0215,-3.0286,-3.0294,-3.039,-3.0428,-3.0386,-3.0466,-3.0482,-3.0489,-3.1253,-3.2206,-3.3263,-3.4023,-3.4987,-3.5927,-3.5752,-3.5714,-3.5752,-3.5733,-3.5698,-3.5623,-3.5374,-3.5054,-3.4642,-3.3636,-3.304,-3.2284,-3.0324,-2.9844,0.0,0.0,0.0,0.0,0.0,0.0,0.0,0.0,-2.294,-2.2573,-2.1962,-2.1095,-2.0309,-1.9969,-1.9105,-1.8359,-1.8085,-1.8008,-1.8008,-1.8008,-1.8008,-1.8008,-1.8008,-1.8008,-1.8213,-1.8711,-1.9082,-1.9502,-2.0,-2.0361,-2.0566,-2.0566,-2.0789,-2.1231,-2.1962,-2.2178,-2.2776,-2.3818,-2.3818,-2.4337,-2.53,-2.53,-2.5734,-2.6521,-2.6544,-2.6549,-2.6616,-2.7367,-2.7878,-2.815,-2.9648,-3.0777,-3.1467,-3.139,-3.1345,-3.1287,-3.1422,-3.1392,-3.1255,0.0,0.0,0.0,0.0,0.0,0.0,0.0,0.0,0.0,0.0,0.0,0.0,0.0,0.0,0.0,0.0,0.0,0.0,-2.5643,-2.7041,-2.7931,-2.8075,-2.8286,-2.8395,-2.8471,-2.8736,-2.9081,-2.9493,-2.9507,-2.9671,-2.9962,-3.0153,-3.0269,-3.0316,-3.0431,-3.0535,-3.0586,-3.0683,-3.1688,-3.3198,-3.3317,-3.4311,-3.5738,-3.5699,-3.5818,-3.5956,-3.5897,-3.5876,-3.5837,-3.5626,-3.5369,-3.5074,-3.4642,-3.3786,-3.2593,-3.0779,-2.974,-2.8762,-2.6621,-2.5837,-2.5691,-2.6086,-2.5435,-2.4782,0.0,-2.4177,-2.3244,-2.3001,-2.1687,-2.0572,-2.0501,-1.9159,-1.8017,-1.8008,-1.8008,-1.8008,-1.8008,-1.8008,-1.8008,-1.8008,-1.8008,-1.833,-1.9131,-1.9258,-1.9619,-2.043,-2.0537,-2.0566,-2.0566,-2.1375,-2.1886,-2.2027,-2.285,-2.3818,-2.4791,-2.4862,-2.537,-2.6314,-2.6314,-2.6383,-2.6508,-2.662,-2.6674,-2.6751,-2.7566,-2.8385,-2.9166,-2.9964,-3.0777,-3.1422,-3.0851,-3.0612,-3.0687,-3.13,-3.115,-3.0612,0.0,0.0,0.0,0.0,0.0,0.0,0.0,0.0,0.0,0.0,0.0,0.0,0.0,0.0,0.0,0.0,0.0,0.0,-2.5073,-2.6086,-2.6766,-2.6954,-2.7362,-2.7571,-2.7601,-2.8144,-2.8511,-2.8703,-2.8857,-2.8996,-2.9148,-2.9474,-2.9497,-2.9345,-2.9855,-2.9966,-2.9739,-2.9984,-3.1081,-3.2684,-3.2678,-3.3703,-3.523,-3.523,-3.5008,-3.47,-3.4978,-3.5086,0.0,0.0,-3.472,-3.4419,-3.4286,-3.3658,-3.2678,-3.0962,-3.0143,-2.9474,-2.8189,-2.7163,-2.6533,-2.6958,-2.6408,-2.5736,-2.5493,-2.4692,-2.393,-2.3813,-2.2847,-2.1741,-2.0782,-2.0009,-1.9177,-1.8134,-1.8008,-1.8008,-1.8008,-1.8008,-1.8008,-1.8008,-1.8223,-1.8613,-1.9228,-1.9512,-1.9902,-2.0518,-2.0566,-2.0566,-2.0566,-2.1517,-2.2253,-2.285,-2.3818,-2.485,-2.5873,-2.5873,-2.6346,-2.7229,-2.6814,-2.6909,-2.7338,-2.7028,-2.7176,-2.7672,-2.7998,-2.8656,-2.9525,-2.979,-3.0093,-3.0372,-3.0088,-2.9968,-2.9998,-3.0298,-3.0223,-2.9909,0.0,0.0,0.0,0.0,0.0,0.0,0.0,0.0,0.0,0.0,0.0,0.0,0.0,0.0,0.0,0.0,0.0,0.0,0.0,-2.5046,-2.5478,-2.5721,-2.6101,-2.6202,-2.6067,-2.6588,-2.6969,-2.7245,-2.7457,-2.77,-2.7954,-2.8351,-2.8421,-2.8306,-2.8975,-2.9142,-2.8994,-2.9364,-3.0526,-3.2108,-3.2238,-3.3318,-3.4807,-3.4582,-3.4112,-3.3691,-3.4206,-3.4249,0.0,0.0,-3.3925,-3.3682,-3.3554,-3.3061,-3.2274,-3.0841,-3.002,-2.9474,-2.909,-2.8158,-2.738,-2.7677,-2.7301,-2.6693,-2.5944,-2.536,-2.4845,-2.4359,-2.3636,-2.2592,-2.091,-2.0398,-1.9759,-1.8269,-1.8008,-1.8008,-1.8008,-1.8008,-1.8008,-1.8008,-1.8379,-1.8809,-1.9248,-1.9668,-2.0098,-2.0527,-2.0566,-2.0712,-2.1011,-2.1886,-2.285,-2.3891,-2.485,-2.5861,-2.685,-2.6616,-2.6984,-2.7798,-2.712,-2.709,-2.7693,-2.7312,-2.747,-2.81,-2.8289,-2.8723,-2.9325,-2.9505,-2.9579,-2.9564,-2.9385,-2.931,-2.928,-2.9101,-2.9146,-2.9235,0.0,0.0,0.0,0.0,0.0,0.0,0.0,0.0,0.0,0.0,0.0,0.0,0.0,0.0,0.0,0.0,0.0,0.0,0.0,-2.4064,-2.4249,-2.4269,-2.4284,-2.3994,-2.3435,-2.342,-2.3912,-2.4912,-2.4912,-2.5425,-2.6368,-2.6644,-2.7,-2.7457,-2.7715,-2.8136,-2.864,-2.8994,-3.0085,-3.1659,-3.2052,-3.3204,-3.46,-3.377,-3.3431,-3.3469,-3.3944,0.0,0.0,0.0,-3.318,-3.3146,-3.269,-3.2039,-3.1264,-3.0315,-2.905,-2.8041,-2.8323,-2.807,-2.7802,-2.8169,-2.7922,-2.7378,-2.664,-2.6481,-2.604,-2.4624,-2.3644,-2.2518,-2.0887,-1.9879,-1.9044,-1.8144,-1.8008,-1.8008,-1.8008,-1.8008,-1.8008,-1.8008,-1.8379,-1.8809,-1.9248,-1.9668,-2.0098,-2.0527,-2.0566,-2.1011,-2.1886,-2.2925,-2.3891,-2.4933,-2.5955,-2.6837,-2.767,-2.7026,-2.7107,-2.7996,-2.7303,-2.7001,-2.7047,-2.7188,-2.7438,-2.7664,-2.8286,-2.8637,-2.8682,-2.9325,-2.9579,-2.952,-2.8876,-2.8622,-2.8547,-2.7874,-2.8053,-2.8622,0.0,0.0,0.0,0.0,0.0,0.0,0.0,0.0,0.0,0.0,0.0,0.0,0.0,0.0,0.0,0.0,0.0,0.0,0.0,-2.2393,-2.2554,-2.2536,-2.2876,-2.2995,-2.2761,-2.3124,-2.3477,-2.382,-2.382,-2.42,-2.491,-2.5248,-2.5603,-2.5979,-2.6939,-2.7554,-2.8019,-2.9016,-3.0367,-3.1916,-3.2317,-3.2789,-3.3276,-3.298,-3.2201,-3.1321,0.0,0.0,0.0,0.0,-3.2252,-3.2241,-3.2131,-3.1754,-3.1087,-2.9795,-2.9352,-2.9321,-2.9382,-2.9248,-2.9065,-2.9049,-2.8592,-2.8042,-2.7393,-2.6826,-2.6229,-2.5231,-2.3725,-2.2036,-2.0449,-1.9403,-1.8589,-1.7721,-1.7832,-1.8008,-1.8008,-1.8008,-1.8008,-1.8008,-1.8379,-1.8809,-1.9248,-1.9668,-2.0381,-2.1486,-2.1517,-2.1962,-2.2925,-2.3963,-2.4636,-2.5016,-2.5586,-2.6263,-2.7,-2.6485,-2.6877,-2.8222,-2.8107,-2.7806,-2.7423,-2.7483,-2.755,-2.7625,-2.7814,-2.7919,-2.7934,-2.8158,-2.849,-2.8863,-2.8633,-2.8771,-2.9092,-2.8858,-2.892,-2.9028,0.0,0.0,0.0,0.0,0.0,0.0,0.0,0.0,0.0,0.0,0.0,0.0,0.0,0.0,0.0,0.0,0.0,0.0,0.0,0.0,-2.0955,-2.0762,-2.1114,-2.1192,-2.0978,-2.1285,-2.1554,-2.1816,-2.2017,-2.2411,-2.3014,-2.347,-2.3994,-2.4625,-2.5721,-2.6643,-2.7496,-2.8432,-2.9733,-3.1171,-3.142,-3.1699,-3.1981,-3.181,-3.1109,0.0,0.0,0.0,0.0,0.0,-3.1197,-3.1234,-3.1337,-3.1145,-3.0791,-3.0117,-3.0073,-3.0318,-3.0702,-3.0427,-2.9956,-2.9668,-2.9223,-2.8591,-2.781,-2.7393,-2.6938,-2.6,-2.4353,-2.2483,-2.044,-1.9499,-1.8501,-1.6938,-1.7168,-1.7549,-1.7549,-1.7549,-1.7666,-1.7978,-1.8252,-1.8584,-1.9014,-1.9443,-2.0222,-2.14,-2.1811,-2.2403,-2.3452,-2.448,-2.5063,-2.5232,-2.5682,-2.6311,-2.6899,-2.6539,-2.697,-2.8035,-2.8203,-2.8008,-2.7625,-2.7625,-2.7625,-2.761,-2.781,-2.7894,-2.7959,-2.8174,-2.8448,-2.8826,-2.8826,-2.9042,-2.9406,-2.9406,-2.9406,-2.9271,0.0,0.0,0.0,0.0,0.0,0.0,0.0,0.0,0.0,0.0,0.0,0.0,0.0,0.0,0.0,0.0,0.0,0.0,0.0,0.0,0.0,-1.9096,-1.9059,-1.878,-1.8157,-1.8157,-1.8448,-1.9027,-1.9561,-2.0214,-2.0813,-2.1305,-2.2249,-2.3432,-2.4088,-2.5399,-2.7102,-2.7372,-2.8322,-2.9619,-2.9658,-3.0125,-3.0767,-3.0337,0.0,0.0,0.0,0.0,0.0,-2.9845,-3.0112,-3.0301,-3.047,-3.0449,-3.049,-3.1268,-3.1178,-3.1075,-3.2133,-3.1494,-3.047,-3.0135,-2.9762,-2.9164,-2.7978,-2.8076,-2.8094,-2.6672,-2.5311,-2.3514,-2.0748,-1.9828,-1.8653,-1.5889,-1.6191,-1.6797,-1.6797,-1.6797,-1.71,-1.791,-1.8008,-1.8174,-1.8523,-1.9014,-1.9674,-2.0507,-2.1497,-2.2531,-2.3554,-2.4517,-2.522,-2.5627,-2.6259,-2.6796,-2.7211,-2.7272,-2.7394,-2.7625,-2.7625,-2.7625,-2.7625,-2.7625,-2.7675,-2.766,-2.8271,-2.8559,-2.8606,-2.918,-2.9406,-2.9451,-2.9451,-2.9451,-2.9496,-2.9496,-2.9496,-2.9496,0.0,0.0,0.0,0.0,0.0,0.0,0.0,0.0,0.0,0.0,0.0,0.0,0.0,0.0,0.0,0.0,0.0,0.0,0.0,0.0,0.0,0.0,0.0,0.0,0.0,0.0,0.0,0.0,0.0,-1.8507,-1.957,-1.9718,-2.0695,-2.2337,-2.2852,-2.4374,-2.6555,-2.732,-2.8391,-2.9671,0.0,-3.0168,-2.9576,0.0,0.0,0.0,0.0,0.0,-2.9181,-2.9606,-3.0357,-3.1234,-3.2008,-3.2335,-3.2446,-3.2506,-3.266,-3.277,-3.265,-3.2566,-3.2293,-3.1422,-3.083,-3.0195,-2.9003,-2.8576,-2.7834,-2.5508,-2.337,-2.1219,-1.8958,-1.7741,-1.6832,-1.6087,-1.6941,-1.7686,-1.7686,-1.7686,-1.7764,-1.7988,-1.8008,-1.8174,-1.8523,-1.9274,-1.998,-2.0555,-2.2155,-2.3709,-2.4973,-2.5314,-2.5589,-2.5842,-2.5612,-2.608,-2.7244,-2.7471,-2.7571,-2.7625,-2.7625,-2.7625,-2.7625,-2.8042,-2.8286,-2.8319,-2.8919,-2.918,-2.918,-2.9316,-2.9673,-3.0081,-3.0081,-3.0351,-3.074,-3.074,-3.074,-3.074,0.0,0.0,0.0,0.0,0.0,0.0,0.0,0.0,0.0,0.0,0.0,0.0,0.0,0.0,0.0,0.0,0.0,0.0,0.0,0.0,0.0,0.0,0.0,0.0,0.0,0.0,0.0,0.0,0.0,0.0,0.0,-1.9206,-2.0295,-2.1835,-2.2422,-2.4018,-2.6318,-2.6836,0.0,0.0,0.0,0.0,0.0,0.0,0.0,0.0,0.0,0.0,-2.966,-3.0509,-3.1191,-3.1847,-3.2673,-3.2986,-3.3098,-3.3428,-3.3615,-3.3699,-3.3592,-3.3487,-3.3146,-3.2155,-3.1741,-3.1076,-2.9001,-2.8431,-2.7592,-2.4942,-2.2392,-2.0078,-1.8377,-1.7317,-1.6385,-1.5471,-1.6486,-1.7451,-1.7451,-1.7451,-1.7588,-1.7959,-1.8008,-1.8105,-1.834,-1.8924,-1.981,-2.0902,-2.2509,-2.3734,-2.456,-2.5327,-2.5652,-2.5564,-2.5878,-2.6484,-2.7442,-2.752,-2.771,-2.7993,-2.7993,-2.8125,-2.84,-2.8732,-2.8873,-2.8919,0.0,-2.9805,-2.9805,-3.0081,-3.0393,-3.0699,-3.0699,-3.0878,-3.119,-3.119,-3.119,-3.119,0.0,0.0,0.0,0.0,0.0,0.0,0.0,0.0,0.0,0.0,-2.6725,0.0,0.0,0.0,0.0,0.0,0.0,0.0,0.0,0.0,0.0,0.0,0.0,0.0,0.0,0.0,0.0,0.0,0.0,0.0,0.0,0.0,0.0,0.0,0.0,0.0,0.0,0.0,0.0,0.0,0.0,0.0,0.0,0.0,0.0,0.0,0.0,-2.9123,-3.0331,-3.173,-3.2204,-3.2355,-3.3106,-3.3244,-3.3293,-3.4219,-3.4315,-3.4246,-3.466,-3.4218,-3.3488,-3.2732,-3.2453,-3.16,-2.8682,-2.7916,-2.7114,-2.4458,-2.1748,-1.9488,-1.8152,-1.7316,-1.6319,-1.4633,-1.5638,-1.6709,-1.6875,-1.6904,-1.7178,-1.792,-1.8008,-1.8008,-1.8008,-1.8409,-1.9418,-2.1163,-2.2422,-2.3179,-2.3382,-2.4912,-2.5659,-2.5282,-2.6596,-2.7404,-2.7575,-2.7625,-2.791,-2.8511,-2.8511,-2.8826,-2.9406,-2.9496,-2.954,-2.954,-3.0166,-3.0435,-3.0477,-3.0975,-3.119,-3.119,-3.119,-3.119,-3.119,-3.119,-3.119,-3.119,0.0,0.0,0.0,0.0,0.0,0.0,0.0,0.0,0.0,0.0,-2.6906,-2.6691,0.0,0.0,0.0,0.0,0.0,0.0,0.0,0.0,0.0,0.0,0.0,0.0,0.0,0.0,0.0,0.0,0.0,0.0,0.0,0.0,0.0,0.0,0.0,0.0,0.0,0.0,0.0,0.0,0.0,0.0,0.0,0.0,0.0,0.0,-2.8166,-2.8977,-2.9944,-3.1633,-3.2483,-3.3114,-3.4604,-3.4936,-3.4866,-3.5256,-3.5188,-3.4999,-3.5081,-3.4623,-3.4043,-3.3907,-3.2726,-3.1164,-2.9488,-2.7814,-2.5702,-2.2487,-2.015,-1.8121,-1.6332,-1.5061,-1.4537,-1.5246,-1.5843,-1.6553,-1.7637,-1.7783,-1.7842,-1.7988,-1.8008,-1.8008,-1.8008,-1.8724,-1.9613,-2.0649,-2.1637,-2.2669,-2.384,-2.4761,-2.5549,-2.6238,-2.7091,-2.7563,-2.7625,-2.7625,-2.791,-2.8511,-2.8511,-2.8826,-2.9406,-2.9935,-3.0123,-3.0166,-3.0781,0.0,-3.1055,-3.1151,-3.119,-3.119,-3.119,-3.119,-3.119,-3.119,-3.119,-3.119,0.0,0.0,0.0,0.0,0.0,0.0,0.0,-2.8112,-2.7805,-2.7619,-2.7272,-2.6939,-2.6725,-2.6691,-2.6624,0.0,0.0,0.0,0.0,0.0,0.0,0.0,0.0,0.0,0.0,0.0,-1.9469,-1.9196,0.0,0.0,0.0,-1.99,-2.0663,-2.1875,0.0,0.0,0.0,0.0,0.0,0.0,0.0,0.0,0.0,0.0,0.0,0.0,0.0,-2.8721,-3.0027,-3.0854,-3.1861,-3.3111,-3.492,-3.5273,-3.5076,-3.5489,-3.5506,-3.5368,-3.5239,-3.4933,-3.4482,-3.3747,-3.2776,-3.1268,-2.8653,-2.6808,-2.4603,-2.1054,-1.8741,-1.6867,-1.5095,-1.4173,-1.3869,-1.445,-1.5416,-1.6367,-1.7227,-1.7734,-1.8008,-1.8008,-1.8008,-1.8008,-1.8008,-1.8405,-1.9177,-2.0526,-2.1307,-2.2482,-2.406,-2.5212,-2.6201,-2.7049,-2.7408,-2.7625,-2.7625,-2.7894,-2.8367,-2.8966,-2.9271,-2.9761,-3.0351,-3.0658,-3.0781,-3.0781,-3.1055,-3.119,-3.119,-3.119,-3.119,-3.123,-3.1449,-3.1507,-3.1545,-3.1787,-3.1896,-3.1896,0.0,0.0,0.0,0.0,0.0,0.0,0.0,-2.8446,-2.8316,-2.8047,-2.7678,-2.7303,-2.7004,-2.6808,-2.6725,0.0,0.0,0.0,0.0,0.0,0.0,0.0,0.0,0.0,0.0,0.0,0.0,-2.1234,-2.1681,0.0,0.0,0.0,0.0,0.0,-2.3404,-2.4312,-2.5411,0.0,0.0,0.0,0.0,-2.6906,0.0,0.0,0.0,0.0,0.0,-2.8467,-2.982,-3.0055,-3.0925,-3.2281,-3.4266,-3.4713,-3.4592,-3.5135,-3.5298,-3.5334,-3.5338,-3.5105,-3.4573,-3.3466,-3.2571,-3.1071,-2.7669,-2.5754,-2.3703,-1.9957,-1.7659,-1.5823,-1.4172,-1.3486,-1.3183,-1.3381,-1.4409,-1.5436,-1.6078,-1.676,-1.7243,-1.7345,-1.7373,-1.751,-1.7647,-1.7842,-1.87,-2.0462,-2.1758,-2.3141,-2.4667,-2.5837,-2.6826,-2.7575,-2.7625,-2.7625,-2.7625,-2.8091,-2.8685,-2.9406,-2.9892,-3.0477,-3.119,-3.119,-3.119,-3.119,-3.1291,-3.1312,-3.1351,-3.1428,-3.1504,-3.1524,-3.1842,-3.1951,-3.1986,-3.2366,-3.2484,-3.2484,0.0,0.0,0.0,0.0,0.0,0.0,0.0,-2.8615,-2.8394,-2.8368,-2.8047,-2.784,-2.7794,-2.7147,-2.6841,0.0,0.0,0.0,0.0,0.0,0.0,0.0,0.0,0.0,0.0,0.0,0.0,-2.2331,-2.2388,0.0,0.0,0.0,0.0,0.0,0.0,-2.4799,-2.5961,-2.6319,0.0,0.0,0.0,0.0,0.0,0.0,0.0,0.0,0.0,-2.8156,-2.8721,-2.9764,-2.999,-3.0214,-3.2237,-3.3159,-3.362,-3.4103,-3.4326,-3.4628,-3.5579,-3.4936,-3.3986,-3.3843,-3.1996,-2.9685,-2.7616,-2.546,-2.2865,-1.9245,-1.7059,-1.5256,-1.3496,-1.2135,-1.1551,-1.251,-1.2407,-1.2752,-1.4316,-1.4609,-1.4832,-1.5371,-1.5446,-1.5799,-1.6636,-1.7415,-1.8685,-2.0451,-2.3344,-2.5425,-2.6229,-2.6457,-2.6826,-2.7575,-2.7625,-2.7625,-2.7625,-2.7675,-2.8271,-2.9406,-2.9451,-3.0081,-3.119,-3.119,-3.119,-3.123,-3.1603,-3.1752,0.0,-3.2213,-3.2384,-3.2384,-3.2417,-3.2451,-3.2451,-3.2484,-3.2484,-3.2484,0.0,0.0,0.0,0.0,0.0,0.0,-2.8994,-2.8863,-2.8749,-2.8749,-2.8438,-2.821,-2.821,-2.7736,-2.7487,-2.7666,0.0,0.0,0.0,0.0,0.0,0.0,0.0,0.0,0.0,0.0,-2.4696,-2.45,-2.45,0.0,0.0,0.0,0.0,0.0,0.0,-2.5994,-2.6687,-2.7168,0.0,0.0,0.0,0.0,0.0,0.0,0.0,0.0,0.0,0.0,-2.9007,-2.9047,-2.9664,-3.0413,-3.0622,-3.1373,-3.2479,-3.3925,-3.432,-3.4519,-3.5514,-3.4982,-3.3978,-3.3292,-3.096,-2.8348,-2.6483,-2.3633,-2.0592,-1.7787,-1.5875,-1.4035,-1.1785,-1.0918,-1.0527,-1.0597,-1.1011,-1.1662,-1.2577,-1.3638,-1.4388,-1.4613,-1.5446,-1.6219,-1.6567,-1.792,-1.9846,-2.2517,-2.4359,-2.5892,-2.7086,-2.7152,-2.7444,-2.814,-2.814,-2.8319,-2.867,-2.9027,-2.948,-2.9951,-3.0293,-3.074,-3.119,-3.1449,-3.1565,-3.1565,-3.2039,-3.2196,0.0,-3.2417,-3.2484,-3.2517,-3.2809,-3.2921,-3.2952,-3.3196,-3.3284,-3.3284,0.0,0.0,0.0,0.0,0.0,-2.9112,-2.9112,-2.9044,-2.8994,-2.8994,-2.8749,-2.8565,-2.8565,-2.836,-2.8228,-2.8228,-2.812,0.0,0.0,0.0,0.0,0.0,0.0,0.0,0.0,0.0,-2.6337,-2.6167,-2.6167,-2.6098,0.0,0.0,-2.6303,-2.655,0.0,0.0,0.0,0.0,0.0,0.0,0.0,0.0,0.0,0.0,0.0,0.0,0.0,0.0,0.0,0.0,0.0,-3.0471,-2.9851,-3.0309,-3.1393,-3.313,-3.3796,-3.4118,-3.4802,-3.4486,-3.3641,-3.2409,-2.998,-2.7336,-2.5166,-2.2239,-1.9224,-1.6505,-1.4712,-1.2959,-1.0621,-0.9943,-0.9529,0.0,-0.9447,-1.007,-1.0341,-1.1458,-1.2341,-1.2538,-1.3707,-1.4781,-1.5549,-1.8088,-2.0905,-2.3916,-2.4896,-2.5946,-2.7188,-2.7645,-2.7993,-2.8238,-2.8415,-2.8685,-2.9134,-2.9717,-3.0123,-3.0293,-3.074,-3.1015,-3.119,-3.1507,-3.1696,-3.1825,-3.2316,-3.2583,0.0,-3.284,-3.2872,-3.2934,-3.3273,-3.3379,-3.339,-3.3707,-3.3807,-3.3807,0.0,0.0,0.0,0.0,0.0,0.0,-2.9392,-2.9178,-2.8994,-2.8994,-2.8994,-2.8994,-2.8994,-2.8994,-2.8994,-2.8994,-2.8615,0.0,0.0,0.0,0.0,0.0,0.0,0.0,0.0,0.0,-2.7625,-2.7095,-2.7095,-2.6825,-2.6319,-2.6825,-2.7095,-2.7095,0.0,0.0,0.0,0.0,0.0,0.0,0.0,0.0,0.0,0.0,0.0,0.0,0.0,0.0,0.0,0.0,0.0,0.0,0.0,-3.026,0.0,-3.1356,-3.2393,-3.3224,-3.3297,-3.321,-3.2768,-3.1296,-2.9153,-2.667,-2.385,-2.1751,-1.9319,-1.5571,-1.3641,-1.2112,-1.0505,-0.9372,-0.8452,-0.7551,-0.7537,-0.7592,-0.7372,-0.7459,-0.778,-0.8366,-0.9139,-1.0555,-1.303,-1.7715,-2.1643,-2.4105,-2.4951,-2.5728,-2.6457,-2.7765,-2.8238,-2.7625,-2.8189,-2.8511,-2.8511,-2.9088,-2.9717,-3.0293,-3.0293,-3.0601,-3.119,-3.119,-3.1411,-3.1825,-3.2316,-3.2745,0.0,-3.3606,-3.3807,-3.3807,-3.3788,-3.3788,-3.3788,-3.3807,-3.3807,-3.3807,0.0,0.0,0.0,0.0,0.0,0.0,0.0,-2.9514,-2.9416,-2.9289,-2.9267,-2.9203,-2.9017,-2.9178,-2.9267,-2.9267,-2.8984,0.0,0.0,0.0,0.0,0.0,0.0,0.0,0.0,0.0,-2.8645,-2.8479,-2.8479,-2.8372,-2.8203,-2.8396,-2.8608,-2.8864,-2.8772,-2.8876,0.0,0.0,0.0,0.0,0.0,0.0,0.0,0.0,0.0,0.0,0.0,0.0,0.0,0.0,0.0,0.0,0.0,0.0,0.0,-3.0068,-3.0437,-3.0969,-3.142,-3.0279,-2.8775,-2.7915,-2.4999,-2.2006,-2.0754,-1.7944,-1.5082,-1.314,-1.179,-1.0488,-0.891,-0.8039,-0.7321,-0.6705,-0.6556,-0.6482,-0.6411,-0.7833,-0.8948,-0.9111,-1.1678,-1.4435,-1.7025,-1.9286,-2.1868,-2.4824,-2.5287,-2.5946,-2.7203,-2.7645,-2.7993,-2.8189,-2.918,-2.9717,-2.9717,-3.0351,-3.074,-3.0918,-3.1206,-3.1418,-3.164,-3.2282,-3.2648,-3.2777,-3.3196,-3.3476,-3.3606,-3.3734,-3.3807,-3.3807,-3.3807,-3.3807,-3.3807,-3.3807,-3.3807,-3.3807,0.0,0.0,0.0,0.0,0.0,0.0,0.0,-2.9765,-2.9643,-2.9532,-2.9454,-2.9372,-2.9272,-2.9353,-2.9434,-2.9513,-2.9355,0.0,0.0,0.0,0.0,0.0,0.0,0.0,0.0,-2.9439,-2.9326,-2.9326,-2.9326,-2.9326,-2.9326,-2.9326,-2.9476,-2.9696,-2.9439,-2.9476,0.0,0.0,0.0,0.0,0.0,0.0,-2.9893,0.0,0.0,0.0,0.0,0.0,0.0,0.0,0.0,0.0,0.0,0.0,0.0,0.0,-2.8401,-2.8101,-2.903,-2.7906,-2.6177,-2.4875,-2.2111,-1.9326,-1.7967,-1.5292,-1.273,-1.146,-1.0156,-0.8913,-0.7758,-0.6917,-0.6192,-0.561,-0.5548,-0.5543,-0.5442,-0.6793,-0.8028,-0.8849,-1.2208,-1.5495,-1.8083,-1.9715,-2.1918,-2.5161,-2.5398,-2.6054,-2.7509,-2.781,-2.8091,-2.8463,-2.9451,-3.0081,-3.0293,-3.0878,-3.1291,-3.1449,-3.1714,-3.1914,-3.2092,-3.2681,-3.3045,-3.3214,-3.3447,-3.3652,0.0,-3.3807,-3.3807,-3.3807,-3.3807,-3.3807,-3.3815,-3.391,-3.3961,-3.3961,0.0,0.0,0.0,0.0,0.0,0.0,0.0,-2.9861,-2.9748,-2.9712,-2.9551,-2.9513,-2.9678,-2.9551,-2.9513,-2.9713,0.0,0.0,0.0,0.0,0.0,0.0,0.0,0.0,0.0,-2.9748,-2.9748,-2.9748,-2.9748,-2.9748,-2.9748,-2.9748,-2.9748,-2.9748,-2.9761,-2.9756,0.0,0.0,0.0,0.0,0.0,0.0,0.0,0.0,0.0,0.0,0.0,0.0,0.0,0.0,0.0,0.0,0.0,0.0,0.0,0.0,0.0,0.0,0.0,-2.571,-2.4441,-2.1963,-2.0067,-1.8078,-1.5438,-1.3531,0.0,-1.0302,-0.8728,-0.7471,-0.6981,-0.5936,-0.5,-0.4474,-0.4564,-0.4626,-0.4529,-0.4821,-0.5825,-0.7827,-1.1102,-1.4147,-1.6475,-1.9071,-2.1858,-2.5024,-2.5232,-2.5912,-2.7375,-2.8051,-2.8387,-2.8481,-2.9055,-2.9669,-3.0293,-3.0878,-3.1389,-3.1752,-3.186,-3.2144,-3.2484,-3.255,-3.284,0.0,-3.3243,-3.3447,0.0,-3.3807,-3.3815,-3.3815,-3.3815,-3.3842,-3.3876,-3.4147,-3.4242,-3.4288,0.0,0.0,0.0,0.0,0.0,0.0,0.0,0.0,0.0,0.0,-2.9893,-2.9813,-2.9713,-2.9796,-2.9877,0.0,0.0,0.0,0.0,0.0,0.0,0.0,0.0,0.0,0.0,-3.0305,-3.0343,-3.0381,-3.0381,-3.0381,-3.0381,-3.0381,-3.0381,-3.0388,-3.0335,-3.0289,0.0,0.0,0.0,0.0,0.0,0.0,0.0,0.0,0.0,0.0,-3.0351,-3.0286,0.0,0.0,0.0,0.0,0.0,0.0,0.0,0.0,-2.4824,-2.3145,-2.1824,0.0,-1.9797,-1.7607,-1.5907,-1.4284,0.0,-1.1053,-0.9762,-0.8098,-0.7425,-0.6848,-0.5893,-0.4721,-0.4029,-0.4343,-0.3425,-0.309,-0.431,-0.5801,-0.719,-0.8447,-1.149,-1.3937,-1.4985,-1.8019,-2.0922,-2.3434,-2.3891,-2.4637,-2.6016,-2.6596,-2.7359,-2.837,-2.8951,-2.9592,-3.0293,-3.0878,-3.1269,-3.1351,-3.2021,-3.2417,-3.2517,-3.3196,-3.3532,-3.3652,-3.3652,-3.3707,-3.3807,-3.3807,-3.3928,-3.4099,-3.4099,-3.4242,-3.4505,-3.4551,-3.4572,-3.4593,0.0,0.0,0.0,0.0,0.0,0.0,0.0,0.0,0.0,0.0,0.0,-3.0018,-3.006,-3.0083,0.0,0.0,0.0,0.0,0.0,0.0,0.0,0.0,0.0,0.0,-3.0544,-3.0532,-3.0523,-3.0542,-3.0523,-3.0503,-3.0503,-3.0503,-3.0503,-3.051,-3.0469,-3.0424,0.0,0.0,0.0,0.0,-3.0359,0.0,0.0,0.0,0.0,0.0,-3.0045,-3.0009,0.0,-2.9589,-2.9241,-2.8861,0.0,0.0,0.0,0.0,-2.3218,-2.1404,-1.8664,-1.782,-1.7213,-1.5141,-1.343,-1.1958,-1.0605,-0.9304,-0.8105,-0.7196,-0.6349,-0.554,-0.4639,-0.4074,-0.3625,-0.3262,-0.3241,-0.36,-0.4607,-0.5815,-0.7112,-0.8452,-1.1266,-1.3613,-1.4801,-1.7636,-2.0382,-2.2651,-2.3282,-2.4212,-2.5521,-2.6123,-2.6842,-2.7854,-2.8429,-2.936,-3.0683,-3.1015,-3.1389,-3.1787,-3.2282,-3.2713,-3.3118,-3.3578,-3.3807,-3.3807,-3.391,-3.3986,-3.4012,-3.416,-3.4307,-3.4423,-3.4423,-3.4551,-3.4714,-3.4851,-3.487,-3.4908,0.0,0.0,0.0,0.0,0.0,0.0,0.0,0.0,0.0,0.0,0.0,0.0,0.0,0.0,0.0,0.0,0.0,0.0,0.0,0.0,0.0,0.0,0.0,-3.0578,-3.0578,-3.0524,-3.0507,-3.0517,-3.0458,-3.0439,-3.0439,-3.0439,-3.0415,-3.0372,-3.0325,-3.0303,0.0,0.0,0.0,0.0,-3.0195,0.0,0.0,0.0,0.0,0.0,0.0,0.0,0.0,-2.9031,-2.8768,-2.839,-2.7422,0.0,0.0,0.0,0.0,0.0,-1.6364,-1.5783,-1.5608,-1.3468,-1.1776,-1.0352,-0.9332,-0.7941,-0.682,-0.6645,-0.5368,-0.414,-0.3653,-0.356,-0.3201,-0.2157,-0.3434,-0.468,-0.4928,-0.556,-0.6564,-0.7952,-1.0778,-1.3172,-1.4762,-1.7469,-1.9968,-2.2008,-2.2978,-2.4013,-2.5332,-2.5935,-2.6533,-2.7258,-2.7758,-2.8982,-3.0934,-3.1053,-3.1522,-3.2307,-3.253,-3.2996,-3.3707,-3.3762,-3.3807,-3.3815,0.0,0.0,-3.4223,-3.4508,-3.4674,-3.4754,-3.4754,-3.4793,-3.4851,-3.5088,-3.5155,-3.519,0.0,0.0,0.0,0.0,0.0,0.0,0.0,0.0,0.0,0.0,0.0,0.0,0.0,0.0,0.0,0.0,0.0,0.0,0.0,0.0,0.0,0.0,-3.0536,-3.0517,-3.0517,-3.0507,-3.0528,-3.0578,-3.0578,-3.0578,-3.0578,-3.0578,-3.0455,-3.0215,-2.9996,-2.9874,-2.9813,-2.9813,-2.9802,-2.9813,-2.9801,0.0,0.0,0.0,0.0,0.0,0.0,0.0,0.0,-2.8174,-2.7826,-2.7325,-2.6155,0.0,0.0,0.0,0.0,0.0,-1.5254,-1.4108,-1.3368,-1.1238,-0.9767,-0.8617,-0.7604,-0.68,-0.5956,-0.4986,-0.416,-0.3719,-0.3897,-0.255,-0.1717,-0.2742,-0.3493,-0.4054,-0.4276,-0.5819,-0.6887,-0.6946,-1.0296,-1.2588,-1.2585,-1.6605,-1.9598,-2.0501,-2.1964,-2.3332,-2.4548,-2.5107,-2.5908,-2.7082,-2.7618,-2.8437,-2.9748,-3.0438,-3.1028,-3.1494,-3.2599,-3.3166,-3.3302,-3.3634,-3.3807,-3.3788,0.0,-3.3986,-3.42,-3.4265,-3.4574,-3.5053,-3.5053,-3.519,-3.5383,-3.5432,-3.5432,-3.5446,0.0,0.0,0.0,0.0,0.0,0.0,0.0,0.0,0.0,0.0,0.0,0.0,0.0,0.0,0.0,0.0,0.0,0.0,0.0,0.0,0.0,-3.0593,-3.0531,-3.0523,-3.0542,-3.0523,-3.046,-3.0385,-3.0316,-3.0218,-3.0117,-3.0117,-3.0057,-2.9929,-2.981,-2.9718,-2.9696,-2.9696,-2.9696,-2.9696,0.0,0.0,0.0,0.0,0.0,0.0,0.0,0.0,0.0,0.0,-2.6427,-2.5538,-2.453,0.0,0.0,0.0,0.0,0.0,-1.4031,-1.224,-1.1008,-1.004,-0.9112,-0.8259,-0.7821,-0.6627,-0.5401,-0.4385,-0.3698,-0.322,-0.3045,-0.2675,-0.2785,-0.4143,-0.3712,-0.3553,-0.4534,-0.5462,-0.6319,-0.7154,-1.0071,-1.2321,-1.3107,-1.6631,-1.9303,-2.0361,-2.2081,-2.352,-2.4348,-2.5182,-2.5889,-2.6508,-2.6956,-2.7555,-2.8293,-2.933,-3.0455,-3.1696,-3.2283,-3.2886,-3.3522,-3.3707,-3.3807,-3.3807,0.0,-3.4093,-3.4242,-3.4534,-3.4851,-3.5105,-3.5273,-3.5383,-3.5493,-3.5545,-3.5565,-3.5572,0.0,0.0,0.0,0.0,0.0,0.0,0.0,0.0,0.0,0.0,0.0,0.0,0.0,0.0,0.0,0.0,0.0,0.0,0.0,0.0,-3.0656,-3.0579,-3.053,-3.0482,-3.0465,-3.0407,-3.0284,-3.0086,-2.9965,-2.9845,-2.9696,-2.9643,-2.9644,-2.9644,-2.9551,-2.9533,-2.9533,-2.9438,-2.94,-2.938,0.0,0.0,0.0,0.0,0.0,0.0,0.0,0.0,0.0,0.0,0.0,0.0,0.0,0.0,0.0,-1.8528,-1.7042,-1.567,-1.2814,-1.0858,-0.9549,-0.9223,-0.838,-0.7631,-0.7881,-0.6371,-0.4835,-0.4237,-0.3442,-0.2782,-0.237,-0.2583,-0.3225,-0.437,-0.3503,-0.3332,-0.5198,-0.5626,-0.6322,-0.7866,-1.0309,-1.2435,-1.396,-1.6939,-1.9329,-2.0512,-2.2521,-2.3971,-2.4552,-2.5503,-2.6104,-2.6298,-2.6657,-2.7083,-2.7542,-2.8475,-2.9776,-3.1452,-3.1735,-3.2438,-3.3532,-3.3532,-3.3676,-3.3902,-3.4099,-3.4269,-3.4449,-3.4907,-3.5138,-3.5207,-3.5432,-3.5526,-3.5545,-3.5603,-3.5641,-3.5682,0.0,0.0,0.0,0.0,0.0,0.0,0.0,0.0,0.0,0.0,0.0,0.0,0.0,0.0,0.0,0.0,0.0,0.0,0.0,0.0,-3.0568,-3.0513,-3.0498,-3.0356,-3.0047,-3.0047,-2.9943,-2.9732,-2.9731,-2.9713,-2.9696,-2.9513,-2.9414,-2.9394,-2.916,-2.9044,-2.9021,-2.8646,-2.8504,-2.8478,-2.8156,0.0,0.0,0.0,0.0,0.0,0.0,0.0,0.0,0.0,0.0,0.0,0.0,0.0,-2.0273,-1.7356,-1.5788,-1.4434,-1.1732,-1.062,-0.9894,-0.8404,-0.6766,-0.5753,-0.6555,-0.5336,-0.4172,-0.4429,-0.3264,-0.2323,-0.2589,-0.1549,-0.0948,-0.1912,-0.2423,-0.3621,-0.6189,-0.727,-0.8109,-0.9046,-1.1348,-1.3184,-1.3987,-1.7321,-1.975,-2.0548,-2.2922,-2.4576,-2.5105,-2.5689,-2.6368,-2.7192,-2.7224,-2.7601,-2.8298,-2.8422,-2.8899,-2.98,-3.0896,-3.1873,-3.2706,-3.2706,-3.3234,-3.4152,-3.4176,-3.4513,-3.5034,-3.5088,-3.5258,-3.546,-3.5493,-3.5545,-3.5603,-3.568,-3.5776,-3.5886,0.0,0.0,0.0,0.0,0.0,0.0,0.0,0.0,0.0,0.0,0.0,0.0,0.0,0.0,0.0,0.0,0.0,0.0,0.0,0.0,-3.0519,-3.0506,-3.0312,-3.0066,-2.9813,-2.9939,-2.9908,-2.9696,-2.9416,-2.9251,-2.9251,-2.8929,-2.879,-2.8766,-2.8446,-2.8326,-2.8326,-2.8156,-2.8075,-2.8047,-2.759,-2.7407,0.0,0.0,0.0,0.0,0.0,0.0,0.0,0.0,-2.2735,-2.1305,-2.0898,-2.0192,-1.915,-1.7016,-1.5683,-1.4284,-1.1603,-1.0714,-1.0084,-0.8336,-0.6984,-0.6166,-0.6314,-0.4984,-0.3583,-0.2956,-0.2188,-0.1532,-0.1208,-0.1491,-0.2025,-0.2511,-0.3156,-0.4172,-0.5759,-0.7239,-0.8184,-0.8436,-1.1183,-1.3451,-1.4646,-1.7634,-2.0124,-2.1685,-2.3712,-2.5128,-2.5652,-2.642,-2.697,-2.7303,-2.753,-2.7794,-2.8075,-2.829,-2.8564,-2.8871,-3.0081,-3.1072,-3.1843,-3.2022,-3.2614,-3.3455,-3.3634,-3.4124,-3.4851,-3.5016,-3.5174,-3.5273,-3.5432,-3.5526,-3.5559,-3.5601,-3.5707,-3.5794,0.0,0.0,0.0,0.0,0.0,0.0,0.0,0.0,0.0,0.0,0.0,0.0,0.0,0.0,0.0,0.0,0.0,0.0,0.0,-3.0439,-3.0343,-3.0343,-3.0052,-2.9845,-2.9713,-2.9763,-2.9695,-2.9476,-2.9034,-2.8815,-2.8797,-2.8438,-2.8237,-2.8237,-2.7992,-2.7897,-2.7897,-2.7765,-2.7707,-2.7678,-2.7168,-2.6865,0.0,0.0,0.0,0.0,0.0,0.0,0.0,0.0,-2.178,-2.0345,-1.9995,-1.931,-1.8307,-1.6612,-1.5585,-1.4359,-1.1752,-1.0694,-0.9964,-0.8159,-0.6949,-0.6161,-0.5957,-0.4623,-0.3271,-0.2677,-0.1489,-0.0376,0.0061,-0.0531,-0.1327,-0.2147,-0.3149,-0.4183,-0.5377,-0.7112,-0.8374,-0.8794,-1.1303,-1.3682,-1.5397,-1.7977,-2.0322,-2.2343,-2.4184,-2.547,-2.6125,-2.6888,-2.7409,-2.7631,-2.789,-2.8156,-2.8376,-2.8603,-2.8748,-2.8805,-2.9658,-3.0442,-3.1167,-3.1402,-3.2004,-3.2856,-3.3317,-3.3903,-3.4583,-3.5043,-3.5223,-3.5258,-3.5451,-3.5545,-3.554,-3.5651,-3.5728,-3.5788,0.0,0.0,0.0,0.0,0.0,0.0,0.0,0.0,0.0,0.0,0.0,0.0,0.0,0.0,0.0,0.0,0.0,0.0,-3.0513,-3.0207,-3.0018,-3.0018,-2.9834,-2.9715,-2.9696,-2.9494,-2.9246,-2.8994,-2.8608,-2.8394,-2.8394,-2.8047,-2.7897,-2.7897,-2.7897,-2.7897,-2.7869,-2.747,-2.7286,-2.7272,-2.6841,-2.6401,-2.5997,0.0,0.0,0.0,0.0,0.0,0.0,0.0,-2.1659,-2.0474,-1.9299,-1.8535,-1.776,-1.6016,-1.5395,-1.4703,-1.2009,-1.0645,-0.9477,-0.7739,-0.6283,-0.5364,-0.542,-0.4196,-0.3308,-0.4026,-0.1316,0.1068,0.0941,0.1748,0.1813,-0.0067,-0.1825,-0.3479,-0.5263,-0.7038,-0.8829,-1.0469,-1.2077,-1.393,-1.6198,-1.8289,-2.0322,-2.2343,-2.4184,-2.5587,-2.6438,-2.7014,-2.7631,-2.8376,-2.8402,-2.8742,-2.9392,-2.9412,-2.9494,-2.9696,-2.9713,-3.0002,-3.0605,-3.081,-3.1481,-3.2534,-3.3408,-3.3934,-3.4257,-3.5141,-3.5493,-3.5526,-3.5584,-3.5603,-3.5622,-3.5815,-3.5892,-3.5919,0.0,0.0,0.0,0.0,0.0,0.0,0.0,0.0,0.0,0.0,0.0,0.0,0.0,0.0,0.0,0.0,0.0,0.0,-3.1644,-3.1538,-3.1484,-3.1484,-3.1278,-3.0793,-2.9931,-2.8889,-2.842,-2.8565,-2.8446,-2.829,-2.8047,-2.7648,-2.747,-2.7487,-2.7178,-2.7051,-2.7051,-2.6939,-2.6873,-2.6841,-2.6401,-2.5888,-2.5411,0.0,0.0,0.0,0.0,0.0,0.0,0.0,0.0,0.0,-1.9299,-1.8535,-1.776,-1.6016,-1.5198,-1.4251,-1.1438,-1.1242,-1.098,-0.7555,-0.7141,-0.7233,-0.5884,-0.3454,-0.1249,-0.0285,0.0424,0.0967,0.1038,0.0869,0.0519,-0.0285,-0.1922,-0.3417,-0.4617,-0.6977,-0.8704,-0.8929,-1.1496,-1.4057,-1.5997,-1.8207,-2.0518,-2.304,-2.4433,-2.547,-2.609,-2.7158,-2.7823,-2.8047,-2.8724,-2.9209,-2.9412,-2.9551,-2.9625,-2.9696,-2.9845,-2.9929,-2.9983,-3.0173,-3.0792,-3.1688,-3.2124,-3.3031,-3.4257,-3.5141,-3.5493,-3.5526,-3.5584,-3.5603,-3.5622,-3.5718,-3.5815,-3.59,0.0,0.0,0.0,0.0,0.0,0.0,0.0,0.0,0.0,0.0,0.0,0.0,0.0,0.0,0.0,0.0,0.0,0.0,0.0,0.0,-3.197,-3.197,-3.1621,-3.0979,-3.0071,-2.8923,-2.8369,-2.8408,-2.8116,-2.7862,-2.7648,-2.7241,-2.7051,-2.7051,-2.659,-2.6521,-2.6657,-2.628,-2.6245,-2.6367,-2.5872,-2.5373,-2.4871,0.0,0.0,0.0,0.0,0.0,0.0,0.0,0.0,0.0,-1.9018,-1.838,-1.7801,-1.6185,-1.5483,-1.4731,-1.243,-1.2025,-1.1552,-0.8346,-0.78,-0.735,-0.4637,-0.2877,-0.1221,0.0595,0.1112,0.11,0.0734,0.0686,0.0311,-0.0677,-0.2145,-0.3418,-0.4439,-0.6994,-0.8944,-0.9179,-1.1927,-1.4693,-1.6896,-1.8806,-2.1002,-2.3586,-2.4649,-2.5582,-2.6471,-2.7391,-2.7964,-2.8102,-2.8948,-2.9434,-2.9513,-2.9731,-2.9861,-2.9977,-3.0095,-3.0095,-2.9992,-3.0109,-3.045,-3.0967,-3.1476,-3.2641,-3.4237,-3.4795,-3.5238,-3.5565,-3.5622,-3.5644,-3.5643,-3.5734,-3.5786,-3.5813,0.0,0.0,0.0,0.0,0.0,0.0,0.0,0.0,0.0,0.0,0.0,0.0,0.0,0.0,0.0,0.0,0.0,0.0,0.0,0.0,-3.1972,-3.1927,-3.1192,-3.0594,-3.0149,-2.9391,-2.8767,-2.8349,-2.7636,-2.7272,-2.7241,-2.6873,-2.6691,-2.6691,-2.6262,-2.6297,-2.659,-2.5672,-2.554,-2.5888,-2.5411,-2.4855,-2.4389,-2.4389,0.0,0.0,0.0,0.0,0.0,0.0,0.0,0.0,-1.8722,-1.8145,-1.78,-1.6407,-1.5987,-1.5638,-1.4132,-1.2901,-1.1639,-0.9672,-0.8148,-0.6096,-0.2537,-0.2338,-0.2344,-0.0314,0.0863,0.1176,0.0157,0.0784,0.0784,-0.1176,-0.2345,-0.3435,-0.4453,-0.7001,-0.9299,-1.0598,-1.3011,-1.5613,-1.8389,-1.9864,-2.1643,-2.4056,-2.487,-2.5842,-2.7144,-2.7648,-2.8047,-2.8394,-2.9082,-2.9513,-2.9696,-2.9924,-3.015,-3.0398,-3.0398,-3.0398,-3.0417,-3.0398,-3.0398,-3.0456,-3.1333,-3.2622,-3.4116,-3.4257,-3.4841,-3.5624,-3.5694,-3.5706,-3.5717,-3.5844,-3.5827,-3.5732,0.0,0.0,0.0,0.0,0.0,0.0,0.0,0.0,0.0,0.0,0.0,0.0,0.0,0.0,0.0,0.0,0.0,0.0,0.0,0.0,-3.323,-3.292,-3.1497,-3.066,-3.0559,-2.9541,-2.8647,-2.7947,-2.7526,-2.7147,-2.6825,-2.6758,-2.6691,-2.6691,-2.659,-2.6401,-2.6156,-2.5924,-2.5652,-2.5373,-2.5259,-2.4855,-2.4389,-2.4389,-2.4074,0.0,0.0,0.0,0.0,0.0,0.0,0.0,-1.9291,-1.8458,-1.776,-1.609,-1.5804,-1.5455,-1.2885,-1.2784,-1.2704,-0.94,-0.6884,-0.4849,-0.3189,-0.2344,-0.1331,0.0784,0.0784,0.0235,0.0079,0.0157,0.0157,-0.0235,-0.1878,-0.3202,-0.3435,-0.6794,-0.949,-1.0278,-1.3048,-1.5959,-1.8666,-2.033,-2.2107,-2.4205,-2.5281,-2.609,-2.6622,-2.7447,-2.8047,-2.8394,-2.92,-2.9661,-2.9696,-3.0114,-3.0374,0.0,-3.0487,-3.0506,-3.0544,-3.0448,-3.0417,-3.0525,-3.1472,-3.2447,-3.346,-3.418,-3.4932,-3.5696,-3.5804,-3.5793,-3.5721,-3.585,-3.584,-3.5768,0.0,0.0,0.0,0.0,0.0,0.0,0.0,0.0,0.0,0.0,0.0,0.0,0.0,0.0,0.0,0.0,0.0,0.0,0.0,0.0,0.0,-3.2533,-3.1725,-3.1163,-3.0945,-3.002,-2.9144,-2.8383,-2.7828,-2.7148,-2.6367,-2.659,-2.659,-2.6367,-2.6104,-2.598,-2.5961,-2.5182,-2.4831,-2.4776,-2.4552,-2.4266,-2.4032,-2.4032,-2.3837,-2.3595,-2.3595,0.0,0.0,0.0,0.0,0.0,0.0,0.0,-1.7788,-1.6214,-1.5547,-1.5096,-1.3807,-1.3372,-1.2545,-0.9608,-0.7468,-0.561,-0.3589,-0.2657,-0.1721,0.0392,0.0392,0.0,0.0,0.0,-0.0314,-0.1331,-0.2423,-0.3589,-0.5137,-0.76,-0.9994,-1.2004,-1.4189,-1.6739,-1.9912,-2.1251,-2.2746,-2.4641,-2.5697,-2.6438,-2.6852,-2.7683,-2.8298,-2.8591,-2.9322,-2.9748,-2.9845,-3.0253,-3.0467,-3.0506,-3.053,-3.0567,-3.0597,-3.0535,-3.0507,-3.0586,-3.1079,-3.2008,-3.3228,-3.3708,-3.4658,-3.5795,-3.5871,-3.5862,-3.5806,-3.5789,-3.5758,-3.5697,0.0,0.0,0.0,0.0,0.0,0.0,0.0,0.0,0.0,0.0,0.0,0.0,0.0,0.0,0.0,0.0,0.0,0.0,0.0,0.0,0.0,0.0,-3.1804,-3.1579,-3.119,-3.0598,-2.9871,-2.9011,-2.8332,-2.7308,-2.6013,-2.647,-2.6436,-2.5977,-2.554,-2.5486,-2.5652,-2.4307,-2.3948,-2.4225,-2.3794,-2.3595,-2.3595,-2.3595,-2.3595,-2.3595,-2.3595,-2.3266,-2.2742,-2.2084,0.0,0.0,0.0,0.0,-1.799,-1.6492,-1.5533,-1.4936,-1.4851,-1.3635,-1.1826,-0.9816,-0.838,-0.6769,-0.3977,-0.3202,-0.2578,-0.0862,-0.0235,0.0,0.0,0.0,-0.0627,-0.25,-0.2968,-0.413,-0.7076,-0.868,-1.0777,-1.4206,-1.579,-1.8024,-2.1459,-2.2564,-2.3673,-2.5173,-2.6216,-2.6977,-2.7537,-2.813,-2.8615,-2.895,-2.9514,-2.9869,-3.0022,-3.0363,-3.0525,-3.0544,-3.0592,-3.0609,-3.0591,-3.0598,-3.0618,-3.062,-3.0642,-3.1622,-3.3239,-3.3278,-3.4334,-3.5908,-3.5878,-3.5849,-3.5834,-3.5718,-3.5641,-3.5603,0.0,0.0,0.0,0.0,0.0,0.0,0.0,0.0,0.0,0.0,0.0,0.0,0.0,0.0,0.0,0.0,0.0,0.0,0.0,0.0,0.0,-3.1808,-3.1487,-3.1269,-3.119,-3.1106,-3.0378,-2.9011,-2.8873,-2.7864,-2.6013,-2.647,-2.6436,-2.6013,-2.5924,-2.5411,-2.4592,-2.4389,-2.4074,-2.3724,-2.3638,-2.3595,-2.3595,-2.3595,-2.3595,-2.3595,-2.3595,-2.355,-2.3385,-2.2757,-2.2488,0.0,0.0,0.0,-1.8618,-1.6807,-1.6068,-1.5437,-1.3571,-1.2097,-1.0861,-0.9606,-0.7829,-0.606,-0.4761,-0.3748,-0.3046,-0.2734,-0.1253,0.0,0.0,0.0,-0.0392,-0.1567,-0.2503,-0.3895,-0.6133,-0.8779,-1.1794,-1.5359,-1.7658,-1.9995,-2.2692,-2.4418,-2.5456,-2.5684,-2.6946,-2.7976,-2.8561,-2.868,-2.8993,-2.9551,-2.9948,-3.0155,-3.0167,-3.0465,-3.0621,-3.0671,-3.0679,-3.0661,-3.0603,-3.0595,-3.0634,-3.0692,-3.081,-3.1814,-3.3379,-3.3308,-3.4332,-3.5883,-3.5771,-3.5688,-3.5641,-3.5622,-3.5584,-3.5526,0.0,0.0,0.0,0.0,0.0,0.0,0.0,0.0,0.0,0.0,0.0,0.0,0.0,0.0,0.0,0.0,0.0,0.0,0.0,0.0,0.0,-3.046,-3.0925,-3.0878,-3.0208,-3.0518,-3.0004,-2.8608,-2.8237,-2.7398,-2.6102,-2.5942,-2.5746,-2.554,-2.5259,-2.4816,-2.4389,-2.4074,-2.3837,-2.3595,-2.3595,-2.3834,-2.4133,-2.3744,-2.3834,-2.4118,-2.3729,-2.3595,-2.3505,-2.2877,-2.2724,-2.242,-2.0761,0.0,0.0,0.0,-1.5823,-1.4984,-1.3765,-1.338,-1.2991,-1.1357,-0.9836,-0.8316,-0.6736,-0.5134,-0.3979,-0.3966,-0.273,-0.1721,-0.1721,-0.1254,-0.1411,-0.3051,-0.3663,-0.5032,-0.8232,-1.1113,-1.4228,-1.7951,-1.9806,-2.1875,-2.4733,-2.5474,-2.6063,-2.6747,-2.7806,-2.8506,-2.8792,-2.9122,-2.9514,-2.9964,-3.0121,-3.027,-3.0423,-3.0542,-3.0607,-3.0634,-3.063,-3.0632,-3.0588,-3.0588,-3.0614,-3.0653,-3.0712,-3.1698,-3.3286,-3.3269,-3.4257,-3.5771,-3.5689,-3.5635,-3.5603,-3.5565,-3.5545,-3.5493,0.0,0.0,0.0,0.0,0.0,0.0,0.0,0.0,0.0,0.0,0.0,0.0,0.0,0.0,0.0,0.0,0.0,0.0,0.0,0.0,0.0,-2.9406,-3.0251,-3.0293,-2.9406,-2.9848,-2.941,-2.8035,-2.755,-2.6846,-2.5943,-2.5266,-2.4989,-2.4973,-2.4592,-2.4307,-2.4158,-2.3752,-2.3595,-2.361,-2.3789,-2.4163,-2.4552,-2.4238,-2.4433,-2.4792,-2.4103,-2.3864,-2.3759,-2.3131,-2.2906,-2.2661,-2.1083,-2.0133,0.0,0.0,0.0,-1.4543,-1.4035,-1.4261,-1.4238,-1.2656,-1.148,-1.034,-0.8815,-0.7122,-0.5835,-0.581,-0.4969,-0.4285,-0.4285,-0.3046,-0.2581,-0.4375,-0.5043,-0.6616,-1.0181,-1.3346,-1.6731,-2.0359,-2.201,-2.3982,-2.681,-2.7073,-2.7314,-2.7959,-2.8843,-2.9283,-2.9124,-2.957,-2.9978,-3.0261,-3.0314,-3.0406,-3.0594,-3.0604,-3.0594,-3.0571,-3.0567,-3.0564,-3.0544,-3.0544,-3.0549,-3.0552,-3.0591,-3.16,-3.3203,-3.3156,-3.4156,-3.568,-3.5603,-3.5584,-3.5584,-3.5526,-3.5493,-3.5493,0.0,0.0,0.0,0.0,0.0,0.0,0.0,0.0,0.0,0.0,0.0,0.0,0.0,0.0,-3.166,-3.1269,0.0,0.0,0.0,0.0,0.0,-2.9406,-2.9451,0.0,-2.9406,-2.9406,-2.8778,-2.7342,-2.731,-2.659,-2.523,-2.4688,-2.443,-2.443,-2.443,-2.4116,-2.3638,-2.3595,-2.3595,-2.3655,-2.4313,-2.4552,-2.4642,-2.5285,-2.5525,-2.548,-2.4761,-2.4522,-2.4477,-2.3789,-2.355,-2.3445,-2.2775,-2.173,-2.0529,0.0,0.0,0.0,-1.3797,-1.3241,-1.276,-1.2473,-1.1662,-1.0855,-1.0613,-0.9782,-0.9064,-0.9064,-0.8228,-0.7548,-0.7548,-0.5063,-0.3359,-0.453,-0.6249,-0.8182,-1.041,-1.4522,-1.8541,-2.1805,-2.4395,-2.6668,-2.8764,-2.9936,-3.0158,-2.9188,-3.0203,-3.0614,-2.9973,-3.0076,-3.0276,-3.0482,-3.0609,-3.0649,-3.0605,-3.0598,-3.056,-3.051,-3.0506,-3.0467,-3.0398,-3.0398,-3.041,-3.0433,-3.0548,-3.1588,-3.3185,-3.3045,-3.4045,-3.5603,-3.5545,-3.5526,-3.5493,-3.5493,-3.5493,-3.5493,0.0,0.0,0.0,0.0,0.0,0.0,0.0,0.0,0.0,0.0,0.0,0.0,0.0,-3.0711,-3.0319,-2.9371,-2.8426,0.0,0.0,0.0,0.0,-2.7595,-2.8334,-2.8584,-2.8255,-2.8638,-2.8171,-2.6842,-2.6412,-2.5722,-2.4817,-2.4161,-2.3879,-2.3879,-2.3879,-2.3794,-2.3595,-2.3595,-2.3595,-2.3655,-2.4358,-2.4836,-2.5181,-2.4552,-2.5121,-2.6033,-2.4522,-2.4253,-2.4552,-2.4343,-2.3969,-2.3507,-2.2893,-2.2178,-2.1078,-1.8697,-1.7227,-1.6138,-1.4883,-1.442,-1.417,-1.3958,-1.3314,-1.2841,-1.3105,-1.2051,-1.1083,-1.1125,-1.0873,-0.9963,-0.8152,-0.5764,-0.4453,-0.555,-0.7319,-0.9288,-1.1328,-1.6769,-2.1224,-2.3013,-2.6583,-2.9344,-3.0479,-3.1146,-3.15,-3.1513,-3.1318,-3.1102,-3.0906,-3.0581,-3.0459,-3.0621,-3.066,-3.0675,-3.0591,-3.0548,-3.0506,-3.0448,-3.0448,-3.0417,-3.0398,-3.0398,-3.0398,-3.0417,-3.1044,-3.1948,-3.3045,-3.3564,-3.4455,-3.5545,-3.5526,-3.5493,-3.5493,-3.5493,-3.5499,-3.5449,0.0,0.0,0.0,0.0,0.0,0.0,0.0,0.0,0.0,0.0,0.0,0.0,0.0,0.0,-2.9237,-2.777,-2.6941,-2.639,-2.6182,-2.6198,-2.623,-2.6243,-2.7041,-2.7303,-2.695,-2.7324,-2.699,-2.5929,-2.5495,-2.4941,-2.4268,-2.3819,-2.3595,-2.3595,-2.3595,-2.3595,-2.3595,-2.3595,-2.3595,-2.3684,-2.4597,-2.5091,-2.5241,-2.4777,-2.5166,-2.5779,-2.4672,-2.4418,-2.4612,-2.4836,-2.4657,-2.4149,-2.3554,-2.2624,-2.133,-1.8695,-1.7643,-1.7115,-1.5863,-1.5271,-1.4996,-1.5135,-1.4713,-1.4524,-1.5352,-1.438,-1.3431,-1.3922,-1.3294,-1.2197,-1.0863,-0.8721,-0.7179,-0.7298,-0.9575,-1.208,-1.3979,-1.9772,-2.4204,-2.5349,-2.8757,-3.1324,-3.2168,-3.2556,-3.2854,-3.3154,-3.2642,0.0,-3.1599,-3.1213,-3.0917,-3.0704,-3.065,-3.0601,-3.0575,-3.0506,-3.0448,-3.0398,-3.0398,-3.0398,-3.0398,-3.0398,-3.0552,-3.0891,-3.1737,-3.241,-3.2968,-3.3833,-3.4718,-3.5493,-3.5493,-3.5446,-3.5388,-3.5465,-3.5417,-3.5209,0.0,0.0,0.0,0.0,0.0,0.0,0.0,0.0,0.0,0.0,0.0,0.0,0.0,0.0,0.0,-2.6611,-2.6417,-2.6181,-2.5586,-2.5555,-2.5555,-2.5585,0.0,0.0,0.0,0.0,-2.5285,-2.4582,-2.4582,-2.4283,-2.3595,-2.3595,-2.3595,-2.3595,-2.3595,-2.3595,-2.3595,-2.3595,-2.3595,-2.3714,-2.5061,-2.5226,-2.4746,-2.6078,-2.5794,-2.4792,-2.539,-2.5196,-2.4732,-2.542,-2.557,-2.539,-2.4716,-2.3247,-2.1349,-1.9541,-1.8228,-1.7231,0.0,0.0,0.0,-1.5781,-1.5711,-1.5821,-1.7202,-1.659,-1.6078,-1.7407,-1.5661,-1.4348,-1.5934,-1.4089,-1.1734,-0.9856,-1.3216,-1.6599,-1.8206,-2.3294,-2.7349,-2.8829,-3.0801,-3.2553,-3.3887,-3.4266,-3.4301,-3.3973,-3.417,-3.3628,-3.2062,-3.1981,-3.1605,-3.0714,-3.0552,-3.0494,-3.0506,-3.0436,-3.0398,-3.0398,-3.0398,-3.0398,-3.0398,-3.0417,-3.091,-3.1756,-3.2583,-3.2929,-3.2994,-3.3872,-3.4724,-3.5493,-3.5479,-3.532,-3.5107,-3.5372,-3.5229,-3.4807,0.0,0.0,0.0,0.0,0.0,0.0,0.0,0.0,0.0,0.0,0.0,0.0,0.0,0.0,-2.5564,-2.502,-2.464,-2.4353,-2.4148,-2.4148,-2.4388,-2.4881,-2.4896,-2.5121,-2.56,0.0,0.0,0.0,0.0,0.0,0.0,0.0,0.0,-2.3595,-2.3595,-2.3595,-2.3595,-2.3595,-2.3595,-2.3714,-2.5061,-2.5495,-2.5375,-2.5749,-2.6243,-2.6662,-2.5884,-2.5196,-2.4761,-2.5929,-2.4747,-2.2748,-2.2571,-2.2464,-2.2094,-2.0239,-1.9486,-1.884,-1.6939,0.0,0.0,0.0,0.0,0.0,-1.7407,-1.8016,-1.8365,-1.7685,-1.8542,-1.8942,-1.7271,-1.7981,-1.8402,-1.7152,-1.7402,-1.8322,-1.9886,-2.4451,-2.7934,-2.8886,-3.1331,-3.3301,-3.4207,-3.4883,-3.5228,0.0,-3.4707,-3.4274,-3.3872,-3.2689,-3.1584,-3.0652,-3.0412,-3.0341,-3.0506,-3.0247,-3.0209,-3.0398,-3.0398,-3.0398,-3.0417,-3.1064,-3.1468,-3.1775,-3.3218,-3.3728,-3.362,-3.448,-3.4977,-3.519,-3.5094,-3.5022,-3.4926,-3.4756,-3.4973,-3.5248,0.0,0.0,0.0,0.0,0.0,0.0,-3.123,-3.0975,0.0,0.0,0.0,0.0,0.0,0.0,0.0,-2.4074,-2.3794,-2.3595,-2.3595,-2.3595,-2.3774,-2.4178,-2.4193,-2.4388,-2.4762,0.0,0.0,0.0,0.0,0.0,0.0,0.0,0.0,0.0,-2.3595,-2.3595,-2.3595,-2.3595,-2.3595,-2.3714,-2.5061,-2.545,-2.5255,-2.5809,-2.6153,-2.6318,-2.6093,-2.56,-2.5241,-2.6557,-2.5027,-2.257,-2.254,-2.2073,-2.1324,-2.0241,-1.9938,-1.9588,-1.7962,-1.777,-1.7879,-1.7181,0.0,0.0,-1.9083,-1.9701,-2.0182,-2.0676,-2.1524,-2.1873,-2.0857,-2.1584,-2.2498,-2.2935,-2.2621,-2.2665,-2.3541,-2.7088,-2.9984,-3.0973,-3.2838,-3.4287,-3.4846,-3.532,-3.5641,-3.5718,-3.5334,-3.4948,-3.463,-3.3206,-3.1949,-3.0962,-3.0753,-3.0494,-3.0171,-3.0066,-3.0075,-3.0222,-3.0355,-3.0535,-3.0784,-3.1314,-3.1814,-3.2374,-3.3363,-3.3946,-3.4281,-3.4661,-3.487,-3.4926,-3.4849,-3.4727,-3.4602,-3.4564,-3.4629,-3.4723,0.0,0.0,-3.119,-3.119,-3.119,-3.119,-3.1112,-3.0658,-3.0251,0.0,0.0,0.0,0.0,0.0,0.0,0.0,-2.3406,-2.3406,-2.3406,-2.3465,-2.3508,-2.3508,-2.3551,-2.3595,-2.3595,-2.3595,0.0,0.0,0.0,0.0,0.0,0.0,0.0,0.0,0.0,-2.3595,-2.3595,-2.3595,-2.364,-2.3804,-2.4941,-2.5121,-2.4821,-2.6033,-2.5839,-2.5106,-2.6273,-2.6228,-2.5764,-2.6782,-2.579,-2.4047,-2.3625,-2.208,-2.0333,-1.9834,-1.993,-2.0021,-1.9159,-1.9132,-1.9212,-1.8576,-1.8421,0.0,-2.1133,-2.1043,-2.1314,-2.4177,-2.3689,-2.3249,-2.4778,-2.4327,-2.4434,-2.6618,-2.7486,-2.795,-2.8042,-3.0328,-3.2468,-3.3839,-3.4582,-3.5138,-3.5556,-3.5611,-3.5682,-3.5905,-3.5898,-3.5509,-3.4604,-3.3626,-3.2627,-3.1556,-3.1404,-3.0921,-2.9979,-3.0111,-3.0221,-3.0266,-3.0496,-3.0904,-3.1482,-3.1511,-3.2139,-3.3279,-3.3334,-3.3937,-3.486,-3.4562,-3.451,-3.4653,-3.4612,-3.442,-3.4189,-3.4492,-3.4259,-3.3807,0.0,0.0,-3.119,-3.119,-3.119,-3.1015,-3.0559,-3.0393,0.0,0.0,0.0,0.0,0.0,0.0,0.0,0.0,-2.2377,-2.2072,-2.2072,-2.2575,-2.2875,-2.2875,-2.3334,-2.3595,-2.3595,-2.3595,-2.3595,0.0,0.0,0.0,0.0,0.0,0.0,0.0,0.0,-2.3595,-2.3595,-2.3595,-2.3924,-2.4403,-2.4103,-2.4567,-2.545,-2.5704,-2.6303,-2.7036,-2.729,-2.6617,-2.548,-2.4657,-2.5135,-2.5601,-2.291,-2.2873,-2.3141,-2.006,-2.0597,-2.1582,-1.9054,-1.9724,-2.0961,-1.9932,-1.9954,0.0,-2.0288,-2.0446,-2.0631,-2.0849,-2.1799,-2.2678,-2.3008,-2.3389,-2.3789,-2.4283,-2.6435,-2.8589,-3.0068,-3.1196,-3.2403,-3.3833,-3.4128,-3.4583,-3.5508,-3.5639,-3.5737,-3.59,-3.5898,-3.5456,-3.4404,-3.3961,-3.328,-3.2327,-3.1921,-3.167,-3.1638,-3.1502,-3.1638,-3.2019,-3.1836,-3.2067,-3.2595,-3.276,-3.3128,-3.3705,-3.4207,-3.4532,-3.4726,-3.468,-3.4507,-3.4288,-3.4062,-3.3928,-3.3895,-3.395,-3.3879,-3.3807,-3.119,-3.119,-3.119,-3.119,-3.0958,-3.0658,-3.0351,-2.9805,0.0,0.0,0.0,0.0,0.0,0.0,0.0,0.0,0.0,0.0,0.0,-2.2346,-2.2694,-2.2694,-2.329,-2.3595,-2.3595,-2.3595,-2.3595,0.0,0.0,0.0,0.0,0.0,0.0,0.0,0.0,-2.3789,-2.4088,-2.3744,-2.3789,-2.4148,-2.4462,-2.5196,-2.6138,-2.6467,-2.6991,-2.7625,-2.7625,-2.7141,-2.6482,-2.5809,-2.5018,-2.4254,-2.3793,-2.3059,-2.2108,-2.0476,-2.1268,-2.2104,-1.9351,-2.0105,-2.1405,-2.0188,-2.013,0.0,0.0,-2.0781,-2.0923,-2.1571,-2.2425,-2.3054,-2.3039,-2.3791,-2.4389,-2.4389,-2.6918,-2.8988,-2.9368,-3.1306,-3.3114,-3.4203,-3.4461,-3.485,-3.558,-3.567,-3.5768,-3.5898,-3.584,-3.5545,-3.4968,-3.4652,-3.4029,-3.2972,-3.2589,-3.2184,-3.1756,-3.1775,-3.1925,-3.2147,-3.2128,-3.2392,-3.2956,-3.2951,-3.3259,-3.3824,-3.412,-3.4258,-3.4259,-3.4259,-3.4166,-3.3986,-3.3868,-3.3807,-3.3807,-3.3807,-3.3807,-3.3807,-3.119,-3.119,-3.119,-3.119,-3.0699,-3.0251,-3.0166,-2.918,0.0,0.0,0.0,0.0,0.0,-2.5658,-2.4739,-2.4283,0.0,0.0,-2.213,-2.2725,-2.3066,-2.304,-2.3393,-2.3714,-2.3984,-2.3729,-2.3595,-2.3595,0.0,0.0,0.0,0.0,0.0,0.0,-2.3984,-2.4029,-2.4403,-2.3984,-2.3864,-2.4088,-2.5166,-2.5779,-2.6078,-2.6602,-2.6961,-2.723,-2.7535,-2.7625,-2.753,-2.716,-2.5097,-2.2852,-2.423,-2.3012,-2.0971,-2.0702,-2.1766,-2.2464,-1.9717,-2.0293,-2.1442,-2.0438,-2.0102,-2.0331,0.0,0.0,0.0,-2.2539,-2.2847,-2.2847,-2.2847,-2.3615,-2.4254,-2.4254,-2.6704,-2.8285,-2.7379,-3.036,-3.2908,-3.3653,-3.4546,-3.513,-3.521,-3.5241,-3.5429,-3.5825,-3.5457,-3.532,-3.5584,-3.5245,-3.4603,-3.3677,-3.3325,-3.2741,-3.1861,-3.207,-3.2191,-3.2259,-3.2355,-3.2751,-3.3351,-3.3045,-3.3364,-3.4123,-3.3889,-3.3807,-3.3807,-3.3807,-3.3807,-3.3807,-3.3807,-3.3807,-3.3807,-3.3807,-3.3807,-3.3807,-3.119,-3.119,-3.119,-3.119,-3.0699,-3.0123,-2.9585,-2.8919,0.0,0.0,0.0,0.0,-2.7505,-2.6828,-2.6327,-2.6255,-2.57,-2.479,-2.3487,-2.4053,-2.4412,-2.4285,-2.3853,-2.4163,-2.536,-2.4208,-2.3595,-2.3595,0.0,0.0,0.0,0.0,0.0,0.0,-2.4283,-2.4223,-2.3744,-2.4283,-2.4852,-2.539,-2.5555,-2.4941,-2.3954,-2.4029,-2.4792,-2.5989,-2.7156,-2.7625,-2.7345,-2.5698,-2.4854,-2.4115,-2.2076,-2.2741,-2.3609,-2.0139,-2.162,-2.3585,-1.9936,-2.0296,-2.1662,-2.1528,-2.1029,-2.0783,-2.1515,0.0,-1.9907,-2.0094,0.0,-2.0124,-2.0124,0.0,0.0,-2.0848,-2.3241,-2.5035,-2.4893,-2.7317,-2.9379,-3.017,-3.3121,-3.4674,-3.3599,-3.3582,-3.4232,-3.5612,-3.4334,-3.4068,-3.5435,-3.5016,-3.4696,-3.4562,-3.3987,-3.3658,-3.3532,-3.3558,-3.3684,-3.3939,-3.3709,-3.3993,-3.4651,-3.3975,-3.4264,-3.5248,-3.4249,-3.3807,-3.3807,-3.3807,-3.3807,-3.3807,-3.3807,-3.3807,-3.3807,-3.3807,-3.3807,-3.3807,-3.1106,-3.119,-3.119,-3.119,-3.0435,-2.9673,-2.9451,-2.8591,-2.791,0.0,0.0,-2.7458,-2.6982,-2.6322,-2.5918,-2.5957,-2.5356,-2.4763,-2.4272,-2.4473,-2.4394,-2.4042,-2.3706,-2.3834,-2.4448,-2.3894,-2.3595,-2.3595,-2.3236,0.0,0.0,0.0,0.0,0.0,-2.3894,-2.4298,-2.4777,-2.5076,-2.4896,-2.4477,-2.4881,-2.4238,-2.3281,-2.5181,-2.6258,-2.6811,-2.743,-2.7625,-2.7485,0.0,-2.5005,0.0,-2.4464,-2.3313,-2.1481,-2.0909,-2.1571,-2.1886,-1.9168,-2.0304,-2.1998,-2.0828,-2.1223,-2.162,-2.0722,-2.0094,-1.969,-1.969,0.0,0.0,0.0,0.0,0.0,0.0,-2.3073,-2.4635,-2.385,-2.6633,-2.886,-2.9204,-3.0847,0.0,-3.3131,-3.4121,-3.4997,-3.5645,-3.501,-3.4855,-3.5482,-3.5138,-3.487,-3.4694,-3.426,-3.3961,-3.3788,-3.3807,-3.3868,-3.3961,-3.3868,-3.3979,-3.4249,-3.3954,-3.4069,-3.4488,-3.4014,-3.3785,-3.3796,-3.3781,-3.3807,-3.3807,-3.3807,-3.3807,-3.3807,-3.3807,-3.3807,-3.3807,-3.048,-3.0785,-3.0958,-3.0958,-2.9951,-2.9088,-2.895,-2.8174,-2.7625,-2.7625,-2.779,-2.769,-2.7156,-2.6895,-2.6805,-2.6887,-2.6539,-2.6259,-2.5976,-2.557,-2.5293,-2.525,-2.4302,-2.4083,-2.4687,-2.3969,-2.352,-2.334,-2.2712,0.0,0.0,0.0,0.0,0.0,-2.3266,-2.3984,-2.5061,-2.5255,-2.4986,-2.4462,-2.4956,-2.4702,-2.4282,-2.6258,-2.726,-2.7625,-2.7625,-2.7625,-2.7515,-2.6991,-2.5034,0.0,-2.5589,-2.3774,-2.1034,-2.2189,-2.2336,-2.1727,-1.9658,-2.0732,-2.2009,-2.0378,-2.0917,-2.153,-2.0258,-1.9824,-1.969,-1.969,-1.969,0.0,0.0,0.0,-2.0991,0.0,0.0,-2.3969,-2.2818,-2.5175,-2.7083,-2.7331,-2.8234,0.0,0.0,-3.3425,-3.4482,-3.4956,-3.4934,-3.5079,-3.5482,-3.5258,-3.4981,-3.4694,-3.4379,-3.4068,-3.3788,-3.3807,-3.3807,-3.3807,-3.3799,-3.3796,-3.378,-3.3322,-3.3082,-3.3098,-3.3081,-3.3364,-3.3811,-3.3817,-3.3807,-3.3807,-3.3807,-3.3807,-3.3807,-3.3807,-3.3807,-3.3807,-2.9096,-2.9732,-3.0351,-3.0351,-2.9316,-2.8319,-2.776,-2.7625,-2.7625,-2.7625,-2.8158,-2.8562,-2.8525,-2.9615,-3.0347,-3.0347,-3.0902,-3.0674,-2.932,-2.8107,-2.7948,-2.916,-2.6179,-2.5427,-2.741,-2.4926,-2.331,-2.2753,-2.2054,-2.1724,0.0,0.0,0.0,0.0,-2.2428,-2.3056,-2.3714,-2.4373,-2.5375,-2.6497,-2.6512,-2.6886,-2.7325,0.0,-2.6467,-2.7625,-2.7625,0.0,0.0,-2.5516,-2.4791,0.0,0.0,0.0,0.0,0.0,0.0,0.0,0.0,0.0,0.0,-2.0857,0.0,0.0,0.0,-2.0168,-1.969,-1.969,-1.969,-1.969,-1.969,0.0,0.0,0.0,0.0,0.0,0.0,-2.1823,-2.2542,-2.337,-2.5336,-2.7264,0.0,-3.0113,-3.1448,0.0,-3.3122,-3.3782,-3.5405,-3.5258,-3.4981,-3.4694,-3.4379,-3.4068,-3.3788,-3.3807,-3.3807,-3.3807,-3.3793,-3.381,-3.3743,-3.2065,-3.1264,-3.1267,-3.1297,-3.2231,-3.3807,-3.3807,-3.3807,-3.3807,-3.3807,-3.3807,-3.3807,-3.3807,-3.3807,-3.3807,-2.889,-2.8915,-2.8876,-2.89,-2.8253,-2.7514,-2.7037,-2.729,-2.779,-2.8188,-2.8457,-2.8583,-2.8466,-2.8876,-2.93,-2.9724,-2.9973,-3.0132,-3.0155,-2.8487,-2.7923,-2.8813,-2.5647,-2.4607,-2.6258,-2.4522,-2.3295,-2.2724,-2.2024,-2.147,0.0,0.0,0.0,0.0,-2.1739,-2.3096,-2.4879,-2.5153,-2.5742,-2.6489,-2.6118,-2.6078,-2.6318,0.0,-2.7235,-2.7625,-2.7625,-2.7625,0.0,-2.6887,-2.585,-2.4961,-2.5741,-2.464,-2.3212,-2.4101,-2.4141,0.0,0.0,0.0,-2.3819,-2.1859,0.0,0.0,0.0,0.0,0.0,-1.9121,-1.9031,-1.8897,-1.8463,0.0,0.0,0.0,0.0,0.0,0.0,-2.0784,-2.1006,-2.1584,-2.385,-2.5893,-2.7223,0.0,0.0,0.0,-3.4129,-3.4975,-3.554,-3.5436,-3.5155,-3.4714,-3.4593,-3.4284,-3.3788,-3.3807,-3.3807,-3.3807,-3.3444,-3.2852,-3.2065,-3.1462,-3.1219,-3.1268,-3.2431,-3.3248,-3.379,-3.3796,-3.3797,-3.3789,-3.3798,-3.3807,-3.3807,-3.3807,-3.3807,-3.3807,-2.8078,-2.7731,-2.7525,-2.8075,-2.7501,-2.6889,-2.6627,-2.6752,-2.729,-2.8442,-2.8382,-2.839,-2.8799,-2.9022,-2.9315,-2.9724,-2.9987,-3.0174,-3.0208,-2.889,-2.8411,-2.8951,-2.6586,-2.5821,-2.7006,-2.5241,-2.3999,-2.337,-2.2248,-2.1365,-2.0707,0.0,0.0,0.0,-2.0797,-2.2534,-2.5129,-2.5205,-2.5999,-2.7178,-2.6574,-2.6303,-2.6393,0.0,-2.7275,-2.6931,0.0,-2.7625,-2.7625,-2.7625,-2.6792,-2.6032,-2.724,-2.5987,-2.4303,-2.5423,-2.5184,-2.4496,-2.398,-2.4712,0.0,-2.2921,-2.2996,0.0,-2.0602,0.0,-1.9987,0.0,0.0,-1.8915,-2.0181,0.0,0.0,0.0,0.0,0.0,0.0,-1.9883,-1.9793,-2.0233,-2.2173,-2.4163,-2.5868,-2.8429,-3.0881,-3.3044,-3.4113,-3.4944,0.0,-3.5545,-3.5304,-3.487,-3.4734,-3.4442,-3.3935,-3.3842,-3.3734,-3.3578,-3.3202,-3.2485,-3.1515,-3.1317,-3.1175,-3.1257,-3.2389,-3.3247,-3.3795,-3.3821,-3.3439,-3.2956,-3.3561,-3.3406,-3.2948,-3.356,-3.3817,-3.3807,-2.6691,-2.6332,-2.6405,-2.7712,-2.7063,-2.6321,-2.6489,-2.6048,-2.6408,-2.8353,-2.8083,-2.8218,-2.9535,-3.0208,-3.0552,-3.0552,-3.115,-3.1001,-2.9759,-2.9503,-2.949,-2.9699,-2.8858,-2.8759,-2.9579,-2.6976,-2.5285,-2.4582,-2.2697,-2.141,-2.0767,0.0,0.0,0.0,-1.9735,-2.1538,-2.4486,-2.4486,-2.6001,-2.8431,-2.781,-2.758,-2.7535,-2.7595,-2.6752,-2.5779,-2.7096,-2.7625,-2.7625,-2.7625,-2.7625,-2.7625,-2.7625,-2.7625,-2.7625,-2.7625,-2.7625,-2.7305,-2.6048,-2.5704,-2.539,-2.4029,0.0,0.0,0.0,0.0,-2.1054,0.0,0.0,0.0,-2.4301,0.0,0.0,0.0,0.0,0.0,-1.9668,-1.9045,-1.8789,-1.9259,-2.0437,-2.2227,-2.4823,-2.6109,-2.8517,-3.2771,-3.3035,-3.3778,-3.5515,-3.5455,-3.5292,-3.5105,-3.4851,-3.4529,-3.42,-3.3935,-3.3606,-3.3184,-3.3045,-3.2685,-3.2086,-3.1496,-3.1202,-3.1179,-3.1201,-3.2204,-3.3798,-3.3797,-3.2827,-3.1476,-3.3069,-3.2703,-3.1512,-3.3196,-3.3796,-3.3807,-2.6691,-2.6332,-2.6003,-2.5934,-2.5435,-2.5063,-2.5106,-2.6243,-2.744,-2.8472,-2.9265,-3.0073,-3.0941,-3.118,-3.127,-3.127,-3.1377,-3.1332,-3.1046,-3.0086,-2.9997,-3.1001,-2.8955,-2.8375,-2.9564,-2.6976,-2.5285,-2.4582,-2.3146,-2.2084,-2.144,0.0,0.0,0.0,-2.0453,-2.1957,-2.4486,-2.4006,-2.5395,-2.781,-2.766,-2.6976,-2.6213,0.0,-2.6752,-2.5779,-2.7096,-2.7625,-2.7625,-2.7625,-2.7625,-2.7625,-2.7625,-2.7625,-2.7625,-2.7625,-2.7625,-2.755,-2.7156,-2.7066,-2.6752,-2.542,-2.5091,-2.4822,0.0,0.0,0.0,0.0,0.0,0.0,0.0,0.0,0.0,-1.8818,-1.8509,-1.8505,-1.8825,-1.8709,-1.8825,-1.9438,-2.1561,-2.2975,-2.3031,-2.5882,-2.8743,-3.1149,-3.2508,-3.3934,-3.5605,0.0,-3.4078,-3.5066,-3.4851,-3.4529,-3.42,-3.3935,-3.3606,-3.3184,-3.2816,-3.2457,-3.2086,-3.1496,-3.1202,-3.1196,-3.12,-3.2195,-3.3788,-3.3802,-3.3552,-3.3037,-3.2213,-3.2389,-3.3198,-3.3647,-3.3808,-3.3807,-2.6691,-2.6332,-2.5762,-2.4973,-2.5378,-2.5722,-2.5528,-2.5689,-2.6497,-2.8353,-2.8966,-2.9594,-3.0567,-3.1195,-3.1482,-3.1482,-3.1482,-3.1228,-3.0717,-3.0522,-3.0507,-3.0672,-2.9804,-2.9654,-3.0417,-2.8412,-2.6871,-2.5914,-2.4612,0.0,-2.2128,0.0,0.0,0.0,-2.0842,-2.1972,-2.4138,-2.4664,-2.5757,-2.7157,-2.747,-2.7126,0.0,-2.729,-2.7111,-2.6557,-2.7355,-2.7625,-2.7625,-2.7625,-2.7625,-2.7625,-2.7625,-2.7625,-2.7625,-2.7625,-2.7625,-2.7625,-2.7625,-2.7625,-2.748,-2.697,-2.6868,-2.6612,-2.5544,-2.5313,-2.5417,0.0,-2.495,-2.4426,0.0,0.0,0.0,-1.7852,-1.7794,-1.8125,-1.8547,-1.8697,-1.8948,-1.9409,-2.0872,-2.184,-2.179,-2.5962,-2.9085,-3.0108,-3.1051,-3.214,-3.3393,0.0,-3.2962,-3.4087,-3.4618,-3.4774,-3.4595,-3.4171,-3.3768,-3.3375,-3.2978,-3.2519,-3.1946,-3.1442,-3.1199,-3.1231,-3.2022,-3.2437,-3.2638,-3.2639,-3.2643,-3.2573,-3.1583,-3.2283,-3.38,-3.3779,-3.3807,-3.3798,-2.6691,-2.6332,-2.5689,-2.4776,-2.6172,-2.728,-2.7005,-2.5545,-2.5544,-2.8353,-2.8353,-2.8532,-2.9699,-3.0851,-3.1482,-3.1482,-3.1482,-3.1046,-2.9909,-3.0911,-3.1031,-2.9894,-3.0926,-3.1482,-3.1482,-3.0253,-2.8921,-2.7625,-2.6258,0.0,0.0,0.0,0.0,-2.1665,-2.1006,-2.1805,-2.3858,-2.5699,-2.6632,-2.6941,-2.7473,-2.771,-2.771,-2.7625,-2.7625,-2.7625,-2.7625,-2.7625,-2.7625,-2.7625,-2.7625,-2.7625,-2.7625,-2.7625,-2.7625,-2.7625,-2.7625,-2.7625,-2.771,-2.771,-2.786,-2.8463,-2.8606,-2.831,-2.7178,-2.692,-2.7078,-2.7686,-2.6262,-2.6149,0.0,0.0,0.0,-1.8682,-1.8814,-1.9283,-1.9564,-1.983,-1.9935,-1.9806,-2.027,0.0,-2.0891,-2.563,-2.8774,-2.896,-2.8925,-2.945,-3.0696,0.0,-3.1949,-3.3218,-3.4454,-3.5105,-3.5105,0.0,-3.4043,-3.3587,-3.3375,-3.2809,-3.1932,-3.1513,-3.1252,-3.1289,-3.305,-3.292,-3.1542,-3.1541,-3.1416,-3.1198,-3.1452,-3.2474,-3.3803,-3.3808,-3.3807,-3.3817,-2.6691,-2.6332,-2.5924,-2.5762,-2.6668,-2.7753,-2.8754,-2.9185,-2.9388,-2.9432,-3.0253,-3.0926,-3.1165,-3.1405,-3.1482,-3.1482,-3.1482,-3.1377,-3.121,-3.1347,-3.1377,-3.121,-3.1347,-3.1482,-3.1482,-3.0253,-2.8921,-2.7625,-2.6258,0.0,0.0,0.0,0.0,-2.1665,-2.1006,-2.2063,-2.4449,-2.5901,0.0,-2.8876,-2.8497,-2.8319,-2.8286,-2.781,-2.7625,-2.7625,-2.7625,-2.7625,-2.7625,-2.7625,-2.7625,-2.7625,-2.7625,-2.7625,-2.7625,-2.7625,-2.7625,-2.771,-2.8189,-2.8319,-2.8511,-2.9088,-2.9225,-2.931,-2.9548,-2.9633,-2.9815,-3.0387,-3.02,-2.961,-2.8583,0.0,0.0,0.0,0.0,-2.4563,-2.4829,-2.51,-2.4542,-2.2575,-2.4529,-2.4403,-2.0255,-2.2958,-2.5297,-2.615,-2.6248,-2.7845,-3.1474,0.0,-3.1313,0.0,-3.5124,0.0,0.0,0.0,-3.4255,-3.3587,-3.3551,-3.3273,-3.2769,-3.2209,-3.1659,-3.1298,-3.3051,-3.3637,-3.3346,-3.333,-3.2494,-3.1323,-3.2777,-3.3527,-3.3803,-3.3808,-3.3807,-3.3807,-2.6691,-2.6521,-2.653,-2.704,-2.8362,-2.965,-3.0408,-3.1759,-3.2053,-3.0324,-3.0377,-3.0522,-3.0522,-3.112,-3.1482,-3.1482,-3.1482,-3.1482,-3.1482,-3.1482,-3.1482,-3.1482,-3.1482,-3.1482,-3.1482,-3.0911,-2.943,-2.7066,0.0,0.0,0.0,0.0,0.0,-2.1749,-2.2437,-2.3281,-2.4257,0.0,0.0,-2.8954,-2.9372,-2.9312,-2.8919,-2.8638,-2.8528,-2.8528,-2.8528,-2.8528,-2.8448,-2.781,-2.7625,-2.7625,-2.7625,-2.7625,-2.7625,-2.7625,-2.7625,-2.771,-2.8334,-2.8511,-2.8732,-2.9629,-2.9865,-3.0021,-3.0617,-3.0757,-3.0838,-3.1151,-3.119,-3.0573,-2.8528,-2.6347,0.0,0.0,0.0,0.0,-2.5986,-2.6439,-2.6222,-2.5208,-2.5155,-2.4302,-2.19,-2.1768,-2.2795,-2.5166,-2.5466,-2.721,0.0,0.0,-3.0821,0.0,0.0,0.0,0.0,0.0,0.0,-3.4373,-3.4054,-3.3697,-3.3316,-3.3073,-3.2683,-3.2188,-3.3301,-3.3822,-3.3712,-3.2809,-3.2497,-3.2619,-3.3484,-3.3807,-3.3816,-3.3808,-3.3807,-3.3798,-2.7114,-2.7182,-2.7533,-2.866,-3.0398,-3.1733,-3.1936,-3.3465,-3.3763,-3.153,-3.0624,-3.0256,-3.0256,-3.1024,-3.1482,-3.1482,-3.1482,-3.1482,-3.1482,-3.1482,-3.1482,-3.1482,-3.1482,-3.1482,-3.1482,-3.1482,-3.0158,-2.7448,0.0,0.0,0.0,0.0,0.0,0.0,0.0,0.0,0.0,0.0,-2.9697,-2.9626,-3.0526,-3.0467,-2.9794,-2.9675,-2.9534,-2.9406,-2.9406,-2.9406,-2.9271,-2.8304,-2.7993,-2.7944,-2.781,-2.7894,-2.7993,-2.7993,-2.7993,-2.8125,-2.8732,-2.8873,-2.9134,-3.0208,-3.0477,-3.0617,-3.1095,-3.119,-3.119,-3.119,-3.119,-3.0649,-2.8847,-2.7247,0.0,0.0,0.0,0.0,0.0,-2.8036,-2.8112,-2.7811,-2.6037,-2.4732,-2.4439,-2.2615,-2.2635,-2.5461,-2.5341,-2.6653,-3.017,0.0,0.0,0.0,0.0,-3.4982,-3.4768,0.0,-3.5174,-3.5105,-3.4615,-3.4209,-3.3813,-3.3863,-3.3621,-3.3201,-3.3608,-3.3814,-3.3671,-3.2332,-3.257,-3.381,-3.3796,-3.3788,-3.3807,-3.3807,-3.3807,-3.3817,-2.8501,-2.8772,-2.9228,-3.0678,-3.2165,-3.3195,-3.3246,-3.401,-3.4284,-3.3457,-3.2745,-3.2292,-3.2292,-3.1834,-3.1482,-3.1482,-3.1482,-3.1482,-3.1482,-3.1482,-3.1482,-3.1482,-3.1482,-3.1482,-3.1482,-3.1482,-3.1097,-3.0231,0.0,-2.6168,0.0,0.0,0.0,0.0,0.0,0.0,0.0,-3.0278,-3.1383,-3.2917,-3.2481,-3.1863,-3.1161,-3.061,-2.9996,-2.9406,-2.9406,-2.9406,-2.9361,-2.9271,-2.9225,-2.9134,-2.8606,-2.8779,-2.9225,-2.9225,-2.9225,-2.9361,-2.9995,-3.0123,-3.0293,-3.0958,-3.1112,-3.1151,-3.119,-3.119,-3.119,-3.119,-3.119,-3.0649,-2.8847,-3.0269,-3.1249,0.0,0.0,0.0,0.0,-3.3309,-3.2687,-3.0516,-3.0265,-2.9423,-2.7258,-2.6949,-2.6956,-2.7167,-2.5182,0.0,0.0,0.0,0.0,-3.2047,0.0,-3.2996,-3.2062,-3.4375,-3.5411,-3.5105,-3.5034,-3.487,-3.4593,-3.4284,-3.4011,-3.3722,-3.3776,-3.3797,-3.3796,-3.3625,-3.366,-3.3791,-3.3817,-3.3798,-3.3807,-3.3807,-3.3807,-3.3807,-3.025,-3.0323,0.0,0.0,0.0,0.0,0.0,-3.4975,-3.5098,-3.4864,-3.3853,-3.3182,-3.3182,-3.2586,-3.2176,-3.2176,-3.2176,-3.1951,-3.1524,-3.2296,-3.2571,-3.216,-3.2571,-3.2772,-3.2772,-3.2772,-3.204,0.0,0.0,0.0,0.0,0.0,0.0,0.0,0.0,-2.9739,-3.1307,-3.288,-3.3768,-3.4049,-3.3816,-3.3275,-3.2579,-3.2347,-3.1795,-3.1148,-3.1148,-3.0841,-3.0435,-3.0064,-2.9717,-2.9361,-2.9134,-2.9225,-2.9406,-2.9406,-2.9406,-2.954,-3.0123,-3.0293,-3.0435,-3.1055,-3.119,-3.119,-3.119,-3.119,-3.119,-3.119,-3.1372,-3.1438,-3.097,-3.0684,-3.0892,-3.2019,0.0,0.0,0.0,-3.3902,-3.3667,-3.2877,-3.1672,-3.058,-2.9645,-2.8384,-2.7797,0.0,0.0,0.0,0.0,0.0,0.0,-3.2754,0.0,-3.4628,-3.4222,-3.519,-3.5561,-3.5411,-3.5243,-3.5076,-3.4926,-3.4634,-3.4248,-3.3817,-3.3792,-3.3808,-3.3807,-3.3789,-3.3781,-3.3807,-3.3789,-3.3807,-3.3807,-3.3807,-3.3807,-3.3807,-3.2072,0.0,-3.2491,0.0,-3.4066,-3.4404,-3.5453,-3.5622,-3.5622,-3.5622,-3.4769,-3.4087,-3.3937,-3.3287,-3.2895,-3.2895,-3.2895,-3.268,-3.2145,-3.3024,-3.3391,-3.2895,-3.3339,0.0,-3.3582,-3.3582,-3.2996,-3.1767,-2.9408,0.0,0.0,0.0,0.0,0.0,-3.0865,-3.214,-3.2988,-3.4813,-3.5318,-3.4827,-3.4827,-3.4387,-3.3728,-3.3728,-3.3271,-3.2611,-3.2611,-3.2138,-3.1472,-3.1016,-3.0474,-2.9892,-2.9717,-2.9805,-2.9951,-2.9951,-2.9951,-3.0021,-3.0435,-3.0559,-3.0658,-3.1095,-3.119,-3.119,-3.119,-3.119,-3.123,-3.1351,-3.1603,-3.1986,-3.2583,-3.1421,-3.1132,-3.3433,0.0,0.0,0.0,-3.3807,-3.3644,-3.3189,-3.1759,-3.0904,-3.1094,-2.967,-2.897,0.0,0.0,0.0,0.0,0.0,0.0,0.0,0.0,0.0,-3.4766,-3.5425,-3.5716,-3.5628,-3.5432,-3.5307,-3.5245,-3.4944,-3.454,-3.405,-3.3987,-3.3963,-3.3963,-3.3843,-3.3792,-3.381,-3.3778,-3.3807,-3.3807,-3.3807,-3.3807,-3.3807,-3.399,-3.4157,-3.4456,-3.5423,-3.5588,-3.5605,-3.5622,-3.5622,-3.5622,-3.5622,-3.5577,-3.5316,-3.4688,-3.3987,-3.3582,-3.3582,-3.3582,-3.3582,-3.3598,-3.3582,-3.3598,0.0,0.0,-3.3582,-3.3582,-3.3582,-3.3921,-3.4543,0.0,0.0,-3.242,0.0,-2.9711,-3.1656,-3.1689,-3.3121,-3.5526,-3.556,-3.556,-3.5605,-3.5605,-3.5148,-3.4472,-3.4472,-3.4032,-3.3389,-3.3389,-3.2899,-3.2313,-3.2256,-3.1782,-3.1055,-3.0477,-3.0699,-3.119,-3.119,-3.119,-3.119,-3.119,-3.119,-3.119,-3.119,-3.119,-3.119,-3.119,-3.119,-3.1329,-3.1733,-3.1789,-3.2092,-3.3014,-3.3148,-3.3296,-3.3734,0.0,0.0,0.0,-3.3807,-3.3018,-3.0903,-3.0609,-3.081,-3.1346,-3.1369,-3.1369,0.0,0.0,0.0,0.0,0.0,0.0,-3.2031,-3.2871,0.0,-3.2051,-3.4609,-3.5823,-3.5696,-3.5709,-3.5661,-3.557,-3.5261,-3.4944,-3.4694,-3.4485,-3.437,-3.435,-3.3975,-3.3799,-3.3812,-3.381,-3.3807,-3.3807,-3.3807,-3.3807,-3.3807,-3.6249,-3.6251,-3.6214,-3.6172,-3.6139,-3.6028,-3.5667,-3.5622,-3.5622,-3.5622,-3.5622,-3.5515,-3.5316,-3.4688,-3.4284,0.0,-3.4284,-3.4087,0.0,-3.4447,-3.4752,-3.4284,-3.4704,-3.4958,-3.4958,-3.4958,-3.5068,-3.5253,0.0,0.0,0.0,-3.1541,-3.2278,-3.4381,-3.4381,-3.4813,-3.5622,-3.5622,-3.5622,-3.5622,-3.5622,-3.547,-3.5267,-3.5267,-3.4793,-3.415,-3.415,-3.3677,-3.3051,-3.3051,-3.2544,-3.1935,-3.1698,-3.1459,-3.119,-3.119,-3.119,-3.119,-3.119,-3.119,-3.119,-3.119,-3.1411,-3.1603,-3.1603,-3.1842,-3.2127,-3.2248,-3.2533,-3.284,-3.3136,-3.3419,-3.3652,-3.378,-3.3807,0.0,-3.3807,0.0,-3.3607,-3.3115,-3.3045,-3.3266,-3.3868,-3.3917,0.0,0.0,0.0,0.0,0.0,0.0,0.0,0.0,-3.4166,0.0,-3.4668,-3.5488,-3.5877,-3.5845,-3.584,-3.5783,-3.5661,-3.536,-3.5166,-3.5031,-3.4829,-3.4737,-3.4751,-3.4894,-3.4739,-3.4376,-3.3966,-3.3784,-3.3796,-3.3795,-3.3807,-3.3807,-3.7546,-3.7449,-3.7291,-3.6799,-3.6684,-3.6603,-3.6249,-3.6011,-3.5898,-3.5898,-3.5739,-3.5622,-3.5622,-3.5207,0.0,-3.4988,-3.4988,-3.48,-3.4399,-3.5161,-3.5407,-3.4988,-3.5362,-3.5622,-3.5622,-3.5622,0.0,-3.5622,-3.4218,-3.3541,-3.3541,-3.3541,-3.4286,-3.5622,-3.5622,-3.5622,-3.5622,-3.5622,-3.5622,-3.5622,-3.5622,-3.5622,-3.5622,-3.5622,-3.5318,-3.4912,-3.4912,-3.4438,-3.3855,-3.4048,-3.3618,-3.3026,-3.3227,-3.2731,-3.2056,-3.1572,-3.1411,-3.1411,-3.1411,-3.1545,-3.1657,-3.1487,-3.1733,-3.2057,-3.2057,-3.2282,-3.255,-3.2713,-3.2983,-3.3243,-3.3408,-3.3625,-3.3807,-3.3807,-3.3807,-3.3807,-3.3807,0.0,-3.3685,-3.2929,0.0,0.0,0.0,-3.3723,-3.3555,0.0,0.0,0.0,0.0,0.0,0.0,-3.4039,-3.5095,0.0,-3.5821,-3.5825,-3.5821,-3.5821,-3.5827,-3.58,-3.5773,-3.5542,-3.543,-3.538,-3.522,-3.5162,-3.517,-3.5306,-3.5211,-3.4945,-3.4414,-3.4027,-3.3794,-3.3808,-3.3802,-3.3807,-3.8047,-3.7976,-3.7808,0.0,-3.7248,0.0,-3.721,-3.6764,-3.6457,-3.6457,-3.6011,-3.5694,-3.5694,-3.5694,-3.5694,-3.5694,0.0,0.0,0.0,-3.5622,-3.5622,-3.5622,-3.5622,-3.5622,-3.5622,-3.5622,-3.5622,-3.5622,-3.5622,-3.5622,-3.5622,-3.5622,-3.5622,-3.5622,-3.5622,-3.5622,-3.5622,-3.5622,-3.5622,-3.5622,-3.5622,-3.5622,-3.5622,-3.5622,-3.5622,-3.5622,-3.5667,-3.5209,-3.4729,-3.5261,-3.4918,-3.4408,-3.4854,-3.4428,-3.3545,-3.23,-3.1896,-3.1861,-3.1861,-3.2179,-3.2417,-3.1951,-3.2196,-3.255,-3.2583,-3.2583,-3.2713,-3.3136,-3.3243,-3.3379,-3.3734,-3.3807,-3.3807,-3.3807,-3.3807,-3.3807,-3.3815,-3.4043,-3.3384,0.0,0.0,0.0,0.0,-3.1675,-3.2656,0.0,0.0,0.0,0.0,0.0,-3.291,-3.5507,-3.5603,-3.5641,-3.5699,-3.5698,-3.5702,-3.5709,-3.5706,-3.5781,-3.5898,-3.5782,-3.5723,-3.5717,-3.5646,-3.5605,-3.5589,-3.5261,-3.5291,-3.5465,-3.5059,-3.4513,-3.3906,-3.3864,-3.384,-3.3868,0.0,0.0,-3.835,-3.7843,-3.772,-3.7614,-3.7248,-3.7097,-3.702,-3.702,-3.6904,-3.6825,-3.6825,-3.6825,-3.6825,-3.6825,-3.6097,-3.5622,-3.5622,-3.5622,-3.5622,-3.5622,-3.5622,-3.5622,-3.5622,-3.5622,-3.5622,-3.5622,-3.5622,-3.5622,-3.5622,-3.5622,-3.5622,-3.5622,-3.5622,-3.5622,-3.5622,-3.5622,-3.5622,-3.5622,-3.5622,-3.5622,-3.5622,-3.5622,-3.5622,-3.565,-3.6054,-3.6104,-3.6015,-3.6562,-3.6227,-3.5594,-3.5686,-3.5226,-3.4446,-3.3528,-3.2842,-3.2332,-3.2332,-3.2417,-3.2484,-3.235,-3.2681,-3.3105,-3.3419,-3.3476,-3.3504,-3.3652,-3.3652,-3.368,-3.3762,-3.3807,-3.3807,-3.3807,-3.3807,-3.3876,-3.4093,-3.4171,-3.4177,0.0,-3.3904,-3.3997,-3.4477,-3.4355,-3.3769,0.0,0.0,0.0,0.0,-3.2025,-3.2872,-3.5449,-3.5526,-3.5565,-3.5622,-3.5624,-3.5642,-3.5693,-3.5795,-3.5879,-3.5898,-3.5914,-3.5891,-3.5851,-3.5837,-3.5748,-3.5589,-3.5508,-3.5494,-3.5479,-3.5162,-3.5058,-3.504,-3.4465,-3.436,-3.4505,-3.8707,-3.8707,-3.8627,-3.8318,-3.8267,-3.8183,-3.7929,-3.7667,-3.7506,-3.7506,-3.7323,-3.719,-3.719,-3.719,-3.719,-3.719,-3.644,-3.5985,-3.5985,-3.5739,-3.5622,-3.5622,-3.5622,-3.5622,-3.5622,-3.5622,-3.5622,-3.5622,-3.5622,-3.5739,-3.5985,-3.5694,-3.5739,-3.5941,-3.5694,-3.5622,-3.5622,-3.5622,-3.5622,-3.5622,-3.5622,-3.5622,-3.5622,-3.5854,-3.5985,-3.6054,-3.6563,-3.6764,-3.6825,-3.736,-3.7238,-3.6916,-3.716,-3.6721,-3.5981,-3.5566,-3.4451,-3.3273,-3.2916,-3.2934,-3.3087,-3.3087,-3.3284,-3.3522,-3.3734,-3.3807,-3.3807,-3.3807,-3.3807,-3.3807,-3.3807,-3.3807,-3.3807,-3.3807,-3.293,-3.2693,-3.4003,-3.343,-3.3431,-3.4918,-3.5088,-3.519,-3.546,-3.5369,-3.4779,-3.3532,-3.3449,0.0,-3.3449,-3.3449,-3.4083,-3.5468,-3.5493,-3.5526,-3.5565,-3.5565,-3.5603,-3.5661,-3.5735,-3.581,-3.5898,-3.5937,-3.5957,-3.5937,-3.5918,-3.5835,-3.5718,-3.5635,-3.5584,-3.5532,-3.5354,-3.5302,-3.5259,-3.4869,-3.4756,-3.4788,-3.8707,-3.8707,-3.8707,-3.8707,-3.8707,-3.8707,-3.8707,-3.83,-3.8013,-3.8013,-3.7667,-3.7414,-3.7414,-3.7414,-3.7414,-3.7414,-3.696,-3.6603,-3.6539,-3.6097,-3.5854,-3.5854,-3.5783,-3.5739,-3.5739,-3.5667,-3.5622,-3.5622,-3.5622,-3.5854,-3.6374,-3.5941,-3.6028,-3.6498,-3.6054,-3.5854,-3.5854,-3.5854,-3.5854,-3.5854,-3.5854,-3.5854,-3.5898,-3.6333,-3.6539,-3.658,-3.7097,-3.7285,-3.736,-3.7877,-3.8013,-3.8099,-3.8546,-3.823,-3.7643,-3.7544,-3.6261,-3.4661,-3.3737,-3.3642,-3.3807,-3.3807,-3.3807,-3.3807,-3.3807,-3.3807,-3.3807,-3.3807,-3.3807,-3.3807,-3.3807,-3.3842,-3.3739,-3.3345,-3.2014,-3.1682,-3.3508,0.0,-3.2686,-3.489,-3.5369,-3.5493,-3.5493,-3.5493,-3.5493,-3.5493,-3.5493,-3.5493,-3.5493,-3.5493,-3.5493,-3.5493,-3.5493,-3.5493,-3.5493,-3.5493,-3.5545,-3.5603,-3.5603,-3.5679,-3.5867,-3.5897,-3.5937,-3.5996,-3.5937,-3.5918,-3.5897,-3.5688,-3.5605,-3.5603,-3.5545,-3.5369,-3.5155,-3.5155,-3.5092,-3.4983,-3.8707,-3.8707,-3.8707,-3.8707,-3.8707,-3.8707,-3.8707,-3.8627,-3.8596,-3.8596,-3.8515,-3.8483,-3.8483,-3.8483,-3.8483,-3.8483,-3.7964,-3.7506,-3.7097,-3.6981,-3.6943,-3.6943,-3.6522,-3.6266,-3.6266,-3.581,-3.5622,-3.5622,-3.5622,-3.5854,-3.6374,-3.6291,-3.6563,-3.7058,-3.6981,-3.6943,-3.6943,-3.6943,-3.6943,-3.6943,-3.6943,-3.6943,-3.6943,-3.702,-3.7076,-3.7135,-3.7614,-3.779,-3.7877,-3.8382,-3.8596,-3.8578,-3.8658,-3.8615,-3.8377,-3.7679,-3.7264,-3.6673,-3.5154,-3.4266,-3.3807,-3.3807,-3.3807,-3.3807,-3.3807,-3.3807,-3.3807,-3.3807,-3.3807,-3.3807,-3.3807,-3.3986,-3.3436,-3.1279,-3.2673,-3.3505,-3.1967,0.0,-3.4751,-3.536,-3.546,-3.5493,-3.5493,-3.5493,-3.5493,-3.5493,-3.5493,-3.5493,-3.5493,-3.5493,-3.5493,-3.5493,-3.5493,-3.5493,-3.5493,-3.5493,-3.5526,-3.5526,-3.5584,-3.5656,-3.5739,-3.5841,-3.5937,-3.5996,-3.5996,-3.5957,-3.5898,-3.5747,-3.5649,-3.5603,-3.5545,-3.546,-3.5432,-3.5432,-3.5417,-3.5407,-3.8707,-3.8707,-3.8707,-3.8707,-3.8707,-3.8707,-3.8707,-3.8707,-3.8707,-3.8707,-3.8707,-3.8707,-3.8707,-3.8707,-3.8707,-3.8707,-3.8465,-3.8234,-3.8016,-3.7487,-3.719,-3.719,-3.6943,-3.6843,-3.6843,-3.6603,-3.6481,-3.6481,-3.6481,-3.6706,-3.7193,-3.6943,-3.7097,-3.7578,-3.7323,-3.719,-3.719,-3.719,-3.719,-3.719,-3.719,-3.719,-3.7228,-3.747,-3.7578,-3.7649,-3.815,-3.8332,-3.8382,-3.8627,-3.8707,-3.8707,-3.8707,-3.8707,-3.8634,-3.8248,-3.7533,-3.6578,-3.532,-3.4715,-3.4357,-3.3917,-3.3807,-3.3807,-3.3807,-3.3807,-3.3807,-3.3807,-3.3807,-3.3842,-3.3986,-3.4123,-3.3873,-3.2882,-3.2807,0.0,0.0,-3.3295,-3.382,-3.532,-3.5493,-3.5493,-3.5493,-3.5493,-3.5493,-3.5493,-3.5493,-3.5493,-3.5493,-3.5493,-3.5493,-3.5493,-3.5493,-3.5493,-3.5493,-3.5493,-3.5493,-3.5493,-3.5545,-3.5603,-3.5694,-3.5768,-3.5862,-3.5996,-3.5996,-3.5976,-3.5957,-3.5845,-3.5741,-3.5661,-3.5584,-3.5545,-3.5493,-3.5493,-3.5493,-3.5493,-3.8707,-3.8707,-3.8707,-3.8707,-3.8707,-3.8707,-3.8707,-3.8707,-3.8707,-3.8707,-3.8707,-3.8707,-3.8707,-3.8707,-3.8707,-3.8707,-3.8707,-3.8707,-3.8707,-3.7982,-3.756,-3.756,-3.7433,-3.7323,-3.721,-3.719,-3.719,-3.719,-3.719,-3.7433,-3.7893,-3.7542,-3.7614,-3.8065,-3.7703,-3.756,-3.756,-3.756,-3.756,-3.756,-3.756,-3.756,-3.7596,-3.7964,-3.8099,-3.815,-3.8546,-3.8707,-3.8707,-3.8707,-3.8707,-3.8707,-3.8707,-3.8707,-3.8707,-3.8707,-3.7826,-3.6633,-3.5605,-3.5137,-3.4844,-3.4229,-3.3935,-3.3807,-3.3807,-3.3807,-3.3815,-3.3876,-3.3902,-3.3986,-3.4265,-3.436,-3.4301,-3.396,0.0,0.0,0.0,-3.3316,-3.3314,-3.5276,-3.5493,-3.557,-3.5757,-3.5795,-3.5872,-3.6084,-3.6084,-3.6084,-3.6084,-3.6084,-3.6084,-3.6084,-3.5699,-3.5493,-3.5493,-3.5493,-3.5493,-3.5493,-3.5493,-3.5584,-3.5694,-3.5706,-3.5806,-3.5996,-3.5996,-3.5996,-3.5996,-3.5937,-3.5812,-3.57,-3.563,-3.5565,-3.5493,-3.5493,-3.5493,-3.5493,-3.8707,-3.8707,-3.8707,-3.8707,-3.8707,-3.8707,-3.8707,-3.8707,-3.8707,-3.8707,-3.8707,-3.8707,-3.8707,-3.8707,-3.8707,-3.8707,-3.8707,-3.8707,-3.8707,-3.8627,-3.8596,-3.8596,-3.8099,-3.7649,-3.7228,-3.719,-3.719,-3.719,-3.719,-3.7433,-3.7893,-3.7859,-3.815,-3.8627,-3.8596,-3.8596,-3.8596,-3.8596,-3.8596,-3.8596,-3.8596,-3.8596,-3.8596,-3.8627,-3.8627,-3.8658,-3.8676,-3.8707,-3.8707,-3.8707,-3.8707,-3.8707,-3.8707,-3.8707,-3.8707,-3.8707,-3.8615,-3.8193,-3.6633,-3.5624,-3.4972,-3.4917,-3.4357,-3.3807,-3.3807,-3.3807,-3.385,-3.4123,-3.4171,-3.4288,-3.4593,-3.487,-3.4272,-3.1933,0.0,0.0,-3.225,-3.384,-3.5295,-3.5488,-3.5493,-3.5795,-3.6546,-3.6622,-3.6949,-3.7757,-3.7815,-3.7815,-3.7815,-3.7815,-3.7815,-3.7815,-3.6315,-3.5493,-3.5493,-3.5493,-3.5493,-3.5493,-3.5493,-3.5584,-3.5694,-3.5706,-3.5806,-3.5996,-3.5996,-3.5996,-3.5996,-3.5937,-3.5815,-3.5687,-3.5623,-3.5565,-3.5493,-3.5493,-3.5493,-3.5493,-3.8958,-3.8799,-3.8707,-3.8707,-3.8707,-3.8707,-3.8707,-3.8707,-3.8707,-3.8707,-3.8707,-3.8707,-3.8707,-3.8707,-3.8707,-3.8707,-3.8707,-3.8707,-3.8707,-3.8707,-3.8707,-3.8707,-3.8496,-3.8318,-3.8135,-3.8135,-3.8135,-3.8135,-3.8135,-3.8201,-3.8382,-3.8382,-3.8496,-3.8707,-3.8707,-3.8707,-3.8707,-3.8707,-3.8707,-3.8707,-3.8707,-3.8707,-3.8707,-3.8707,-3.8707,-3.8707,-3.8707,-3.8707,-3.8707,-3.8707,-3.8707,-3.8707,-3.8707,-3.8707,-3.8707,-3.8707,-3.8707,-3.8603,-3.8155,-3.7312,-3.647,-3.6147,-3.5829,-3.5509,-3.517,-3.5105,-3.4978,-3.458,-3.4508,-3.4593,-3.4889,-3.5016,-3.4833,-3.4021,0.0,-3.5161,-3.4199,-3.4891,-3.5699,-3.618,-3.6238,-3.6584,-3.743,-3.7507,-3.7642,-3.7988,-3.8007,-3.8007,-3.8007,-3.8007,-3.8007,-3.8007,-3.7373,-3.7046,-3.7046,-3.7046,-3.7046,-3.7046,-3.7046,-3.7137,-3.7294,-3.6744,-3.6625,-3.6777,-3.623,-3.5996,-3.5996,-3.5976,-3.5915,-3.5809,-3.5695,-3.5622,-3.5565,-3.5526,-3.5493,-3.5493,-3.9259,-3.911,-3.897,-3.897,-3.897,-3.897,-3.897,-3.897,-3.8942,-3.8844,-3.8815,-3.8803,-3.8707,-3.8707,-3.8707,-3.8707,-3.8707,-3.8707,-3.8707,-3.8707,-3.8707,-3.8707,-3.8707,-3.8707,-3.8707,-3.8707,-3.8707,-3.8707,-3.8707,-3.8707,-3.8707,-3.8707,-3.8707,-3.8707,-3.8707,-3.8707,-3.8707,-3.8707,-3.8707,-3.8707,-3.8707,-3.8707,-3.8707,-3.8707,-3.8707,-3.8707,-3.8707,-3.8707,-3.8707,-3.8707,-3.8707,-3.8707,-3.8707,-3.8762,-3.8815,-3.8815,-3.8902,-3.9008,-3.9205,-3.8726,-3.7997,-3.7399,-3.7042,-3.6752,-3.6392,-3.6302,-3.619,-3.5702,-3.5608,-3.5685,-3.5954,-3.6007,-3.6074,-3.6248,-3.6295,-3.6199,-3.593,-3.6122,-3.6392,-3.668,-3.6949,-3.745,-3.8315,-3.8411,-3.8507,-3.8777,-3.8796,-3.8796,-3.8796,-3.8796,-3.8796,-3.8796,-3.8796,-3.8796,-3.8796,-3.8257,-3.8007,-3.8007,-3.8007,-3.8099,-3.829,-3.7685,-3.7527,-3.7676,-3.707,-3.6816,-3.6816,-3.6816,-3.6758,-3.6677,-3.6559,-3.6485,-3.6411,-3.6315,-3.6295,-3.6295,-3.9599,-3.9599,-3.9599,-3.9599,-3.9599,-3.9599,-3.9599,-3.9599,-3.9481,-3.9133,-3.9099,-3.8999,-3.8719,-3.8707,-3.8707,-3.8707,-3.8707,-3.8707,-3.8707,-3.8707,-3.8707,-3.8707,-3.8707,-3.8707,-3.8707,-3.8707,-3.8707,-3.8707,-3.8707,-3.8707,-3.8707,-3.8707,-3.8707,-3.8707,-3.8707,-3.8707,-3.8707,-3.8707,-3.8707,-3.8707,-3.8707,-3.8707,-3.8707,-3.8707,-3.8707,-3.8707,-3.8707,-3.8707,-3.8707,-3.8707,-3.8707,-3.8707,-3.8707,-3.8884,-3.908,-3.908,-3.9339,-3.9599,-3.9599,-3.9599,-3.9392,-3.8603,-3.7813,-3.7211,-3.7211,-3.7211,-3.7294,-3.7546,-3.76,-3.7672,-3.7959,-3.8007,-3.8007,-3.8007,-3.8007,-3.77,-3.6834,-3.745,-3.768,-3.6834,-3.7488,-3.8354,-3.9219,-3.9296,-3.9642,-4.0431,-4.0489,-4.0489,-4.0489,-4.0489,-4.0489,-4.0489,-4.0489,-4.0489,-4.0489,-3.8854,-3.8027,-3.8027,-3.8027,-3.8123,-3.8325,-3.8306,-3.8428,-3.8613,-3.8594,-3.8594,-3.8594,-3.8594,-3.8516,-3.8398,-3.8324,-3.8246,-3.8176,-3.8046,-3.8007,-3.8007,-3.9941,-3.9747,-3.9599,-3.9599,-3.9599,-3.9529,-3.9308,-3.9238,-3.9144,-3.8873,-3.8815,-3.8773,-3.8707,-3.8707,-3.8707,-3.8707,-3.8707,-3.8707,-3.8707,-3.8707,-3.8707,-3.8707,-3.8707,-3.8707,-3.8707,-3.8707,-3.8707,-3.8707,-3.8707,-3.8707,-3.8707,-3.8707,-3.8707,-3.8707,-3.8707,-3.8707,-3.8707,-3.8707,-3.8707,-3.8707,-3.8707,-3.8707,-3.8707,-3.8707,-3.8707,-3.8707,-3.8707,-3.8707,-3.8707,-3.8707,-3.8815,-3.9027,-3.9249,-3.9402,-3.9438,-3.9438,-3.9529,-3.9645,-3.988,-3.9943,-3.9886,-3.9638,-3.9411,-3.9147,-3.8759,-3.8676,-3.8503,-3.7993,-3.7894,-3.7909,-3.7993,-3.8007,-3.8007,-3.8007,-3.8007,-3.7911,-3.7642,-3.7834,-3.8123,-3.8469,-3.8738,-3.9238,-4.0046,-4.0142,-4.0239,-4.0469,-4.0489,-4.0489,-4.0489,-4.0489,-4.0489,-4.0489,-4.0489,-4.0489,-4.0489,-3.9988,-3.9738,-3.9738,-3.9738,-3.9869,-4.0038,-3.9471,-3.9316,-3.9473,-3.8867,-3.8594,-3.8594,-3.8594,-3.8574,-3.8515,-3.8363,-3.8294,-3.8247,-3.807,-3.8007,-3.8007,-4.0252,-4.0101,-3.9964,-3.9964,-3.9964,-3.9884,-3.9675,-3.9652,-3.9496,-3.9096,-3.9063,-3.897,-3.8738,-3.8707,-3.8707,-3.8707,-3.8707,-3.8707,-3.8707,-3.8707,-3.8707,-3.8707,-3.8707,-3.8707,-3.8707,-3.8707,-3.8707,-3.8707,-3.8707,-3.8707,-3.8707,-3.8707,-3.8707,-3.8707,-3.8707,-3.8707,-3.8707,-3.8707,-3.8707,-3.8707,-3.8707,-3.8707,-3.8707,-3.8707,-3.8707,-3.8707,-3.8707,-3.8762,-3.8855,-3.8855,-3.9054,-3.9339,-3.9552,-3.969,-3.9797,-3.9797,-3.9882,-4.0004,-4.0194,-4.0269,-4.0269,-4.0269,-4.0269,-4.017,-3.9842,-3.9758,-3.9623,-3.9104,-3.8988,-3.8988,-3.8988,-3.8988,-3.8988,-3.8988,-3.8988,-3.8873,-3.8565,-3.8796,-3.9065,-3.9277,-3.9565,-3.9969,-4.045,-4.0489,-4.0489,-4.0489,-4.0562,-4.0562,-4.0489,-4.0489,-4.0489,-4.0489,-4.0489,-4.0489,-4.0489,-4.0562,-4.0581,-4.0581,-4.0581,-4.0677,-4.0866,-4.0365,-4.0247,-4.0371,-3.9863,-3.9629,-3.9629,-3.9629,-3.9593,-3.9526,-3.9369,-3.9273,-3.9227,-3.9046,-3.8988,-3.8988,-4.0489,-4.0489,-4.0489,-4.0489,-4.0489,-4.0489,-4.0473,-4.0473,-4.0262,-3.9673,-3.9592,-3.9389,-3.8835,-3.8781,-3.8781,-3.8781,-3.8781,-3.8762,-3.8744,-3.8762,-3.8793,-3.8768,-3.8768,-3.8799,-3.8762,-3.8719,-3.8707,-3.8707,-3.8707,-3.8707,-3.8707,-3.8707,-3.8707,-3.8707,-3.8707,-3.8707,-3.8707,-3.8707,-3.8707,-3.8707,-3.8707,-3.8707,-3.8707,-3.8719,-3.875,-3.875,-3.8762,-3.8923,-3.9133,-3.916,-3.9389,-3.9645,-3.9668,-3.9882,-4.0139,-4.0139,-4.0321,-4.0489,-4.0489,-4.0489,-4.0489,-4.0489,-4.0489,-4.0489,-4.0489,-4.0489,-4.0489,-4.0489,-4.0489,-4.0489,-4.0489,-4.0489,-4.0489,-4.0489,-4.0489,-4.0239,-3.9508,-4.0027,-4.0219,-3.9508,-4.0046,-4.0508,-4.0543,-4.0508,-4.0523,-4.0534,-4.0635,-4.0639,-4.0508,-4.0489,-4.0508,-4.0508,-4.0508,-4.0508,-4.0543,-4.0658,-4.0716,-4.0696,-4.0708,-4.0804,-4.0985,-4.0985,-4.1063,-4.1191,-4.1191,-4.1191,-4.1191,-4.1191,-4.1134,-4.1001,-4.0859,-4.0765,-4.0696,-4.0562,-4.0489,-4.0489,-4.0489,-4.0489,-4.0489,-4.0489,-4.0489,-4.0441,-4.0213,-4.0177,-4.006,-3.965,-3.959,-3.9552,-3.943,-3.9393,-3.9393,-3.9393,-3.9393,-3.9283,-3.9032,-3.9265,-3.939,-3.9405,-3.9386,-3.9391,-3.9402,-3.896,-3.8707,-3.8707,-3.8707,-3.8707,-3.8707,-3.8707,-3.8707,-3.8707,-3.8707,-3.8707,-3.8707,-3.8707,-3.8707,-3.8707,-3.8707,-3.8707,-3.8719,-3.8933,-3.9008,-3.9036,-3.9327,-3.9432,-3.9529,-3.9797,-3.9922,-4.0042,-4.023,-4.0353,-4.0406,-4.0406,-4.0457,-4.0489,-4.0489,-4.0489,-4.0489,-4.0489,-4.0489,-4.0489,-4.0489,-4.0489,-4.0489,-4.0489,-4.0489,-4.0489,-4.0489,-4.0489,-4.0489,-4.0489,-4.0489,-4.0431,-4.0258,-4.0392,-4.0485,-4.0408,-4.0466,-4.0562,-4.0716,-4.0696,-4.0656,-4.0665,-4.0588,-4.0543,-4.0489,-4.0489,-4.0562,-4.0658,-4.0658,-4.0677,-4.0735,-4.0754,-4.0754,-4.0696,-4.0754,-4.087,-4.0985,-4.0985,-4.1063,-4.1191,-4.1191,-4.1191,-4.1191,-4.1191,-4.1187,-4.1129,-4.0893,-4.0791,-4.0754,-4.0581,-4.0489,-4.0489,-4.0489,-4.0489,-4.0489,-4.0489,-4.0489,-4.0457,-4.0321,-4.0304,-4.0176,-3.9886,-3.9844,-3.9781,-3.9614,-3.9593,-3.961,-3.9599,-3.9612,-3.9536,-3.9354,-3.9496,-3.9614,-3.9595,-3.9595,-3.9595,-3.9599,-3.9275,-3.9127,-3.9127,-3.9127,-3.9127,-3.9127,-3.9127,-3.9127,-3.9127,-3.9127,-3.9127,-3.9127,-3.9127,-3.9127,-3.9127,-3.9127,-3.9127,-3.9154,-3.9282,-3.9339,-3.9364,-3.9552,-3.969,-3.9882,-4.0195,-4.0304,-4.0321,-4.0457,-4.0489,-4.0489,-4.0489,-4.0489,-4.0489,-4.0489,-4.0489,-4.0489,-4.0489,-4.0489,-4.0489,-4.0489,-4.0489,-4.0489,-4.0489,-4.0489,-4.0489,-4.0489,-4.0489,-4.0489,-4.0489,-4.0489,-4.0508,-4.06,-4.0543,-4.0562,-4.0735,-4.0658,-4.0646,-4.0739,-4.0752,-4.0718,-4.0597,-4.0636,-4.0639,-4.06,-4.0639,-4.0677,-4.0754,-4.0752,-4.075,-4.0788,-4.0863,-4.087,-4.0831,-4.0875,-4.0974,-4.1104,-4.1104,-4.1125,-4.1191,-4.1191,-4.1191,-4.1191,-4.1191,-4.1152,-4.1073,-4.0876,-4.0777,-4.0735,-4.0562,-4.0489,-4.0489,-4.0489,-4.0489,-4.0489,-4.0489,-4.0489,-4.0489,-4.0489,-4.0489,-4.0412,-4.02,-4.0181,-4.0065,-3.9781,-3.9754,-3.9752,-3.9698,-3.9731,-3.9739,-3.9695,-3.9723,-3.9744,-3.9757,-3.9756,-3.9753,-3.9738,-3.9624,-3.9504,-3.9392,-3.9392,-3.9316,-3.9184,-3.9184,-3.9184,-3.9184,-3.9335,-3.9392,-3.9392,-3.9542,-3.9599,-3.9599,-3.9599,-3.9599,-3.9599,-3.9668,-3.9709,-3.969,-3.9735,-3.9924,-4.0195,-4.0441,-4.0489,-4.0489,-4.0489,-4.0489,-4.0489,-4.0489,-4.0489,-4.0489,-4.0489,-4.0489,-4.0489,-4.0489,-4.0489,-4.0489,-4.0489,-4.0489,-4.0489,-4.0489,-4.0489,-4.0508,-4.0543,-4.0543,-4.0543,-4.0562,-4.0562,-4.06,-4.0696,-4.0607,-4.0617,-4.0808,-4.0814,-4.0771,-4.0754,-4.0795,-4.0773,-4.06,-4.0716,-4.0785,-4.0709,-4.0781,-4.081,-4.0831,-4.0823,-4.0855,-4.0864,-4.0984,-4.1024,-4.1039,-4.1021,-4.1096,-4.1191,-4.1191,-4.1191,-4.1191,-4.1191,-4.1191,-4.1191,-4.1182,-4.1094,-4.0991,-4.0836,-4.0761,-4.0677,-4.0562,-4.0489,-4.0489,-4.0489,-4.0489,-4.0489,-4.0489,-4.0489,-4.0489,-4.0489,-4.0489,-4.0489,-4.045,-4.045,-4.0431,-4.0373,-4.0372,-4.0281,-4.005,-4.0238,-4.0279,-4.005,-4.0258,-4.0377,-4.0383,-4.0383,-4.0386,-4.037,-3.9698,-3.9069,-3.8482,-3.8482,-3.812,-3.7442,-3.7442,-3.7442,-3.7457,-3.8158,-3.8482,-3.8539,-3.9278,-3.9599,-3.9599,-3.9599,-3.9599,-3.9622,-3.9922,-4.0022,-4.0062,-4.0302,-4.0406,-4.0457,-4.0489,-4.0489,-4.0489,-4.0489,-4.0489,-4.0489,-4.0489,-4.0489,-4.0489,-4.0489,-4.0489,-4.0489,-4.0489,-4.0489,-4.0489,-4.0489,-4.0489,-4.0489,-4.0489,-4.0489,-4.0543,-4.0658,-4.0677,-4.0696,-4.0754,-4.0754,-4.0773,-4.0773,-4.0761,-4.0809,-4.0954,-4.1062,-4.1095,-4.0968,-4.0977,-4.0947,-4.0927,-4.085,-4.0803,-4.0781,-4.079,-4.0846,-4.0962,-4.0969,-4.1024,-4.1149,-4.1158,-4.1174,-4.1174,-4.1163,-4.1187,-4.1191,-4.1191,-4.1191,-4.1191,-4.1191,-4.1191,-4.119,-4.1073,-4.1029,-4.0977,-4.08,-4.0703,-4.0677,-4.0562,-4.0489,-4.0489,-4.0489,-4.0489,-4.0489,-4.0489,-4.0489,-4.0489,-4.0489,-4.0489,-4.0489,-4.0489,-4.0489,-4.0489,-4.0489,-4.0489,-4.045,-4.0335,-4.0431,-4.045,-4.0335,-4.0431,-4.0489,-4.0489,-4.0489,-4.0292,-3.9831,-3.9484,-3.8681,-3.7411,-3.7888,-3.7945,-3.7602,-3.7602,-3.7602,-3.7621,-3.7964,-3.8402,-3.8879,-3.9261,-3.9681,-4.0101,-4.0101,-4.0101,-4.012,-4.0267,-4.0321,-4.0339,-4.0457,-4.0489,-4.0489,-4.0489,-4.0489,-4.0489,-4.0489,-4.0489,-4.0489,-4.0489,-4.0489,-4.0489,-4.0489,-4.0489,-4.0489,-4.0489,-4.0562,-4.062,-4.062,-4.0639,-4.0658,-4.062,-4.062,-4.0639,-4.0735,-4.0771,-4.0765,-4.0815,-4.0815,-4.0822,-4.09,-4.0808,-4.0791,-4.0873,-4.1081,-4.1144,-4.1007,-4.0993,-4.0968,-4.0884,-4.0891,-4.0906,-4.0912,-4.0981,-4.1042,-4.111,-4.111,-4.1135,-4.1191,-4.1198,-4.1208,-4.1188,-4.1199,-4.1191,-4.1191,-4.1191,-4.1191,-4.1191,-4.1191,-4.1191,-4.119,-4.1067,-4.0985,-4.0966,-4.0773,-4.0658,-4.0581,-4.0508,-4.0489,-4.0489]}]]